[[{"header":{"parameterUnit":"m.s-1","parameterCategory":1,"la1":31.0,"la2":29.5877,"lo1":-88.7671,"lo2":-86.6584,"dx":0.0162,"dy":0.0185,"nx":115,"ny":88,"refTime":"2023-01-02T18:00:00:Z","depth":0,"parameterNumber":2,"parameterNumberName":"U-component_of_WINDS"},"data":[0.0,0.0,0.0,0.0,0.0,0.0,0.0,0.0,0.0,0.0,0.0,0.0,0.0,0.0,0.0,0.0,0.0,0.0,0.0,0.0,0.0,0.0,0.0,0.0,0.0,0.0,0.0,0.0,0.0,0.0,0.0,0.0,0.0,0.0,0.0,0.0,0.0,0.0,0.0,0.0,0.0,0.0,0.0,0.0,0.0,0.0,0.0,0.0,0.0,0.0,0.0,0.0,0.0,0.0,0.0,0.0,0.0,0.0,0.0,0.0,0.0,0.0,0.0,0.0,0.0,0.0,0.0,0.0,0.0,0.0,0.0,0.0,0.0,0.0,0.0,0.0,0.0,0.0,0.0,0.0,0.0,0.0,0.0,0.0,0.0,0.0,0.0,0.0,0.0,0.0,0.0,0.0,0.0,0.0,0.0,0.0,0.0,0.0,0.0,0.0,0.0,0.0,0.0,0.0,0.0,0.0,0.0,0.0,0.0,0.0,0.0,0.0,0.0,0.0,0.0,0.0,0.0,0.0,0.0,0.0,0.0,0.0,0.0,0.0,0.0,0.0,0.0,0.0,0.0,0.0,0.0,0.0,0.0,0.0,0.0,0.0,0.0,0.0,0.0,0.0,0.0,0.0,0.0,0.0,0.0,0.0,0.0,0.0,0.0,0.0,0.0,0.0,0.0,0.0,0.0,0.0,0.0,0.0,0.0,0.0,0.0,0.0,0.0,0.0,0.0,0.0,0.0,0.0,0.0,0.0,0.0,0.0,0.0,0.0,0.0,0.0,0.0,0.0,0.0,0.0,0.0,0.0,0.0,0.0,0.0,0.0,0.0,0.0,0.0,0.0,0.0,0.0,0.0,0.0,0.0,0.0,0.0,0.0,0.0,0.0,0.0,0.0,0.0,0.0,0.0,0.0,0.0,0.0,0.0,0.0,0.0,0.0,0.0,0.0,0.0,0.0,0.0,0.0,0.0,0.0,0.0,0.0,0.0,0.0,0.0,0.0,0.0,0.0,0.0,0.0,0.0,0.0,0.0,0.0,0.0,0.0,0.0,0.0,0.0,0.0,0.0,0.0,0.0,0.0,0.0,0.0,0.0,0.0,0.0,0.0,0.0,0.0,0.0,0.0,0.0,0.0,0.0,0.0,0.0,0.0,0.0,0.0,0.0,0.0,0.0,0.0,0.0,0.0,0.0,0.0,0.0,0.0,0.0,0.0,0.0,0.0,0.0,0.0,0.0,0.0,0.0,0.0,0.0,0.0,0.0,0.0,0.0,0.0,0.0,0.0,0.0,0.0,0.0,0.0,0.0,0.0,0.0,0.0,0.0,0.0,0.0,0.0,0.0,0.0,0.0,0.0,0.0,0.0,0.0,0.0,0.0,0.0,0.0,0.0,0.0,0.0,0.0,0.0,0.0,0.0,0.0,0.0,0.0,0.0,0.0,0.0,0.0,0.0,0.0,0.0,0.0,0.0,0.0,0.0,0.0,0.0,0.0,0.0,0.0,0.0,0.0,0.0,0.0,0.0,0.0,0.0,0.0,0.0,0.0,0.0,0.0,0.0,0.0,0.0,0.0,0.0,0.0,0.0,0.0,0.0,0.0,0.0,0.0,0.0,0.0,0.0,0.0,0.0,0.0,0.0,0.0,0.0,0.0,0.0,0.0,0.0,0.0,0.0,0.0,0.0,0.0,0.0,0.0,0.0,0.0,0.0,0.0,0.0,0.0,0.0,0.0,0.0,0.0,0.0,0.0,0.0,0.0,0.0,0.0,0.0,0.0,0.0,0.0,0.0,0.0,0.0,0.0,0.0,0.0,0.0,0.0,0.0,0.0,0.0,0.0,0.0,0.0,0.0,0.0,0.0,0.0,0.0,0.0,0.0,0.0,0.0,0.0,0.0,0.0,0.0,0.0,0.0,0.0,0.0,0.0,0.0,0.0,0.0,0.0,0.0,0.0,0.0,0.0,0.0,0.0,0.0,0.0,0.0,0.0,0.0,0.0,0.0,0.0,0.0,0.0,0.0,0.0,0.0,0.0,0.0,0.0,0.0,0.0,0.0,0.0,0.0,0.0,0.0,0.0,0.0,0.0,0.0,0.0,0.0,0.0,0.0,0.0,0.0,0.0,0.0,0.0,0.0,0.0,0.0,0.0,0.0,0.0,0.0,0.0,0.0,0.0,0.0,0.0,0.0,0.0,0.0,0.0,0.0,0.0,0.0,0.0,0.0,0.0,0.0,0.0,0.0,0.0,0.0,0.0,0.0,0.0,0.0,0.0,0.0,0.0,0.0,0.0,0.0,0.0,0.0,0.0,0.0,0.0,0.0,0.0,0.0,0.0,0.0,0.0,0.0,0.0,0.0,0.0,0.0,0.0,0.0,0.0,0.0,0.0,0.0,0.0,0.0,0.0,0.0,0.0,0.0,0.0,0.0,0.0,0.0,0.0,0.0,0.0,0.0,0.0,0.0,0.0,0.0,0.0,0.0,0.0,0.0,0.0,0.0,0.0,0.0,0.0,0.0,0.0,0.0,0.0,0.0,0.0,0.0,0.0,0.0,0.0,0.0,0.0,0.0,0.0,0.0,0.0,0.0,0.0,0.0,0.0,0.0,0.0,0.0,0.0,0.0,0.0,0.0,0.0,0.0,0.0,0.0,0.0,0.0,0.0,0.0,0.0,0.0,0.0,0.0,0.0,0.0,0.0,0.0,0.0,0.0,0.0,0.0,0.0,0.0,0.0,0.0,0.0,0.0,0.0,0.0,0.0,0.0,0.0,0.0,0.0,0.0,0.0,0.0,0.0,0.0,0.0,0.0,0.0,0.0,0.0,0.0,0.0,0.0,0.0,0.0,0.0,0.0,0.0,0.0,0.0,0.0,0.0,0.0,0.0,0.0,0.0,0.0,0.0,0.0,0.0,0.0,0.0,0.0,0.0,0.0,0.0,0.0,0.0,0.0,0.0,0.0,0.0,0.0,0.0,0.0,0.0,0.0,0.0,0.0,0.0,0.0,0.0,0.0,0.0,0.0,0.0,0.0,0.0,0.0,0.0,0.0,0.0,0.0,0.0,0.0,0.0,0.0,0.0,0.0,0.0,0.0,0.0,0.0,0.0,0.0,0.0,0.0,0.0,0.0,0.0,0.0,0.0,0.0,0.0,0.0,0.0,0.0,0.0,0.0,0.0,0.0,0.0,0.0,0.0,0.0,0.0,0.0,0.0,0.0,0.0,0.0,0.0,0.0,0.0,0.0,0.0,0.0,0.0,0.0,0.0,0.0,0.0,0.0,0.0,0.0,0.0,0.0,0.0,0.0,0.0,0.0,0.0,0.0,0.0,0.0,0.0,0.0,0.0,0.0,0.0,0.0,0.0,0.0,0.0,0.0,0.0,0.0,0.0,0.0,0.0,0.0,0.0,0.0,0.0,0.0,0.0,0.0,0.0,0.0,0.0,0.0,0.0,0.0,0.0,0.0,0.0,0.0,0.0,0.0,0.0,0.0,0.0,0.0,0.0,0.0,0.0,0.0,0.0,0.0,0.0,0.0,0.0,0.0,0.0,0.0,0.0,0.0,0.0,0.0,0.0,0.0,0.0,0.0,0.0,0.0,0.0,0.0,0.0,0.0,0.0,0.0,0.0,0.0,0.0,0.0,0.0,0.0,0.0,0.0,0.0,0.0,0.0,0.0,0.0,0.0,0.0,0.0,0.0,0.0,0.0,0.0,0.0,0.0,0.0,0.0,0.0,0.0,0.0,0.0,0.0,0.0,0.0,0.0,0.0,0.0,0.0,0.0,0.0,0.0,0.0,0.0,0.0,0.0,0.0,0.0,0.0,0.0,0.0,0.0,0.0,0.0,0.0,0.0,0.0,0.0,0.0,0.0,0.0,0.0,0.0,0.0,0.0,0.0,0.0,0.0,0.0,0.0,0.0,0.0,0.0,0.0,0.0,0.0,0.0,0.0,0.0,0.0,0.0,0.0,0.0,0.0,0.0,0.0,0.0,0.0,0.0,0.0,0.0,0.0,0.0,0.0,0.0,0.0,0.0,0.0,0.0,0.0,0.0,0.0,0.0,0.0,0.0,0.0,0.0,0.0,0.0,0.0,0.0,0.0,0.0,0.0,0.0,0.0,0.0,0.0,0.0,0.0,0.0,0.0,0.0,0.0,0.0,0.0,0.0,0.0,0.0,0.0,0.0,0.0,0.0,0.0,0.0,0.0,0.0,0.0,0.0,0.0,0.0,0.0,0.0,0.0,0.0,0.0,0.0,0.0,-4.8855,0.0,0.0,0.0,-4.7353,0.0,0.0,0.0,0.0,0.0,0.0,0.0,0.0,0.0,0.0,0.0,0.0,0.0,0.0,0.0,0.0,0.0,0.0,0.0,0.0,0.0,0.0,0.0,0.0,0.0,0.0,0.0,0.0,0.0,0.0,0.0,0.0,0.0,0.0,0.0,0.0,0.0,0.0,0.0,0.0,0.0,0.0,0.0,0.0,0.0,0.0,0.0,0.0,0.0,0.0,0.0,0.0,0.0,0.0,0.0,0.0,0.0,0.0,0.0,0.0,0.0,0.0,0.0,0.0,0.0,0.0,0.0,0.0,0.0,0.0,0.0,0.0,0.0,0.0,0.0,0.0,0.0,0.0,0.0,0.0,0.0,0.0,0.0,0.0,0.0,0.0,0.0,0.0,0.0,0.0,0.0,0.0,0.0,0.0,0.0,0.0,0.0,0.0,0.0,0.0,0.0,0.0,0.0,0.0,0.0,0.0,0.0,0.0,0.0,0.0,-4.884,-4.8787,-4.8697,-4.8384,-4.7868,0.0,0.0,0.0,0.0,0.0,0.0,0.0,0.0,0.0,0.0,0.0,0.0,0.0,0.0,0.0,0.0,0.0,0.0,0.0,0.0,0.0,0.0,0.0,0.0,0.0,0.0,0.0,0.0,0.0,0.0,0.0,0.0,0.0,0.0,0.0,0.0,0.0,0.0,0.0,0.0,0.0,0.0,0.0,0.0,0.0,0.0,0.0,0.0,0.0,0.0,0.0,0.0,0.0,0.0,0.0,0.0,0.0,0.0,0.0,0.0,0.0,0.0,0.0,0.0,0.0,0.0,0.0,0.0,0.0,0.0,0.0,0.0,0.0,0.0,0.0,0.0,0.0,0.0,0.0,0.0,0.0,0.0,0.0,0.0,0.0,0.0,0.0,0.0,0.0,0.0,0.0,0.0,0.0,0.0,0.0,0.0,0.0,0.0,0.0,0.0,0.0,0.0,0.0,0.0,0.0,0.0,0.0,0.0,0.0,0.0,0.0,0.0,-4.855,-4.8197,-4.7641,0.0,0.0,0.0,0.0,0.0,0.0,0.0,0.0,0.0,0.0,0.0,0.0,0.0,0.0,0.0,0.0,0.0,0.0,0.0,0.0,0.0,0.0,0.0,0.0,0.0,0.0,0.0,0.0,0.0,0.0,0.0,0.0,0.0,0.0,0.0,0.0,0.0,0.0,0.0,0.0,0.0,0.0,0.0,0.0,0.0,0.0,0.0,0.0,0.0,0.0,0.0,0.0,0.0,0.0,0.0,0.0,0.0,0.0,0.0,0.0,0.0,0.0,0.0,0.0,0.0,0.0,0.0,0.0,0.0,0.0,0.0,0.0,0.0,0.0,0.0,0.0,0.0,0.0,0.0,0.0,0.0,0.0,0.0,0.0,0.0,0.0,0.0,0.0,0.0,0.0,0.0,0.0,0.0,0.0,0.0,0.0,0.0,0.0,0.0,0.0,0.0,0.0,0.0,0.0,0.0,0.0,0.0,0.0,0.0,0.0,-4.8715,-4.8569,-4.84,0.0,-4.5909,0.0,0.0,0.0,0.0,0.0,0.0,0.0,0.0,0.0,0.0,0.0,0.0,0.0,0.0,0.0,0.0,0.0,0.0,0.0,0.0,0.0,0.0,0.0,0.0,0.0,0.0,0.0,0.0,0.0,0.0,0.0,0.0,0.0,0.0,0.0,0.0,0.0,0.0,0.0,0.0,0.0,0.0,0.0,0.0,0.0,0.0,0.0,0.0,0.0,0.0,0.0,0.0,0.0,0.0,0.0,0.0,0.0,0.0,0.0,0.0,0.0,0.0,0.0,0.0,0.0,0.0,0.0,0.0,0.0,0.0,0.0,0.0,0.0,0.0,0.0,0.0,0.0,0.0,0.0,0.0,0.0,0.0,0.0,0.0,0.0,0.0,0.0,0.0,0.0,0.0,0.0,0.0,0.0,0.0,0.0,0.0,0.0,0.0,0.0,0.0,0.0,0.0,0.0,0.0,0.0,0.0,0.0,0.0,0.0,0.0,-4.8569,-4.84,-4.8187,-4.7239,0.0,0.0,0.0,0.0,0.0,0.0,0.0,0.0,0.0,0.0,0.0,0.0,0.0,0.0,0.0,0.0,0.0,0.0,0.0,0.0,0.0,0.0,0.0,0.0,0.0,0.0,0.0,0.0,0.0,0.0,0.0,0.0,0.0,0.0,0.0,0.0,0.0,0.0,0.0,0.0,0.0,0.0,0.0,0.0,0.0,0.0,0.0,0.0,0.0,0.0,0.0,0.0,0.0,0.0,0.0,0.0,0.0,0.0,0.0,0.0,0.0,0.0,0.0,0.0,0.0,0.0,0.0,0.0,0.0,0.0,0.0,0.0,0.0,0.0,0.0,0.0,0.0,0.0,0.0,0.0,0.0,0.0,0.0,0.0,0.0,0.0,0.0,0.0,0.0,0.0,0.0,0.0,0.0,0.0,0.0,0.0,0.0,0.0,0.0,0.0,0.0,0.0,0.0,0.0,0.0,0.0,0.0,0.0,0.0,0.0,-4.807,-4.8751,-4.85,-4.8077,-4.7037,-4.5305,0.0,0.0,0.0,0.0,0.0,0.0,0.0,0.0,0.0,0.0,0.0,0.0,0.0,0.0,0.0,0.0,0.0,0.0,0.0,0.0,0.0,0.0,0.0,0.0,0.0,0.0,0.0,0.0,0.0,0.0,0.0,0.0,0.0,0.0,0.0,0.0,0.0,0.0,0.0,0.0,0.0,0.0,0.0,0.0,0.0,0.0,0.0,0.0,0.0,0.0,0.0,0.0,0.0,0.0,0.0,0.0,0.0,0.0,0.0,0.0,0.0,0.0,0.0,0.0,0.0,0.0,0.0,0.0,0.0,0.0,0.0,0.0,0.0,0.0,0.0,0.0,0.0,0.0,0.0,0.0,0.0,0.0,0.0,0.0,0.0,0.0,0.0,0.0,0.0,0.0,0.0,0.0,0.0,0.0,0.0,0.0,0.0,0.0,0.0,0.0,0.0,0.0,0.0,0.0,0.0,0.0,0.0,0.0,-4.7367,-4.8732,-4.9342,-4.9034,-4.8161,-4.6933,0.0,0.0,0.0,0.0,0.0,0.0,0.0,0.0,0.0,0.0,0.0,0.0,0.0,0.0,0.0,0.0,0.0,0.0,0.0,0.0,0.0,0.0,0.0,0.0,0.0,0.0,0.0,0.0,0.0,0.0,0.0,0.0,0.0,0.0,0.0,0.0,0.0,0.0,0.0,0.0,0.0,0.0,0.0,0.0,0.0,0.0,0.0,0.0,0.0,0.0,0.0,0.0,0.0,0.0,0.0,0.0,0.0,0.0,0.0,0.0,0.0,0.0,0.0,0.0,0.0,0.0,0.0,0.0,0.0,0.0,0.0,0.0,0.0,0.0,0.0,0.0,0.0,0.0,0.0,0.0,0.0,0.0,0.0,0.0,0.0,0.0,0.0,0.0,0.0,0.0,0.0,0.0,0.0,0.0,0.0,0.0,0.0,0.0,0.0,0.0,0.0,0.0,0.0,0.0,0.0,0.0,0.0,0.0,0.0,-4.8144,-4.9421,-4.9721,-4.898,-4.8562,-4.7508,0.0,0.0,0.0,0.0,0.0,0.0,0.0,0.0,0.0,0.0,0.0,0.0,0.0,0.0,0.0,0.0,0.0,0.0,0.0,0.0,0.0,0.0,0.0,0.0,0.0,0.0,0.0,0.0,0.0,0.0,0.0,0.0,0.0,0.0,0.0,0.0,0.0,0.0,0.0,0.0,0.0,0.0,0.0,0.0,0.0,0.0,0.0,0.0,0.0,0.0,0.0,0.0,0.0,0.0,0.0,0.0,0.0,0.0,0.0,0.0,0.0,0.0,0.0,0.0,0.0,0.0,0.0,0.0,0.0,0.0,0.0,0.0,0.0,0.0,0.0,0.0,0.0,0.0,0.0,0.0,0.0,0.0,0.0,0.0,0.0,0.0,0.0,0.0,0.0,0.0,0.0,0.0,0.0,0.0,0.0,0.0,0.0,0.0,0.0,0.0,0.0,0.0,0.0,0.0,0.0,0.0,0.0,0.0,0.0,-4.9485,-5.006,-5.0076,-4.9611,-4.8951,-4.7873,0.0,0.0,0.0,0.0,0.0,0.0,0.0,0.0,0.0,0.0,0.0,0.0,0.0,0.0,0.0,0.0,0.0,0.0,0.0,0.0,0.0,0.0,0.0,0.0,0.0,0.0,0.0,0.0,0.0,0.0,0.0,0.0,0.0,0.0,0.0,0.0,0.0,0.0,0.0,0.0,0.0,0.0,0.0,0.0,0.0,0.0,0.0,0.0,0.0,0.0,0.0,0.0,0.0,0.0,0.0,0.0,0.0,0.0,0.0,0.0,0.0,0.0,0.0,0.0,0.0,0.0,0.0,0.0,0.0,0.0,0.0,0.0,0.0,0.0,0.0,0.0,0.0,0.0,0.0,0.0,0.0,0.0,0.0,0.0,0.0,0.0,0.0,0.0,0.0,0.0,0.0,0.0,0.0,0.0,0.0,0.0,0.0,0.0,0.0,0.0,0.0,0.0,0.0,0.0,0.0,0.0,0.0,0.0,-4.9632,-5.142,-5.0671,-5.0579,-5.1043,-4.9395,-4.8038,0.0,0.0,0.0,0.0,0.0,0.0,0.0,0.0,0.0,0.0,0.0,0.0,0.0,0.0,0.0,0.0,0.0,0.0,0.0,0.0,0.0,0.0,0.0,0.0,0.0,0.0,0.0,0.0,0.0,0.0,0.0,0.0,0.0,0.0,0.0,0.0,0.0,0.0,0.0,0.0,0.0,0.0,0.0,0.0,0.0,0.0,0.0,0.0,0.0,0.0,0.0,0.0,0.0,0.0,0.0,0.0,0.0,0.0,0.0,0.0,0.0,0.0,0.0,0.0,0.0,0.0,0.0,0.0,0.0,0.0,0.0,0.0,0.0,0.0,0.0,0.0,0.0,0.0,0.0,0.0,0.0,0.0,0.0,0.0,0.0,0.0,0.0,0.0,0.0,0.0,0.0,0.0,0.0,0.0,0.0,0.0,0.0,0.0,0.0,0.0,0.0,0.0,0.0,0.0,0.0,0.0,0.0,0.0,0.0,-5.2137,-5.275,-5.2832,-5.2276,-5.1211,-4.9959,0.0,0.0,0.0,0.0,0.0,0.0,0.0,0.0,0.0,0.0,0.0,0.0,0.0,0.0,0.0,0.0,0.0,0.0,0.0,0.0,0.0,0.0,0.0,0.0,0.0,0.0,0.0,0.0,0.0,0.0,0.0,0.0,0.0,0.0,0.0,0.0,0.0,0.0,0.0,0.0,0.0,0.0,0.0,0.0,0.0,0.0,0.0,0.0,0.0,0.0,0.0,0.0,0.0,0.0,0.0,0.0,0.0,0.0,0.0,0.0,0.0,0.0,0.0,0.0,0.0,0.0,0.0,0.0,0.0,0.0,0.0,0.0,0.0,0.0,0.0,0.0,0.0,0.0,0.0,0.0,0.0,0.0,0.0,0.0,0.0,0.0,0.0,0.0,0.0,0.0,0.0,0.0,0.0,0.0,0.0,0.0,0.0,0.0,0.0,0.0,0.0,0.0,0.0,0.0,0.0,0.0,0.0,0.0,0.0,-5.3878,-5.4671,-5.4633,-5.3602,-5.2552,-5.1221,-4.9597,0.0,0.0,0.0,0.0,0.0,0.0,0.0,0.0,0.0,0.0,0.0,0.0,0.0,0.0,0.0,0.0,0.0,0.0,0.0,0.0,0.0,0.0,0.0,0.0,0.0,0.0,0.0,0.0,0.0,0.0,0.0,0.0,0.0,0.0,0.0,0.0,0.0,0.0,0.0,0.0,0.0,0.0,0.0,0.0,0.0,0.0,0.0,0.0,0.0,0.0,0.0,0.0,0.0,0.0,0.0,0.0,0.0,0.0,0.0,0.0,0.0,0.0,0.0,0.0,0.0,0.0,0.0,0.0,0.0,0.0,0.0,0.0,0.0,0.0,0.0,0.0,0.0,0.0,0.0,0.0,0.0,0.0,0.0,0.0,0.0,0.0,0.0,0.0,0.0,0.0,0.0,0.0,0.0,0.0,0.0,0.0,0.0,0.0,0.0,0.0,0.0,0.0,0.0,0.0,0.0,0.0,0.0,0.0,-5.6542,-5.6585,-5.6111,-5.5076,-5.3485,-5.1927,0.0,0.0,0.0,0.0,0.0,0.0,0.0,0.0,0.0,0.0,0.0,0.0,0.0,0.0,0.0,0.0,0.0,0.0,0.0,0.0,0.0,0.0,0.0,0.0,0.0,0.0,0.0,0.0,0.0,0.0,0.0,0.0,0.0,0.0,0.0,0.0,0.0,0.0,0.0,0.0,0.0,0.0,0.0,0.0,0.0,0.0,0.0,0.0,0.0,0.0,0.0,0.0,0.0,0.0,0.0,0.0,0.0,0.0,0.0,0.0,0.0,0.0,0.0,0.0,0.0,0.0,0.0,0.0,0.0,0.0,0.0,0.0,0.0,0.0,0.0,0.0,0.0,0.0,0.0,0.0,0.0,0.0,0.0,0.0,0.0,0.0,0.0,0.0,0.0,0.0,0.0,0.0,0.0,0.0,0.0,0.0,0.0,0.0,0.0,0.0,0.0,0.0,0.0,0.0,0.0,0.0,0.0,0.0,0.0,-5.9532,-5.9809,-5.902,-5.7241,-5.5658,-5.4141,0.0,0.0,0.0,0.0,0.0,0.0,0.0,0.0,0.0,0.0,0.0,0.0,0.0,0.0,0.0,0.0,0.0,0.0,0.0,0.0,0.0,0.0,0.0,0.0,0.0,0.0,0.0,0.0,0.0,0.0,0.0,0.0,0.0,0.0,0.0,0.0,0.0,0.0,0.0,0.0,0.0,0.0,0.0,0.0,0.0,0.0,0.0,0.0,0.0,0.0,0.0,0.0,0.0,0.0,0.0,0.0,0.0,0.0,0.0,0.0,0.0,0.0,0.0,0.0,0.0,0.0,0.0,0.0,0.0,0.0,0.0,0.0,0.0,0.0,0.0,0.0,0.0,0.0,0.0,0.0,0.0,0.0,0.0,0.0,0.0,0.0,0.0,0.0,0.0,0.0,0.0,0.0,0.0,0.0,0.0,0.0,0.0,0.0,0.0,0.0,0.0,0.0,0.0,0.0,0.0,0.0,0.0,0.0,-5.8908,-6.0481,-6.1225,-6.0784,-5.9169,-5.7346,-5.5373,0.0,0.0,0.0,0.0,0.0,0.0,0.0,0.0,0.0,0.0,0.0,0.0,0.0,0.0,0.0,0.0,0.0,0.0,0.0,0.0,0.0,0.0,0.0,0.0,0.0,0.0,0.0,0.0,0.0,0.0,0.0,0.0,0.0,0.0,0.0,0.0,0.0,0.0,0.0,0.0,0.0,0.0,0.0,0.0,0.0,0.0,0.0,0.0,0.0,0.0,0.0,0.0,0.0,0.0,0.0,0.0,0.0,0.0,0.0,0.0,0.0,0.0,0.0,0.0,0.0,0.0,0.0,0.0,0.0,0.0,0.0,0.0,0.0,0.0,0.0,0.0,0.0,0.0,0.0,0.0,0.0,0.0,0.0,0.0,0.0,0.0,0.0,0.0,0.0,0.0,0.0,0.0,0.0,0.0,0.0,0.0,0.0,0.0,0.0,0.0,0.0,0.0,0.0,0.0,0.0,0.0,0.0,0.0,-5.9203,-6.032,-6.1558,-6.1776,-6.0909,-5.8718,-5.6265,0.0,0.0,0.0,0.0,0.0,0.0,0.0,0.0,0.0,0.0,0.0,0.0,0.0,0.0,0.0,0.0,0.0,0.0,0.0,0.0,0.0,0.0,0.0,0.0,0.0,0.0,0.0,0.0,0.0,0.0,0.0,0.0,0.0,0.0,0.0,0.0,0.0,0.0,0.0,0.0,0.0,0.0,0.0,0.0,0.0,0.0,0.0,0.0,0.0,0.0,0.0,0.0,0.0,0.0,0.0,0.0,0.0,0.0,0.0,0.0,0.0,0.0,0.0,0.0,0.0,0.0,0.0,0.0,0.0,0.0,0.0,0.0,0.0,0.0,0.0,0.0,0.0,0.0,0.0,0.0,0.0,0.0,0.0,0.0,0.0,0.0,0.0,0.0,0.0,0.0,0.0,0.0,0.0,0.0,0.0,0.0,0.0,0.0,0.0,0.0,0.0,0.0,0.0,0.0,0.0,0.0,0.0,0.0,-6.0826,-6.1864,-6.2507,-6.2614,-6.2265,-6.025,-5.7982,0.0,0.0,0.0,0.0,0.0,0.0,0.0,0.0,0.0,0.0,0.0,0.0,0.0,0.0,0.0,0.0,0.0,0.0,0.0,0.0,0.0,0.0,0.0,0.0,0.0,0.0,0.0,0.0,0.0,0.0,0.0,0.0,0.0,0.0,0.0,0.0,0.0,0.0,0.0,0.0,0.0,0.0,0.0,0.0,0.0,0.0,0.0,0.0,-4.334,0.0,0.0,0.0,0.0,0.0,0.0,0.0,0.0,0.0,0.0,0.0,0.0,0.0,0.0,0.0,0.0,0.0,0.0,0.0,0.0,0.0,0.0,0.0,0.0,0.0,0.0,0.0,0.0,0.0,0.0,0.0,0.0,0.0,0.0,0.0,0.0,0.0,0.0,0.0,0.0,0.0,0.0,0.0,0.0,0.0,0.0,0.0,0.0,0.0,0.0,0.0,0.0,0.0,0.0,0.0,0.0,0.0,0.0,0.0,-6.1709,-6.3135,-6.3345,-6.334,-6.3057,-6.1363,-5.9179,0.0,0.0,0.0,0.0,0.0,0.0,0.0,0.0,0.0,0.0,0.0,0.0,0.0,0.0,0.0,0.0,0.0,0.0,0.0,0.0,0.0,0.0,0.0,0.0,0.0,0.0,0.0,0.0,0.0,0.0,0.0,0.0,0.0,0.0,0.0,0.0,0.0,0.0,0.0,0.0,0.0,0.0,0.0,0.0,0.0,0.0,0.0,0.0,0.0,0.0,0.0,0.0,0.0,0.0,0.0,0.0,0.0,0.0,0.0,0.0,0.0,0.0,0.0,0.0,0.0,0.0,0.0,0.0,0.0,0.0,0.0,0.0,0.0,0.0,0.0,0.0,0.0,0.0,0.0,0.0,0.0,0.0,0.0,0.0,0.0,0.0,0.0,0.0,0.0,0.0,0.0,0.0,0.0,0.0,0.0,0.0,0.0,0.0,0.0,0.0,0.0,0.0,0.0,0.0,0.0,0.0,0.0,-6.0141,-6.2293,-6.4006,-6.4069,-6.3956,-6.3738,-6.2289,-6.0186,-5.7382,0.0,0.0,0.0,0.0,0.0,0.0,0.0,0.0,0.0,0.0,0.0,0.0,0.0,0.0,0.0,0.0,0.0,0.0,0.0,0.0,0.0,0.0,0.0,0.0,0.0,0.0,0.0,0.0,0.0,0.0,0.0,0.0,0.0,0.0,0.0,0.0,0.0,0.0,-4.4764,-4.6364,0.0,0.0,0.0,0.0,0.0,0.0,0.0,0.0,-4.7341,0.0,0.0,0.0,0.0,0.0,0.0,0.0,0.0,0.0,0.0,0.0,0.0,0.0,0.0,0.0,0.0,0.0,0.0,0.0,0.0,0.0,0.0,0.0,0.0,0.0,0.0,0.0,0.0,0.0,0.0,0.0,0.0,0.0,0.0,0.0,0.0,0.0,0.0,0.0,0.0,0.0,0.0,0.0,0.0,0.0,0.0,0.0,0.0,0.0,0.0,0.0,0.0,0.0,0.0,0.0,0.0,-5.8259,-6.0857,-6.2818,-6.4076,-6.4554,-6.4717,-6.4462,-6.3082,-6.1151,-5.8736,0.0,0.0,0.0,0.0,0.0,0.0,0.0,0.0,0.0,0.0,0.0,0.0,0.0,0.0,0.0,0.0,0.0,0.0,0.0,0.0,0.0,0.0,0.0,0.0,0.0,0.0,0.0,0.0,0.0,0.0,0.0,0.0,0.0,0.0,0.0,0.0,0.0,0.0,0.0,-4.9194,-4.9976,0.0,0.0,0.0,0.0,0.0,0.0,0.0,0.0,-4.845,0.0,0.0,0.0,0.0,0.0,0.0,0.0,0.0,0.0,0.0,0.0,0.0,0.0,0.0,0.0,0.0,0.0,0.0,0.0,0.0,0.0,0.0,0.0,0.0,0.0,0.0,0.0,0.0,0.0,0.0,0.0,0.0,0.0,0.0,0.0,0.0,0.0,0.0,0.0,0.0,0.0,0.0,0.0,0.0,0.0,0.0,0.0,0.0,0.0,0.0,0.0,0.0,0.0,0.0,0.0,-5.8952,-6.1441,-6.3555,-6.5188,-6.5417,-6.5437,-6.5255,-6.3496,-6.1392,0.0,0.0,0.0,0.0,0.0,0.0,0.0,0.0,0.0,0.0,0.0,0.0,0.0,0.0,0.0,0.0,0.0,0.0,0.0,0.0,0.0,0.0,0.0,0.0,0.0,0.0,0.0,0.0,0.0,0.0,0.0,0.0,0.0,0.0,0.0,0.0,0.0,0.0,0.0,0.0,-5.0685,-5.1382,-5.1124,0.0,0.0,0.0,0.0,0.0,0.0,-5.1389,-5.005,0.0,0.0,0.0,0.0,0.0,0.0,0.0,0.0,0.0,0.0,0.0,0.0,0.0,0.0,0.0,0.0,0.0,0.0,0.0,0.0,0.0,0.0,0.0,0.0,0.0,0.0,0.0,0.0,0.0,0.0,0.0,0.0,0.0,0.0,0.0,0.0,0.0,0.0,0.0,0.0,0.0,0.0,0.0,0.0,0.0,0.0,0.0,0.0,0.0,0.0,0.0,0.0,0.0,0.0,0.0,-5.9866,-6.2118,-6.4213,-6.6227,-6.6204,-6.6014,-6.5842,-6.3841,-6.153,0.0,0.0,0.0,0.0,0.0,0.0,0.0,0.0,0.0,0.0,0.0,0.0,0.0,0.0,0.0,0.0,0.0,0.0,0.0,0.0,0.0,0.0,0.0,0.0,0.0,0.0,0.0,0.0,0.0,0.0,0.0,0.0,0.0,0.0,0.0,0.0,0.0,0.0,0.0,0.0,0.0,-5.2613,-5.2752,-5.2649,0.0,0.0,0.0,0.0,-5.3828,-5.295,0.0,0.0,0.0,0.0,0.0,0.0,0.0,0.0,0.0,0.0,0.0,0.0,0.0,0.0,0.0,0.0,0.0,0.0,0.0,0.0,0.0,0.0,0.0,0.0,0.0,0.0,0.0,0.0,0.0,0.0,0.0,0.0,0.0,0.0,0.0,0.0,0.0,0.0,0.0,0.0,0.0,0.0,0.0,0.0,0.0,0.0,0.0,0.0,0.0,0.0,0.0,0.0,0.0,0.0,0.0,0.0,-6.0947,-6.2962,-6.4698,-6.6075,-6.6612,-6.6531,-6.5876,-6.4324,-6.2082,0.0,0.0,0.0,0.0,0.0,0.0,0.0,0.0,0.0,0.0,0.0,0.0,0.0,0.0,0.0,0.0,0.0,0.0,0.0,0.0,0.0,0.0,0.0,0.0,0.0,0.0,0.0,0.0,0.0,0.0,0.0,0.0,0.0,0.0,0.0,0.0,0.0,0.0,0.0,0.0,0.0,-5.4175,-5.3842,-5.4316,-5.4703,0.0,0.0,-5.4251,-5.5062,-5.4064,0.0,0.0,0.0,0.0,0.0,0.0,0.0,0.0,0.0,0.0,0.0,0.0,0.0,0.0,0.0,0.0,0.0,0.0,0.0,0.0,0.0,0.0,0.0,0.0,0.0,0.0,0.0,0.0,0.0,0.0,0.0,0.0,0.0,0.0,0.0,0.0,0.0,0.0,0.0,0.0,0.0,0.0,0.0,0.0,0.0,0.0,0.0,0.0,0.0,0.0,0.0,0.0,0.0,0.0,0.0,-5.8007,-6.1726,-6.3764,-6.5428,-6.673,-6.7338,-6.7083,-6.5911,-6.4807,-6.2806,0.0,0.0,0.0,0.0,0.0,0.0,0.0,0.0,0.0,0.0,0.0,0.0,0.0,0.0,0.0,0.0,0.0,0.0,0.0,0.0,0.0,0.0,0.0,0.0,0.0,0.0,0.0,0.0,0.0,0.0,0.0,0.0,0.0,0.0,0.0,0.0,0.0,0.0,0.0,0.0,0.0,0.0,-5.5734,-5.6077,0.0,0.0,0.0,-5.6124,-5.6665,0.0,0.0,0.0,0.0,0.0,0.0,0.0,0.0,0.0,0.0,0.0,0.0,0.0,0.0,0.0,0.0,0.0,0.0,0.0,0.0,0.0,0.0,0.0,0.0,0.0,0.0,0.0,0.0,0.0,0.0,0.0,0.0,0.0,0.0,0.0,0.0,0.0,0.0,0.0,0.0,0.0,0.0,0.0,0.0,0.0,0.0,0.0,0.0,0.0,0.0,0.0,0.0,0.0,0.0,0.0,0.0,0.0,-6.2398,-6.4531,-6.6086,-6.7211,-6.7782,-6.7497,-6.6186,-6.5221,0.0,0.0,0.0,0.0,0.0,0.0,0.0,0.0,0.0,0.0,0.0,0.0,0.0,0.0,0.0,0.0,0.0,0.0,0.0,0.0,0.0,0.0,0.0,0.0,0.0,0.0,0.0,-4.193,0.0,0.0,0.0,0.0,0.0,0.0,0.0,0.0,0.0,0.0,0.0,0.0,0.0,0.0,-5.5523,-5.7215,-5.7521,-5.7777,0.0,0.0,-5.7634,-5.8011,-5.703,-5.572,0.0,0.0,0.0,0.0,0.0,0.0,0.0,0.0,0.0,0.0,0.0,0.0,0.0,0.0,0.0,0.0,0.0,0.0,0.0,0.0,0.0,0.0,0.0,0.0,0.0,0.0,0.0,0.0,0.0,0.0,0.0,0.0,0.0,0.0,0.0,0.0,0.0,0.0,0.0,0.0,0.0,0.0,0.0,0.0,0.0,0.0,0.0,0.0,0.0,0.0,0.0,0.0,0.0,0.0,0.0,-6.2892,-6.5153,-6.6532,-6.7019,-6.7704,-6.7704,-6.6945,-6.5462,-6.3634,0.0,0.0,0.0,0.0,0.0,0.0,0.0,0.0,0.0,0.0,0.0,0.0,0.0,0.0,0.0,0.0,0.0,0.0,0.0,0.0,0.0,0.0,0.0,0.0,0.0,0.0,0.0,0.0,0.0,0.0,0.0,0.0,0.0,0.0,0.0,0.0,0.0,0.0,0.0,0.0,0.0,-5.5751,-5.7829,-5.8264,-5.8601,0.0,0.0,-5.872,-5.8751,-5.7641,-5.6567,-5.5984,0.0,0.0,0.0,0.0,0.0,0.0,0.0,0.0,0.0,0.0,0.0,0.0,0.0,0.0,0.0,0.0,0.0,0.0,0.0,0.0,0.0,0.0,0.0,0.0,0.0,0.0,0.0,0.0,0.0,0.0,0.0,0.0,0.0,0.0,0.0,0.0,0.0,0.0,0.0,0.0,0.0,0.0,0.0,0.0,0.0,0.0,0.0,0.0,0.0,0.0,0.0,0.0,0.0,-5.9768,-6.3623,-6.532,-6.6696,-6.7674,-6.7945,-6.7738,-6.7014,-6.6393,-6.5048,0.0,0.0,0.0,0.0,0.0,0.0,0.0,0.0,0.0,0.0,0.0,0.0,0.0,0.0,0.0,0.0,0.0,0.0,0.0,0.0,0.0,0.0,0.0,0.0,0.0,0.0,0.0,0.0,-4.8838,-4.9396,-4.9562,0.0,0.0,0.0,0.0,0.0,0.0,0.0,0.0,0.0,0.0,-5.6968,-5.879,-5.9473,0.0,0.0,-6.0228,-5.987,-5.947,-5.8978,-5.8319,-5.7307,-5.5548,0.0,0.0,0.0,0.0,0.0,0.0,0.0,0.0,0.0,0.0,0.0,0.0,0.0,0.0,0.0,0.0,0.0,0.0,0.0,0.0,0.0,0.0,0.0,0.0,0.0,0.0,0.0,0.0,0.0,0.0,0.0,0.0,0.0,0.0,0.0,0.0,0.0,0.0,0.0,0.0,0.0,0.0,0.0,0.0,0.0,0.0,0.0,0.0,0.0,0.0,0.0,0.0,-6.0163,-6.4315,-6.5523,-6.6862,-6.8428,-6.8428,-6.8187,-6.7704,-6.7428,-6.6359,0.0,0.0,0.0,0.0,0.0,0.0,0.0,0.0,0.0,0.0,0.0,0.0,0.0,0.0,0.0,0.0,0.0,0.0,0.0,0.0,0.0,0.0,0.0,0.0,0.0,0.0,0.0,0.0,-5.0774,-5.1149,-5.0424,0.0,0.0,0.0,0.0,0.0,0.0,0.0,0.0,0.0,0.0,-5.8153,-6.0012,-6.0697,-6.1088,-6.1598,-6.1329,-6.0917,-6.0455,-6.024,-5.9686,-5.8547,0.0,0.0,0.0,0.0,0.0,0.0,0.0,0.0,0.0,0.0,0.0,0.0,0.0,0.0,0.0,0.0,0.0,0.0,0.0,0.0,0.0,0.0,0.0,0.0,0.0,0.0,0.0,0.0,0.0,0.0,-5.131,0.0,0.0,0.0,0.0,0.0,0.0,0.0,0.0,0.0,0.0,0.0,0.0,0.0,0.0,0.0,0.0,0.0,0.0,0.0,0.0,0.0,0.0,-6.0901,-6.4897,-6.5726,-6.7138,-6.9193,-6.9256,-6.9222,-6.9187,-6.8463,-6.7359,-6.5842,0.0,0.0,0.0,0.0,0.0,0.0,0.0,0.0,0.0,0.0,0.0,0.0,0.0,0.0,0.0,0.0,0.0,0.0,0.0,0.0,0.0,0.0,0.0,0.0,0.0,0.0,-5.1981,-5.2153,-5.1877,0.0,0.0,0.0,0.0,0.0,0.0,0.0,0.0,0.0,0.0,-5.7771,-5.9119,-6.1568,-6.1734,-6.1856,-6.2655,-6.2179,-6.1779,-6.1748,-6.1225,-6.0547,0.0,0.0,0.0,0.0,0.0,0.0,0.0,0.0,0.0,0.0,0.0,0.0,0.0,0.0,0.0,0.0,0.0,0.0,0.0,0.0,0.0,0.0,0.0,0.0,0.0,0.0,0.0,-5.5754,-5.5188,0.0,0.0,0.0,0.0,0.0,0.0,0.0,0.0,0.0,0.0,0.0,-5.8727,-5.9152,0.0,0.0,0.0,0.0,0.0,0.0,0.0,0.0,0.0,0.0,0.0,0.0,-6.1571,-6.486,-6.6097,-6.7541,-6.9262,-6.9291,-6.9497,-7.0021,-6.9291,-6.7945,-6.5945,0.0,0.0,0.0,0.0,0.0,0.0,0.0,0.0,0.0,0.0,0.0,0.0,0.0,0.0,0.0,0.0,0.0,0.0,0.0,0.0,0.0,0.0,0.0,0.0,0.0,-5.3391,0.0,0.0,0.0,0.0,0.0,0.0,0.0,0.0,0.0,0.0,0.0,-5.6364,-5.8543,-6.0119,-6.1402,-6.239,-6.275,-6.3017,0.0,0.0,0.0,0.0,0.0,0.0,0.0,0.0,0.0,0.0,0.0,0.0,0.0,0.0,-5.3714,-5.0543,-4.9989,-4.9989,-4.9989,0.0,0.0,0.0,0.0,0.0,0.0,0.0,0.0,0.0,0.0,0.0,0.0,0.0,0.0,-5.8652,0.0,-5.7267,0.0,0.0,0.0,0.0,0.0,0.0,0.0,0.0,-6.2403,-6.2614,-6.1536,-6.1988,-6.178,0.0,-6.0252,-5.8333,0.0,0.0,0.0,0.0,0.0,0.0,0.0,0.0,-6.2297,-6.5236,-6.6677,-6.8118,-6.9601,-6.9911,-7.0291,-7.0739,-7.0049,-6.8704,-6.6704,-6.4979,-6.2875,0.0,0.0,0.0,0.0,0.0,0.0,0.0,0.0,0.0,0.0,0.0,0.0,0.0,0.0,0.0,0.0,0.0,0.0,0.0,0.0,0.0,0.0,0.0,-5.5667,0.0,0.0,0.0,0.0,0.0,0.0,0.0,0.0,0.0,-5.5451,-5.7119,-5.9091,-6.1069,-6.2338,-6.3434,-6.4247,0.0,0.0,0.0,0.0,0.0,0.0,0.0,-6.3533,-6.3533,-6.3379,-6.2918,-6.1994,-6.1132,-6.0455,-6.0209,0.0,0.0,-5.4853,-5.4176,-5.4176,-5.4176,-5.5068,-5.579,-5.5695,-5.5908,-5.6191,0.0,0.0,0.0,0.0,0.0,0.0,0.0,0.0,-6.094,-6.1144,0.0,-6.0224,0.0,0.0,0.0,0.0,0.0,-6.0864,0.0,0.0,-6.5049,-6.5397,-6.5362,-6.5179,-6.4687,-6.3995,-6.3198,-6.2402,-6.1502,-5.8099,0.0,0.0,0.0,0.0,0.0,0.0,-6.3091,-6.588,-6.7394,-6.8877,-7.0325,-7.1084,-7.1463,-7.1463,-7.0774,-6.9704,-6.8256,-6.7394,-6.5635,-6.2737,-6.0392,0.0,0.0,0.0,0.0,0.0,0.0,0.0,0.0,0.0,0.0,0.0,0.0,0.0,0.0,0.0,0.0,0.0,0.0,0.0,0.0,-5.7564,0.0,0.0,0.0,0.0,0.0,0.0,0.0,0.0,0.0,0.0,-5.8798,-6.0084,-6.1897,-6.4281,0.0,0.0,0.0,0.0,-6.6448,-6.7144,-6.5973,-6.5195,-6.5811,-6.538,-6.4949,-6.4949,0.0,0.0,-6.4149,-6.3933,-6.3687,-6.3071,-6.2456,-6.1348,-5.9408,-5.8854,-5.8731,-5.8762,-5.9285,-5.9768,-5.9624,-5.9762,-5.9963,-6.3484,0.0,0.0,0.0,0.0,-6.3372,-6.3619,-6.3373,-6.3832,-6.3764,-6.3311,-6.2995,0.0,0.0,0.0,0.0,0.0,0.0,-6.5803,-6.6459,-6.7592,-6.7865,-6.7273,-6.7234,-6.7092,-6.685,-6.6125,-6.5365,-6.4606,-6.3019,-6.0843,-5.8104,0.0,0.0,0.0,0.0,-6.4741,-6.6635,-6.8152,-6.9394,-7.036,-7.1084,-7.1498,-7.1498,-7.1291,-7.0739,-6.9773,-6.8463,-6.7152,-6.5738,-6.3013,0.0,0.0,0.0,0.0,0.0,0.0,0.0,0.0,0.0,0.0,0.0,0.0,0.0,0.0,0.0,0.0,0.0,0.0,0.0,-5.9806,-5.9737,-5.9357,0.0,0.0,0.0,0.0,0.0,0.0,0.0,0.0,0.0,-6.405,-6.4325,-6.4671,0.0,0.0,-6.7655,-6.7668,-6.7832,-6.7872,-6.7641,-6.7057,0.0,0.0,-6.6457,-6.6334,-6.6334,-6.6519,-6.6488,-6.6088,-6.6027,-6.5965,-6.575,-6.5596,-6.5257,-6.4611,-6.2548,-6.1071,-6.104,-6.184,-6.2587,-6.2595,-6.2846,-6.3,-6.7191,-6.5984,-6.5327,-6.4844,-6.4531,-6.5365,-6.5715,-6.5718,-6.6061,-6.6229,-6.6294,-6.6021,-6.5812,-6.5634,-6.5287,0.0,0.0,0.0,-6.8241,-6.8552,-6.9371,-6.9503,-6.9015,-6.9015,-6.9015,-6.898,-6.8566,-6.7945,-6.726,-6.6738,-6.5296,-6.2813,0.0,0.0,-6.3358,-6.4841,-6.6221,-6.7428,-6.9222,-7.0394,-7.0843,-7.1567,-7.1946,-7.1981,-7.1981,-7.1601,-7.0843,-6.9946,-6.8808,-6.7463,-6.5428,-6.3324,0.0,0.0,0.0,0.0,0.0,0.0,0.0,0.0,0.0,0.0,0.0,-5.1942,-5.3253,0.0,0.0,0.0,-5.9944,-6.153,-6.2151,-6.2082,0.0,0.0,0.0,0.0,0.0,0.0,0.0,-6.2875,-6.3772,-6.5148,-6.7409,-6.7708,-6.7675,-6.7675,-6.8613,-6.9239,-6.913,0.0,-6.931,-6.8987,-6.8239,-6.7843,-6.8259,-6.7931,-6.7873,-6.8427,-6.852,-6.8243,-6.775,-6.7689,-6.7535,-6.7073,-6.6919,-6.6919,-6.6919,-6.5195,-6.3841,-6.3841,-6.4457,-6.5011,-6.5042,-6.5157,-6.512,-7.0435,-7.0193,-6.7553,-6.6453,-6.6415,-6.6415,-6.6945,-6.7794,-6.7829,-6.8513,-6.9604,-6.9107,-6.9138,-6.9604,-6.8912,0.0,-6.9674,-6.9509,-6.9883,-7.0567,-7.0636,-7.0705,-7.0739,-7.0739,-7.0705,-7.067,-7.0601,-7.0187,-6.9503,-6.9394,-6.9015,-6.829,-6.5531,-6.4427,-6.5117,-6.6462,-6.7532,-6.829,-7.0394,-7.1532,-7.1601,-7.2291,-7.2671,-7.2671,-7.2671,-7.2368,-7.1636,-7.1532,-7.0532,-6.8463,-6.7601,-6.5876,-6.3117,0.0,0.0,0.0,0.0,0.0,0.0,0.0,0.0,0.0,0.0,0.0,0.0,0.0,0.0,-6.1634,-6.3703,0.0,-6.4014,-6.4565,0.0,0.0,0.0,-6.2944,-6.2944,-6.2944,-6.3772,-6.5949,0.0,0.0,-6.9256,-7.0332,-7.0754,-7.0385,-7.0122,-7.0268,-7.1108,-7.0946,-7.0745,-7.0774,-6.964,-6.9193,-7.0159,-6.9707,-6.9472,-7.0459,-7.089,-7.0336,-6.932,-6.9043,-6.8551,-6.7627,-6.7258,-6.7319,-6.7258,-6.7289,-6.7227,-6.7196,-6.7104,-6.7042,-6.7042,-6.6936,-6.6916,-7.0435,-7.0325,-6.9641,-6.9405,-6.9371,-6.9371,-6.9549,-6.9727,-6.9727,-6.9894,-7.0199,-7.0033,-7.0067,-7.0199,-7.0027,-7.0027,-7.0234,-7.0746,-7.136,-7.2153,-7.2705,-7.3291,-7.3843,-7.3843,-7.3533,-7.2981,-7.2395,-7.1739,-7.0946,-7.0394,-7.0291,-7.0601,-6.9394,-6.8566,-6.8221,-6.8566,-6.9118,-6.9842,-7.0946,-7.1774,-7.2395,-7.2609,-7.2671,-7.2671,-7.2671,-7.2602,-7.2437,-7.1808,-7.1256,-7.0705,-6.9428,-6.8118,-6.6807,-6.4772,0.0,0.0,0.0,0.0,0.0,0.0,0.0,0.0,0.0,-5.8702,-6.0944,0.0,-6.4634,0.0,-6.6635,-6.7221,-6.7049,-6.7187,0.0,0.0,-6.6773,-6.6773,-6.6773,-6.6738,-6.7187,-6.8325,-6.8635,-6.9291,-7.0774,-7.1523,-7.2047,-7.2332,-7.2001,-7.1883,-7.2231,-7.2587,-7.2571,-7.1959,-7.1768,-7.1719,-7.1534,-7.1148,-7.0851,-7.092,-7.0921,-7.0767,-7.049,-7.0428,-7.0305,-6.9997,-6.9936,-6.9936,-6.9874,-6.9967,-6.9936,-6.9874,-6.9135,-6.8427,-6.8427,-6.9138,-6.9726,-7.1429,-7.1394,-7.1394,-7.1394,-7.136,-7.0705,-7.0567,-7.0877,-7.0877,-7.1084,-7.1394,-7.1436,-7.1567,-7.1877,-7.1912,-7.2084,-7.2429,-7.2843,-7.3257,-7.3705,-7.4119,-7.4533,-7.4869,-7.4869,-7.4662,-7.4292,-7.3878,-7.3464,-7.3015,-7.2602,-7.2636,-7.3015,-7.2602,-7.2222,-7.1774,-7.1118,-7.1015,-7.1394,-7.2464,-7.3257,-7.3636,-7.336,-7.3153,-7.3153,-7.2843,-7.2671,-7.2671,-7.2257,-7.1843,-7.1498,-7.0705,-6.9773,-6.867,-6.7428,-6.5566,0.0,0.0,0.0,0.0,0.0,0.0,0.0,0.0,0.0,0.0,0.0,-6.7704,-6.8428,-6.9187,-6.9463,-6.9153,-6.9118,-6.9118,-6.9118,-6.9118,-6.9118,-6.9118,-6.9118,-6.9566,-7.0711,-7.0774,-7.136,-7.2809,-7.3181,-7.3557,-7.4179,-7.3713,-7.3265,-7.3045,-7.3572,-7.3781,-7.2944,-7.2906,-7.288,-7.2429,-7.2475,-7.2482,-7.23,-7.2209,-7.2086,-7.1656,-7.1534,-7.1441,-7.1043,-7.089,-7.089,-7.089,-7.089,-7.089,-7.0828,-7.0582,-7.0182,-6.9874,-7.0367,-7.086,-7.2946,-7.2946,-7.2981,-7.2946,-7.2843,-7.1532,-7.1291,-7.1808,-7.1877,-7.2326,-7.2946,-7.2946,-7.3326,-7.3912,-7.3947,-7.4292,-7.4869,-7.4869,-7.4938,-7.5041,-7.5041,-7.5076,-7.5179,-7.5179,-7.5145,-7.5041,-7.5041,-7.4972,-7.4869,-7.4869,-7.4938,-7.5041,-7.4938,-7.4938,-7.4972,-7.3774,-7.3084,-7.2981,-7.4257,-7.4869,-7.4869,-7.4292,-7.3947,-7.3912,-7.3291,-7.2981,-7.2946,-7.2877,-7.2609,-7.1981,-7.1843,-7.1153,-6.9808,-6.9745,-6.8394,0.0,-6.529,0.0,0.0,0.0,0.0,0.0,0.0,0.0,0.0,-6.867,-7.0291,-7.0912,-7.1567,-7.167,-7.1015,-7.0981,-7.0981,-7.0981,-7.0981,-7.0981,-7.0981,-7.0981,-7.1498,-7.2843,-7.2946,-7.3498,-7.4593,-7.4797,-7.5053,-7.5444,-7.5219,-7.4587,-7.4001,-7.4487,-7.4721,-7.3912,-7.3715,-7.3759,-7.3415,-7.374,-7.4024,-7.3995,-7.3872,-7.3626,-7.2763,-7.2609,-7.2302,-7.1534,-7.132,-7.1289,-7.1167,-7.1229,-7.1198,-7.1259,-7.166,-7.1752,-7.1198,-7.1167,-7.1167,-7.4499,-7.4499,-7.4499,-7.4499,-7.4499,-7.4188,-7.3809,-7.3395,-7.4016,-7.4317,-7.4499,-7.4499,-7.4568,-7.4705,-7.4662,-7.4766,-7.4869,-7.4869,-7.5248,-7.5913,-7.5878,-7.6223,-7.673,-7.6765,-7.6455,-7.5869,-7.5913,-7.5524,-7.4869,-7.4869,-7.5214,-7.58,-7.5214,-7.5214,-7.5844,0.0,0.0,0.0,-7.4731,-7.4869,-7.4869,-7.4731,-7.4662,-7.4662,-7.4559,0.0,-7.4464,-7.3912,-7.3809,-7.418,-7.3671,0.0,0.0,0.0,0.0,0.0,0.0,0.0,0.0,0.0,0.0,0.0,-6.9739,-7.0153,-7.0463,-7.2533,-7.3869,-7.405,-7.4145,-7.4223,-7.4042,-7.4085,-7.4042,-7.4042,-7.405,-7.4042,-7.4042,-7.4016,-7.4223,-7.443,-7.4499,-7.4559,-7.4903,-7.542,-7.5815,-7.5774,-7.6074,-7.6049,-7.5344,-7.5656,-7.5818,-7.5476,-7.5501,-7.5534,-7.4971,-7.507,-7.4897,-7.4479,-7.4299,-7.4176,-7.3718,-7.3626,-7.3535,-7.3013,-7.2984,-7.286,-7.2614,-7.2583,-7.2491,-7.2583,-7.2675,-7.2583,-7.1937,-7.2214,-7.2583,-7.4869,0.0,-7.4869,-7.4869,0.0,-7.5317,-7.5292,-7.4947,-7.4903,-7.4869,-7.4869,-7.4869,-7.511,-7.5499,-7.5499,-7.5662,-7.6051,-7.6041,-7.6292,-7.6637,-7.6637,-7.6844,-7.7223,-7.7223,-7.7016,-7.6671,-7.6671,-7.642,-7.6041,-7.6006,-7.6213,-7.6627,-7.6213,-7.6213,-7.6592,-7.6671,-7.6464,-7.6006,-7.6041,-7.6051,-7.6006,-7.5706,-7.5489,-7.5499,0.0,0.0,0.0,0.0,0.0,0.0,0.0,0.0,0.0,0.0,0.0,-7.1601,-7.1539,-7.1153,-7.0429,-7.036,-7.0843,-7.2015,-7.3464,-7.3981,-7.3257,-7.4636,-7.5317,-7.4938,-7.5214,-7.5317,-7.4938,-7.4869,-7.4869,-7.4869,-7.4869,-7.4869,-7.4869,-7.4869,-7.5041,-7.542,-7.5499,-7.5593,-7.5972,-7.6395,-7.6592,-7.6458,-7.6598,-7.6656,-7.6343,-7.638,-7.649,-7.6373,-7.6692,-7.6686,-7.6149,-7.6034,-7.5861,-7.5454,-7.5337,-7.5193,-7.4687,-7.4508,-7.4268,-7.4028,-7.3723,-7.3447,-7.3324,-7.3107,-7.2983,-7.2983,-7.2983,-7.2891,-7.2552,-7.2737,-7.2983,-7.5283,-7.5283,-7.5283,-7.5283,-7.5352,-7.6006,-7.6326,-7.6258,0.0,0.0,0.0,-7.5283,-7.5662,-7.6292,-7.6292,-7.6637,-7.7223,-7.7223,-7.7223,-7.7223,-7.7223,-7.7223,-7.7223,-7.7223,-7.7223,-7.7223,-7.7223,-7.7223,-7.7223,-7.7223,-7.7223,-7.7223,-7.7223,-7.7223,-7.7223,-7.7223,-7.7223,-7.7223,-7.7223,-7.7223,-7.7223,-7.6602,-7.6326,-7.6292,-7.5627,-7.5283,-7.5283,-7.5179,-7.5145,-7.5283,-7.5145,-7.511,-7.5076,-7.511,-7.4809,-7.405,-7.3981,-7.374,-7.3119,-7.305,-7.3464,-7.4326,-7.6395,-7.6982,-7.542,-7.6189,-7.643,-7.5765,-7.6282,-7.6464,-7.5765,-7.5696,-7.5696,-7.5696,-7.5696,-7.5731,-7.5731,-7.5696,-7.6075,-7.6602,-7.6809,-7.6947,-7.7534,-7.7454,-7.7385,-7.7351,-7.7078,-7.6873,-7.6805,-7.6781,-7.6758,-7.6907,-7.7037,-7.7096,-7.6688,-7.64,-7.6386,-7.5951,-7.6055,-7.6046,-7.5528,-7.5274,-7.4984,-7.4539,-7.4089,-7.3723,-7.357,-7.3324,-7.3045,-7.3045,-7.2983,-7.2983,-7.2983,-7.2983,-7.2983,-7.6913,-7.6868,-7.6868,-7.6913,-7.6913,-7.7016,-7.7006,-7.7051,-7.6903,-7.6913,-7.6868,-7.6913,-7.6982,-7.7085,-7.7085,-7.712,-7.7178,-7.7223,-7.7223,0.0,-7.7223,-7.7223,-7.7223,-7.7223,-7.7223,-7.7223,-7.7258,-7.7223,-7.7223,-7.7258,-7.7223,-7.7258,-7.7223,-7.7258,-7.7223,-7.7223,-7.7223,-7.7223,-7.7223,-7.7223,-7.7178,-7.712,-7.7085,-7.7006,-7.6947,-7.6913,-7.6868,-7.6292,-7.6223,-7.6799,-7.6292,-7.5947,-7.5947,-7.5947,-7.5602,-7.48,-7.4731,-7.474,-7.4593,-7.4636,-7.5179,-7.6637,-7.8258,-7.8534,-7.712,-7.8223,-7.8982,-7.8879,-7.8879,-7.9017,-7.8879,-7.8741,-7.8672,-7.8775,-7.881,-7.8844,-7.8706,-7.8706,-7.8706,-7.8844,-7.9051,-7.8948,-7.8982,-7.8568,-7.8223,-7.812,-7.7512,-7.7054,-7.6885,-7.6828,-7.6886,-7.6943,-7.6731,-7.6413,-7.6207,-7.5841,-7.5636,-7.5201,-7.5787,-7.5955,-7.5459,-7.5674,-7.565,-7.5016,-7.4719,-7.4359,-7.3723,-7.3478,-7.3293,-7.3045,-7.2983,-7.2983,-7.2983,-7.2983,-7.2983,-7.7223,-7.7292,-7.7672,-7.7879,-7.7879,-7.8292,-7.8465,-7.8465,-7.8465,-7.7937,-7.7213,-7.7223,-7.7223,-7.7213,-7.7672,-7.7879,-7.7879,-7.8292,-7.8465,-7.8465,-7.8465,-7.8465,-7.8465,-7.8465,-7.8465,-7.8465,-7.8465,-7.8465,-7.8465,-7.8465,-7.8465,-7.8465,-7.8465,-7.8465,-7.843,-7.8085,-7.7879,-7.7844,-7.743,-7.7223,-7.7223,-7.7223,-7.7223,-7.7223,-7.7223,-7.7223,-7.7178,-7.6878,-7.6878,-7.7144,-7.6878,-7.6913,-7.7327,-7.7361,-7.7396,-7.7396,-7.743,-7.7396,-7.7385,-7.743,-7.7706,-7.843,-7.9465,-7.9844,-7.9155,-7.9327,-7.95,-7.95,-7.95,-7.95,-7.95,-7.95,-7.95,-7.95,-7.95,-7.95,-7.95,-7.95,-7.95,-7.95,-7.95,-7.95,-7.95,-7.9224,-7.881,-7.8465,-7.7706,-7.7133,-7.7009,-7.6873,-7.6836,-7.692,-7.6927,-7.6806,-7.6428,-7.6148,-7.5799,-7.5534,-7.5742,-7.5973,-7.5884,-7.6094,-7.5959,-7.5855,-7.5396,-7.4719,-7.4089,-7.3723,-7.3416,-7.3107,-7.2983,-7.2983,-7.2983,-7.2983,-7.2983,-7.7603,-7.781,-7.8396,-7.8637,-7.8706,-7.9258,-7.95,-7.95,-7.95,-7.8844,-7.7799,-7.7741,-7.7741,-7.781,-7.8396,-7.8672,-7.8741,-7.9258,-7.95,-7.95,-7.95,-7.95,-7.95,-7.95,-7.95,-7.95,-7.95,-7.95,-7.95,-7.95,-7.95,-7.95,-7.95,-7.95,-7.95,-7.8948,-7.8672,-7.8603,-7.8051,-7.7568,-7.7258,-7.7223,-7.7223,-7.7223,-7.7223,-7.7223,-7.7178,-7.7351,-7.7499,-7.7499,-7.7637,-7.8017,-7.8603,-7.8637,-7.8913,-7.9431,-7.95,-7.95,-7.9534,-7.9672,-7.9776,-7.9776,-8.0465,-8.0879,-8.0845,-8.0362,-8.0017,-8.0017,-8.0086,-8.0086,-8.012,-8.0086,-8.0017,-8.0051,-8.0017,-8.012,-8.0051,-8.0017,-8.0017,-8.0017,-8.0017,-8.0086,-8.0017,-7.9879,-7.9396,-7.8534,-7.7844,-7.7465,-7.7213,-7.7009,-7.6919,-7.6836,-7.7014,-7.6808,-7.6441,-7.6154,-7.5864,-7.5724,-7.595,-7.6189,-7.6362,-7.6256,-7.627,-7.6565,-7.5861,-7.5134,-7.4599,-7.3997,-7.3539,-7.3231,-7.3045,-7.2983,-7.2983,-7.2983,-7.2983,-7.8672,-7.9258,-7.9362,-7.9431,-7.9465,-7.9534,-7.9569,-7.9569,-7.9534,-7.9465,-7.9327,-7.9327,-7.9293,-7.9293,-7.9362,-7.9396,-7.9396,-7.95,-7.9569,-7.9569,-7.95,-7.9534,-7.9603,-7.9569,-7.9534,-7.9569,-7.9603,-7.9672,-7.9638,-7.9603,-7.9534,-7.95,-7.95,-7.9569,-7.9534,-7.9465,-7.9396,-7.9396,-7.9327,-7.8637,-7.7327,-7.7223,-7.7223,-7.7223,-7.7258,-7.7223,-7.7327,-7.7913,-7.8292,-7.8361,-7.8913,-7.9327,-7.9396,-7.9396,-7.9431,-7.9569,-7.9534,-7.95,-7.9569,-8.0155,-8.0534,-8.0569,-8.1224,-8.1638,-8.1638,-8.1603,-8.1603,-8.15,-8.1535,-8.1466,-8.1569,-8.15,-8.1431,-8.1362,-8.1431,-8.1603,-8.1466,-8.1603,-8.1603,-8.1603,-8.1397,-8.1569,-8.1362,-8.0845,-7.9948,-7.881,-7.8361,-7.7982,-7.7465,-7.7213,-7.7043,-7.6748,-7.6339,-7.5884,-7.5613,-7.5268,-7.5222,-7.5205,-7.5955,-7.6399,-7.6518,-7.7058,-7.7687,-7.6846,-7.6435,-7.5835,-7.5016,-7.4359,-7.3814,-7.3416,-7.3169,-7.2983,-7.2983,-7.2983,-7.2983,-7.9224,-7.9534,-7.9982,-8.0431,-8.0845,-8.0879,-8.0879,-8.0879,-8.0845,-8.0845,-8.0879,-8.0879,-8.0362,-7.9569,-7.9948,-8.0155,-8.0189,-8.0638,-8.0879,-8.0879,-8.0879,-8.0879,-8.0879,-8.0845,-8.0879,-8.0879,-8.0879,-8.0879,-8.0879,-8.0845,-8.0879,-8.0879,-8.0879,-8.0879,-8.081,-8.0396,-8.0189,-8.0155,-7.9741,-7.9189,-7.8672,-7.8568,-7.8568,-7.8568,-7.8568,-7.8568,-7.8603,-7.8913,-7.9051,-7.9086,-7.9362,-7.9707,-8.0155,-8.0155,-8.0362,-8.081,-8.0879,-8.0845,-8.0879,-8.1155,-8.1328,-8.1328,-8.1638,-8.1776,-8.1776,-8.1776,-8.1776,-8.1776,-8.1776,-8.1776,-8.1776,-8.1776,-8.1776,-8.1776,-8.1776,-8.1776,-8.1776,-8.1776,-8.1776,-8.1776,-8.1776,-8.1776,-8.1707,-8.1121,-8.0431,-7.9638,-7.9051,-7.8327,-7.7948,-7.7534,-7.7088,-7.6793,-7.6414,-7.6041,-7.5614,-7.5179,-7.51,-7.5136,-7.5706,-7.629,-7.6683,-7.7086,-7.7519,-7.7236,-7.6831,-7.6239,-7.5401,-7.4659,-7.4057,-7.3662,-7.3231,-7.2983,-7.2983,-7.2983,-7.2983,-7.9948,-8.0224,-8.0707,-8.1293,-8.1776,-8.1776,-8.1776,-8.1776,-8.1776,-8.1776,-8.1776,-8.1776,-8.119,-8.0327,-8.0707,-8.0948,-8.1017,-8.1535,-8.1776,-8.1776,-8.1776,-8.1776,-8.1776,-8.1776,-8.1776,-8.1776,-8.1741,-8.1776,-8.1776,-8.1776,-8.1776,-8.1776,-8.1776,-8.1776,-8.1741,-8.119,-8.0948,-8.0914,-8.0396,-8.0155,-8.0155,-8.0155,-7.9948,-7.9569,-7.95,-7.95,-7.95,-7.9707,-7.981,-7.981,-8.0017,-8.0396,-8.0879,-8.0948,-8.119,-8.1707,-8.1776,-8.1776,-8.1776,-8.1776,-8.1776,-8.1776,-8.1776,-8.1776,-8.1776,-8.1776,-8.1776,-8.1776,-8.1776,-8.1776,-8.1776,-8.1776,-8.1776,-8.1776,-8.1776,-8.1776,-8.1776,-8.1776,-8.1776,-8.1776,-8.1776,-8.1776,-8.1707,-8.1293,-8.0879,-8.0465,-7.9707,-7.8879,-7.8706,-7.8258,-7.7788,-7.7537,-7.7388,-7.6812,-7.6035,-7.5822,-7.5531,-7.5701,-7.6339,-7.7095,-7.7158,-7.7481,-7.7642,-7.7741,-7.7223,-7.6605,-7.5835,-7.5134,-7.427,-7.3662,-7.3231,-7.3045,-7.2983,-7.2983,-7.2983,-8.1017,-8.1638,-8.1707,-8.1741,-8.181,-8.181,-8.181,-8.1879,-8.1879,-8.1845,-8.1914,-8.1845,-8.1776,-8.1638,-8.1672,-8.1707,-8.1741,-8.1776,-8.1776,-8.1776,-8.1776,-8.1776,-8.1776,-8.1776,-8.1776,-8.1776,-8.1776,-8.1776,-8.1776,-8.1776,-8.1776,-8.1776,-8.1776,-8.1776,-8.1776,-8.1707,-8.1707,-8.1638,-8.1569,-8.1603,-8.1638,-8.1638,-8.0948,-7.9776,-7.9569,-7.9638,-7.9672,-8.0224,-8.0569,-8.0569,-8.1224,-8.1672,-8.1707,-8.1707,-8.1741,-8.1776,-8.1776,-8.1776,-8.1776,-8.1776,-8.1776,-8.1776,-8.1776,-8.1776,-8.1776,-8.1776,-8.1776,-8.1776,-8.1776,-8.1776,-8.1776,-8.1776,-8.1776,-8.1776,-8.1776,-8.1776,-8.1776,-8.1776,-8.1776,-8.1776,-8.1776,-8.1776,-8.1776,-8.1776,-8.1362,-8.0879,-8.0534,-8.0224,-7.9603,-7.9362,-7.9178,-7.9097,-7.8843,-7.8289,-7.6658,-7.6482,-7.6744,-7.6917,-7.7394,-7.8321,-7.8402,-7.8407,-7.8352,-7.8155,-7.761,-7.6999,-7.6321,-7.5518,-7.4634,-7.3939,-7.3386,-7.3138,-7.3045,-7.2983,-7.2983,-8.1535,-8.1776,-8.1776,-8.1776,-8.1845,-8.2293,-8.25,-8.2569,-8.3018,-8.3225,-8.3121,-8.2742,-8.25,-8.25,-8.2017,-8.1776,-8.1776,-8.1776,-8.1776,-8.1776,-8.1776,-8.1776,-8.1776,-8.1776,-8.1776,-8.1776,-8.1776,-8.1776,-8.1776,-8.1776,-8.1776,-8.1776,-8.1776,-8.1776,-8.1776,-8.1776,-8.1776,-8.1776,-8.1776,-8.1776,-8.1776,-8.1776,-8.15,-8.1017,-8.0983,-8.0983,-8.0983,-8.1259,-8.1397,-8.1397,-8.1672,-8.1776,-8.1776,-8.1776,-8.1776,-8.1776,-8.1776,-8.1776,-8.1776,-8.1776,-8.1776,-8.1776,-8.1776,-8.1776,-8.1776,-8.1776,-8.1776,-8.1776,-8.1776,-8.1776,-8.1776,-8.1776,-8.1776,-8.1776,-8.1776,-8.1776,-8.1776,-8.1776,-8.1776,-8.1776,-8.1776,-8.1776,-8.1776,-8.1776,-8.1672,-8.1397,-8.0948,-8.0569,-8.0258,-7.9879,-7.9603,-7.9488,-7.928,-7.8875,-7.8289,-7.7863,-7.7881,-7.789,-7.8249,-7.8572,-7.8758,-7.8919,-7.8955,-7.8457,-7.7971,-7.7693,-7.7147,-7.6273,-7.532,-7.4499,-7.3912,-7.3324,-7.3045,-7.3045,-7.3014,-8.1776,-8.1845,-8.2052,-8.2155,-8.2259,-8.2949,-8.3259,-8.3328,-8.3776,-8.388,-8.3604,-8.3121,-8.2776,-8.25,-8.2017,-8.1776,-8.1776,-8.1776,-8.1776,-8.1776,-8.1776,-8.1776,-8.1776,-8.1776,-8.1776,-8.1776,-8.1776,-8.1776,-8.1776,-8.1776,-8.1776,-8.1776,-8.1776,-8.1776,-8.1776,-8.1776,-8.1776,-8.1776,-8.1776,-8.1776,-8.1776,-8.1776,-8.1776,-8.1776,-8.1776,-8.1776,-8.1776,-8.1776,-8.1776,-8.1776,-8.1776,-8.1776,-8.1776,-8.1776,-8.1776,-8.1776,-8.1776,-8.1776,-8.1776,-8.1776,-8.1776,-8.1776,-8.1776,-8.1776,-8.1776,-8.1776,-8.1776,-8.1776,-8.1776,-8.1776,-8.1776,-8.1776,-8.1776,-8.1776,-8.1776,-8.1776,-8.1776,-8.1776,-8.1776,-8.1776,-8.1776,-8.1776,-8.1776,-8.1776,-8.1776,-8.1776,-8.1328,-8.1017,-8.0914,-8.0603,-8.0258,-8.0258,-8.0187,-8.008,-7.9849,-7.9618,-7.9007,-7.8914,-7.9038,-7.9228,-7.9162,-7.9378,-7.9251,-7.881,-7.8539,-7.8363,-7.7901,-7.7088,-7.6196,-7.5308,-7.4439,-7.3819,-7.3509,-7.3106,-7.3137,-8.181,-8.1948,-8.2604,-8.2914,-8.3018,-8.3707,-8.4018,-8.4052,-8.4087,-8.3811,-8.3397,-8.2983,-8.2569,-8.2017,-8.1879,-8.1776,-8.1776,-8.1776,-8.1776,-8.1776,-8.1776,-8.1776,-8.1776,-8.1776,-8.1776,-8.1776,-8.1776,-8.1776,-8.1776,-8.1776,-8.1776,-8.1776,-8.1776,-8.1776,-8.1776,-8.1776,-8.1776,-8.1776,-8.1776,-8.181,-8.181,-8.1879,-8.1914,-8.1879,-8.1879,-8.1845,-8.181,-8.1776,-8.1776,-8.1776,-8.1776,-8.1776,-8.1776,-8.1776,-8.1776,-8.1776,-8.1776,-8.1776,-8.1776,-8.1776,-8.1776,-8.1776,-8.1776,-8.1776,-8.1776,-8.1776,-8.1776,-8.1776,-8.1776,-8.1776,-8.1776,-8.1776,-8.1776,-8.1776,-8.1776,-8.1776,-8.1776,-8.1776,-8.1776,-8.1776,-8.1776,-8.1776,-8.1776,-8.1776,-8.1776,-8.1776,-8.1707,-8.1638,-8.1603,-8.1466,-8.1672,-8.1638,-8.1349,-8.1082,-8.1262,-8.1277,-8.0541,-7.9941,-8.0149,-8.0272,-7.9803,-7.9768,-7.951,-7.916,-7.9372,-7.9198,-7.8974,-7.8185,-7.7347,-7.6428,-7.5433,-7.4563,-7.422,-7.3878,-7.3353,-8.2569,-8.2638,-8.3362,-8.3673,-8.3776,-8.4501,-8.4846,-8.4811,-8.4846,-8.4673,-8.4328,-8.3362,-8.2776,-8.2466,-8.2052,-8.1776,-8.1776,-8.1776,-8.1776,-8.1776,-8.1776,-8.1776,-8.1776,-8.1776,-8.1776,-8.1776,-8.1776,-8.1776,-8.1776,-8.1776,-8.1776,-8.1776,-8.1776,-8.1776,-8.1776,-8.1776,-8.1776,-8.1776,-8.1776,-8.2017,-8.25,-8.2535,-8.2569,-8.2569,-8.2569,-8.2362,-8.1845,-8.1776,-8.1776,-8.1776,-8.1776,-8.1776,-8.1776,-8.1776,-8.1776,-8.1776,-8.1776,-8.1776,-8.1776,-8.1776,-8.1776,-8.1776,-8.1776,-8.1776,-8.1776,-8.1776,-8.1776,-8.1776,-8.1776,-8.1776,-8.1776,-8.1776,-8.1845,-8.181,-8.1776,-8.1776,-8.1776,-8.1776,-8.1776,-8.1776,-8.1776,-8.1776,-8.1776,-8.1776,-8.1776,-8.1776,-8.1776,-8.1776,-8.1776,-8.1776,-8.1776,-8.1776,-8.181,-8.181,-8.1668,-8.162,-8.1187,-8.0706,-8.0751,-8.0808,-8.041,-8.0057,-7.9801,-7.9824,-8.0007,-8.0079,-7.9798,-7.9306,-7.8499,-7.7488,-7.6524,-7.5777,-7.5213,-7.4652,-7.4125,-8.3052,-8.3397,-8.4121,-8.4466,-8.457,-8.5294,-8.5432,-8.5225,-8.519,-8.4915,-8.419,-8.3362,-8.2742,-8.2431,-8.2017,-8.181,-8.1776,-8.1776,-8.1776,-8.1776,-8.1776,-8.1776,-8.1776,-8.1776,-8.1776,-8.1776,-8.1776,-8.1776,-8.1776,-8.1776,-8.1776,-8.1776,-8.1776,-8.1776,-8.1776,-8.181,-8.1914,-8.2155,-8.2224,-8.2569,-8.3156,-8.3328,-8.3328,-8.3293,-8.3052,-8.2673,-8.2224,-8.1983,-8.1776,-8.1776,-8.1776,-8.1776,-8.1776,-8.1776,-8.1776,-8.1776,-8.1776,-8.1776,-8.1776,-8.1776,-8.1776,-8.1776,-8.1776,-8.1776,-8.1776,-8.1776,-8.1776,-8.1776,-8.1776,-8.1776,-8.181,-8.2086,-8.219,-8.2224,-8.1948,-8.181,-8.1776,-8.1776,-8.1776,-8.1776,-8.1776,-8.1776,-8.1776,-8.1776,-8.1776,-8.1776,-8.1776,-8.1776,-8.1776,-8.1776,-8.1776,-8.1776,-8.181,-8.181,-8.1776,-8.1763,-8.1715,-8.1455,-8.1262,-8.1054,-8.0759,-8.0494,-8.0242,-8.0588,-8.0896,-8.1172,-8.1048,-8.0594,-7.9892,-7.8761,-7.7588,-7.6808,-7.6118,-7.5429,-7.4868,-8.3397,-8.4156,-8.4949,-8.5259,-8.5328,-8.588,-8.5742,-8.5225,-8.4984,-8.4225,-8.319,-8.2845,-8.2431,-8.1914,-8.181,-8.1776,-8.1776,-8.1776,-8.1776,-8.1776,-8.1776,-8.1776,-8.1776,-8.1776,-8.1776,-8.1776,-8.1776,-8.1776,-8.1776,-8.1776,-8.1776,-8.1776,-8.1776,-8.1845,-8.1948,-8.1879,-8.2293,-8.288,-8.2983,-8.3362,-8.4018,-8.4087,-8.4087,-8.4052,-8.3535,-8.3087,-8.2742,-8.2155,-8.1776,-8.1776,-8.1776,-8.1776,-8.1776,-8.1776,-8.1776,-8.1776,-8.1776,-8.1776,-8.1776,-8.1776,-8.1776,-8.1776,-8.1776,-8.1776,-8.1776,-8.1776,-8.1776,-8.1776,-8.1776,-8.1845,-8.2017,-8.2431,-8.2811,-8.288,-8.2535,-8.2155,-8.1914,-8.1914,-8.1948,-8.1845,-8.1776,-8.1776,-8.1776,-8.1776,-8.1776,-8.1776,-8.1776,-8.1776,-8.1776,-8.1776,-8.1776,-8.1776,-8.1776,-8.1776,-8.1776,-8.1776,-8.1763,-8.1715,-8.149,-8.1297,-8.1054,-8.0808,-8.0985,-8.1389,-8.1624,-8.1921,-8.2042,-8.1566,-8.0852,-7.9825,-7.8744,-7.7779,-7.6994,-7.6365,-7.5673,-8.4156,-8.4949,-8.5708,-8.6018,-8.5949,-8.5673,-8.5397,-8.5052,-8.3983,-8.3362,-8.2811,-8.2328,-8.2017,-8.181,-8.1776,-8.1776,-8.1776,-8.1776,-8.1776,-8.1776,-8.1776,-8.1776,-8.1776,-8.1776,-8.1776,-8.1776,-8.1776,-8.1776,-8.1776,-8.1776,-8.1776,-8.1776,-8.1845,-8.2121,-8.2535,-8.2604,-8.3018,-8.3604,-8.3707,-8.4087,-8.4742,-8.488,-8.488,-8.4846,-8.4639,-8.3983,-8.3018,-8.219,-8.1776,-8.1776,-8.1776,-8.1776,-8.1776,-8.1776,-8.1776,-8.1776,-8.1776,-8.1776,-8.1776,-8.1776,-8.1776,-8.1776,-8.1776,-8.1776,-8.1776,-8.181,-8.181,-8.1776,-8.181,-8.2086,-8.25,-8.2845,-8.3156,-8.3604,-8.3569,-8.319,-8.2707,-8.2604,-8.2431,-8.1948,-8.181,-8.1776,-8.1776,-8.1776,-8.1776,-8.1776,-8.1776,-8.1776,-8.1776,-8.1776,-8.1776,-8.1776,-8.1776,-8.1776,-8.1776,-8.1776,-8.181,-8.181,-8.1715,-8.1585,-8.1345,-8.1054,-8.1592,-8.2173,-8.2083,-8.2335,-8.2477,-8.2321,-8.146,-8.0661,-7.9622,-7.8595,-7.7966,-7.733,-7.6572,-8.4673,-8.5708,-8.6122,-8.6294,-8.6225,-8.5535,-8.5018,-8.4501,-8.3466,-8.2707,-8.2397,-8.2017,-8.1776,-8.1776,-8.1776,-8.1776,-8.1776,-8.1776,-8.1776,-8.1776,-8.1776,-8.1776,-8.1776,-8.1776,-8.1776,-8.1776,-8.1776,-8.1776,-8.1776,-8.1776,-8.1776,-8.1879,-8.2121,-8.25,-8.288,-8.3259,-8.3742,-8.4363,-8.4535,-8.488,-8.5604,-8.5673,-8.5673,-8.557,-8.5363,-8.4501,-8.3052,-8.219,-8.181,-8.1776,-8.1776,-8.1776,-8.1776,-8.1776,-8.1776,-8.1776,-8.1776,-8.1776,-8.1776,-8.1776,-8.1776,-8.1776,-8.1776,-8.1776,-8.1879,-8.2052,-8.2259,-8.2293,-8.2535,-8.2914,-8.3293,-8.3638,-8.419,-8.4846,-8.4984,-8.4397,-8.3121,-8.288,-8.2569,-8.2052,-8.1776,-8.1776,-8.1776,-8.1776,-8.1776,-8.1776,-8.1776,-8.1776,-8.1776,-8.1776,-8.1776,-8.1776,-8.1776,-8.1776,-8.1776,-8.1776,-8.1776,-8.181,-8.181,-8.1715,-8.1538,-8.1414,-8.2041,-8.2528,-8.2531,-8.2727,-8.3025,-8.3042,-8.2248,-8.1375,-8.036,-7.9349,-7.8596,-7.7925,-7.7228,-8.4984,-8.6294,-8.6294,-8.6294,-8.6191,-8.5432,-8.4673,-8.3983,-8.3087,-8.2397,-8.1948,-8.181,-8.1776,-8.1776,-8.1776,-8.1776,-8.1776,-8.1776,-8.1776,-8.1776,-8.1776,-8.1776,-8.1776,-8.1776,-8.1776,-8.1776,-8.1776,-8.1776,-8.1776,-8.1776,-8.1879,-8.2086,-8.2604,-8.3018,-8.3431,-8.388,-8.4535,-8.5156,-8.5294,-8.557,-8.6053,-8.6191,-8.6156,-8.6053,-8.5259,-8.4432,-8.3225,-8.2328,-8.1776,-8.1776,-8.1776,-8.1776,-8.1776,-8.1776,-8.1776,-8.1776,-8.1776,-8.1776,-8.1776,-8.1776,-8.1776,-8.181,-8.1879,-8.1914,-8.2121,-8.2604,-8.3018,-8.3018,-8.3638,-8.388,-8.4225,-8.4811,-8.5397,-8.5915,-8.6156,-8.5225,-8.3742,-8.3087,-8.2742,-8.1948,-8.181,-8.1776,-8.1776,-8.1776,-8.1776,-8.1776,-8.1776,-8.1776,-8.1776,-8.1776,-8.1776,-8.1776,-8.1776,-8.1776,-8.1776,-8.1776,-8.1776,-8.1776,-8.1776,-8.1728,-8.1763,-8.1826,-8.2418,-8.2805,-8.2986,-8.3517,-8.4147,-8.3817,-8.293,-8.1901,-8.0781,-7.975,-7.888,-7.8246,-7.7641,-8.5466,-8.6294,-8.6294,-8.6294,-8.6087,-8.4846,-8.419,-8.388,-8.2604,-8.1983,-8.181,-8.1776,-8.1776,-8.1776,-8.1776,-8.1776,-8.1776,-8.1776,-8.1776,-8.1776,-8.1776,-8.1776,-8.1776,-8.1776,-8.1776,-8.1776,-8.1776,-8.1776,-8.1776,-8.1845,-8.2121,-8.2638,-8.288,-8.3535,-8.4535,-8.4777,-8.5328,-8.5949,-8.6053,-8.6087,-8.6225,-8.6294,-8.6294,-8.6191,-8.5052,-8.4225,-8.3638,-8.25,-8.1845,-8.1776,-8.1776,-8.1776,-8.1776,-8.1776,-8.1776,-8.1776,-8.1776,-8.1776,-8.1776,-8.1776,-8.181,-8.1914,-8.2328,-8.2673,-8.2742,-8.3328,-8.3742,-8.3811,-8.3949,-8.4397,-8.4915,-8.5604,-8.6018,-8.626,-8.626,-8.588,-8.488,-8.4121,-8.319,-8.2224,-8.181,-8.1776,-8.1776,-8.1776,-8.1776,-8.1776,-8.1776,-8.1776,-8.1776,-8.181,-8.1776,-8.1776,-8.1776,-8.181,-8.1845,-8.1948,-8.2086,-8.219,-8.219,-8.2224,-8.2177,-8.2211,-8.2804,-8.3223,-8.3571,-8.4164,-8.4773,-8.4197,-8.3265,-8.2215,-8.1198,-8.0085,-7.913,-7.8533,-7.7957,-8.5639,-8.6294,-8.6294,-8.6122,-8.5639,-8.4535,-8.3811,-8.3328,-8.2328,-8.1776,-8.1776,-8.1776,-8.1776,-8.1776,-8.1776,-8.1776,-8.1776,-8.1776,-8.1776,-8.1776,-8.1776,-8.1776,-8.1776,-8.1776,-8.1776,-8.1776,-8.1776,-8.1776,-8.1776,-8.1845,-8.219,-8.2914,-8.3225,-8.4018,-8.5121,-8.5535,-8.588,-8.6191,-8.6294,-8.6294,-8.6294,-8.6294,-8.6294,-8.6156,-8.519,-8.4432,-8.3914,-8.2949,-8.2224,-8.1879,-8.1776,-8.1776,-8.1776,-8.1776,-8.1776,-8.1776,-8.1776,-8.1776,-8.1776,-8.181,-8.1948,-8.2293,-8.2707,-8.3052,-8.3466,-8.4121,-8.4535,-8.4673,-8.4915,-8.5294,-8.5673,-8.5984,-8.6294,-8.6294,-8.6294,-8.5984,-8.5294,-8.4501,-8.3638,-8.2535,-8.2017,-8.1879,-8.1776,-8.1776,-8.1845,-8.1845,-8.1845,-8.1845,-8.181,-8.181,-8.181,-8.1776,-8.1776,-8.181,-8.1914,-8.2086,-8.2431,-8.2673,-8.2949,-8.3052,-8.319,-8.3156,-8.3225,-8.3645,-8.4048,-8.4504,-8.4914,-8.4277,-8.3598,-8.259,-8.1519,-8.0328,-7.9379,-7.8659,-7.8054,-8.5742,-8.6294,-8.6191,-8.5777,-8.5121,-8.4225,-8.35,-8.288,-8.2121,-8.1776,-8.1776,-8.1776,-8.1776,-8.1776,-8.1776,-8.1776,-8.1776,-8.1776,-8.1776,-8.1776,-8.1776,-8.1776,-8.1776,-8.1776,-8.1776,-8.1776,-8.1776,-8.1776,-8.1776,-8.1845,-8.2293,-8.3052,-8.3638,-8.4501,-8.5328,-8.5915,-8.626,-8.6294,-8.6294,-8.6294,-8.6294,-8.6294,-8.6294,-8.6156,-8.5535,-8.4742,-8.4052,-8.3225,-8.2535,-8.1879,-8.1776,-8.1776,-8.1776,-8.1776,-8.1776,-8.1776,-8.1776,-8.1776,-8.1845,-8.1948,-8.2293,-8.288,-8.3259,-8.3569,-8.4225,-8.4846,-8.5259,-8.5535,-8.5777,-8.6122,-8.6294,-8.6294,-8.6294,-8.6294,-8.6294,-8.6018,-8.5432,-8.4673,-8.3914,-8.2949,-8.2224,-8.181,-8.1776,-8.181,-8.1845,-8.1948,-8.1948,-8.2017,-8.2052,-8.2155,-8.2328,-8.2466,-8.2604,-8.2673,-8.2742,-8.2776,-8.3052,-8.3225,-8.3569,-8.3742,-8.3949,-8.4018,-8.4052,-8.421,-8.4613,-8.5,-8.5087,-8.4611,-8.3872,-8.293,-8.1843,-8.0541,-7.9565,-7.8691,-7.8087,-8.6191,-8.626,-8.5639,-8.5294,-8.4984,-8.3707,-8.3052,-8.2811,-8.2086,-8.181,-8.1776,-8.1776,-8.181,-8.1776,-8.181,-8.181,-8.1823,-8.1871,-8.1858,-8.1858,-8.1858,-8.1858,-8.1776,-8.1776,-8.1776,-8.1776,-8.1776,-8.1776,-8.1776,-8.1845,-8.25,-8.3535,-8.3914,-8.4639,-8.5708,-8.626,-8.6294,-8.6294,-8.6294,-8.6294,-8.6294,-8.6294,-8.6294,-8.626,-8.5639,-8.488,-8.4052,-8.3328,-8.2569,-8.1879,-8.181,-8.1776,-8.1776,-8.1776,-8.1776,-8.181,-8.1879,-8.1948,-8.1983,-8.2431,-8.2707,-8.3156,-8.3949,-8.4673,-8.5121,-8.5604,-8.5915,-8.6053,-8.6156,-8.6294,-8.6294,-8.6294,-8.6294,-8.6294,-8.6294,-8.6225,-8.5949,-8.5328,-8.4432,-8.3397,-8.2535,-8.1948,-8.2155,-8.2259,-8.2328,-8.2535,-8.2707,-8.2914,-8.3121,-8.3259,-8.3466,-8.3604,-8.3742,-8.3742,-8.3776,-8.3742,-8.3845,-8.388,-8.4121,-8.4225,-8.4466,-8.4777,-8.4949,-8.5003,-8.5091,-8.527,-8.519,-8.4856,-8.4123,-8.3098,-8.1959,-8.0721,-7.9873,-7.9005,-7.8215,-8.5708,-8.5673,-8.5328,-8.4742,-8.3949,-8.3259,-8.2673,-8.2328,-8.1948,-8.1776,-8.1776,-8.181,-8.1871,-8.1918,-8.1965,-8.2012,-8.2152,-8.2152,-8.2106,-8.2012,-8.1965,-8.1871,-8.1776,-8.1776,-8.1776,-8.1776,-8.1776,-8.1776,-8.1776,-8.1776,-8.2604,-8.3673,-8.4018,-8.4777,-8.5949,-8.6294,-8.6294,-8.6294,-8.6294,-8.6294,-8.6294,-8.6294,-8.6294,-8.6191,-8.5915,-8.519,-8.4156,-8.3742,-8.2914,-8.2052,-8.1776,-8.1776,-8.1776,-8.1776,-8.181,-8.1879,-8.2155,-8.2362,-8.25,-8.3052,-8.3638,-8.4121,-8.4846,-8.5363,-8.5708,-8.6053,-8.6294,-8.6294,-8.6294,-8.6294,-8.6294,-8.6294,-8.6294,-8.6294,-8.6294,-8.6294,-8.6156,-8.5604,-8.488,-8.4018,-8.3225,-8.2845,-8.2983,-8.3018,-8.2914,-8.3121,-8.3431,-8.3776,-8.4121,-8.4225,-8.4328,-8.4294,-8.4328,-8.4328,-8.4397,-8.457,-8.4604,-8.4673,-8.4777,-8.488,-8.5087,-8.5432,-8.5639,-8.5777,-8.578,-8.5646,-8.5361,-8.5029,-8.4143,-8.3265,-8.2248,-8.1198,-8.0178,-7.9255,-7.8469,-8.4949,-8.4949,-8.4811,-8.4018,-8.2983,-8.2742,-8.2362,-8.1879,-8.181,-8.1858,-8.1823,-8.1871,-8.2012,-8.2118,-8.2257,-8.235,-8.2533,-8.2533,-8.2396,-8.2245,-8.2071,-8.2012,-8.1871,-8.181,-8.1776,-8.1776,-8.1776,-8.1776,-8.1776,-8.1776,-8.2569,-8.3431,-8.388,-8.4639,-8.5742,-8.6191,-8.626,-8.6294,-8.6294,-8.6294,-8.6294,-8.6294,-8.6294,-8.6294,-8.6294,-8.5639,-8.4501,-8.4052,-8.3328,-8.2431,-8.1914,-8.1776,-8.1776,-8.1776,-8.1879,-8.2086,-8.2604,-8.288,-8.3293,-8.3811,-8.4466,-8.4915,-8.5294,-8.5742,-8.6053,-8.6225,-8.6294,-8.6294,-8.6294,-8.6294,-8.6294,-8.6294,-8.6294,-8.6294,-8.6294,-8.6294,-8.6191,-8.5915,-8.5673,-8.4846,-8.3983,-8.3638,-8.3707,-8.3638,-8.35,-8.3949,-8.4294,-8.457,-8.488,-8.488,-8.4915,-8.4811,-8.4777,-8.4777,-8.4949,-8.5294,-8.5363,-8.5397,-8.557,-8.5742,-8.5915,-8.6156,-8.6225,-8.6156,-8.6191,-8.6006,-8.5652,-8.5134,-8.4305,-8.3487,-8.2501,-8.1551,-8.0481,-7.9503,-7.8659,-8.4156,-8.4087,-8.3466,-8.3052,-8.2811,-8.2224,-8.1914,-8.181,-8.1776,-8.1918,-8.2024,-8.2071,-8.2211,-8.2488,-8.2681,-8.267,-8.267,-8.2726,-8.2726,-8.2488,-8.2303,-8.2164,-8.2024,-8.1905,-8.1858,-8.181,-8.1776,-8.1776,-8.1776,-8.1776,-8.2224,-8.3052,-8.3742,-8.4466,-8.5225,-8.5846,-8.6294,-8.6294,-8.6294,-8.6294,-8.6294,-8.6294,-8.6294,-8.6294,-8.6225,-8.588,-8.4949,-8.4363,-8.3535,-8.2811,-8.2121,-8.1845,-8.1776,-8.1776,-8.219,-8.2569,-8.2914,-8.3225,-8.388,-8.4604,-8.5052,-8.5432,-8.5777,-8.6156,-8.626,-8.6294,-8.6294,-8.6294,-8.6294,-8.6294,-8.6294,-8.6294,-8.6294,-8.6294,-8.6294,-8.6294,-8.6225,-8.6156,-8.5949,-8.5811,-8.4984,-8.4466,-8.4294,-8.419,-8.4156,-8.4673,-8.5121,-8.5397,-8.557,-8.5535,-8.5535,-8.5432,-8.5397,-8.5397,-8.5397,-8.5742,-8.5846,-8.5984,-8.6122,-8.6294,-8.6294,-8.6294,-8.6294,-8.626,-8.6363,-8.6281,-8.5977,-8.5338,-8.4533,-8.3708,-8.2873,-8.1785,-8.0661,-7.975,-7.8912,-8.3018,-8.3362,-8.3052,-8.2673,-8.2259,-8.1914,-8.1776,-8.1858,-8.1918,-8.2012,-8.2118,-8.2257,-8.2533,-8.2896,-8.3218,-8.3393,-8.3341,-8.3393,-8.3218,-8.2941,-8.2761,-8.2488,-8.2164,-8.2012,-8.1918,-8.1858,-8.1776,-8.1776,-8.1776,-8.1879,-8.219,-8.2811,-8.3259,-8.3742,-8.4535,-8.5294,-8.557,-8.5777,-8.6053,-8.6294,-8.6294,-8.6294,-8.6294,-8.6294,-8.6294,-8.588,-8.519,-8.4432,-8.3673,-8.2949,-8.219,-8.181,-8.1914,-8.2224,-8.2776,-8.3466,-8.3983,-8.4363,-8.4742,-8.5397,-8.5673,-8.5846,-8.6122,-8.626,-8.6294,-8.6294,-8.6294,-8.6294,-8.6294,-8.6294,-8.6294,-8.6294,-8.6294,-8.6294,-8.6294,-8.6294,-8.6294,-8.6294,-8.6225,-8.6122,-8.5984,-8.5466,-8.5018,-8.488,-8.4949,-8.5397,-8.5673,-8.5846,-8.5984,-8.6018,-8.6087,-8.6122,-8.6122,-8.6122,-8.6053,-8.6156,-8.6087,-8.6156,-8.6191,-8.6294,-8.6294,-8.6294,-8.6329,-8.6536,-8.6742,-8.6609,-8.6286,-8.5718,-8.5041,-8.4136,-8.3243,-8.219,-8.1198,-8.0178,-7.9287,-8.2121,-8.2638,-8.2638,-8.2293,-8.181,-8.1776,-8.1858,-8.1871,-8.2059,-8.2164,-8.235,-8.2625,-8.3031,-8.3437,-8.3861,-8.3996,-8.4039,-8.4158,-8.3861,-8.3568,-8.3262,-8.2906,-8.2533,-8.2257,-8.2012,-8.1871,-8.181,-8.181,-8.1776,-8.1845,-8.2086,-8.2638,-8.288,-8.3225,-8.3776,-8.4466,-8.4984,-8.5363,-8.5984,-8.626,-8.6294,-8.6294,-8.6294,-8.6294,-8.6225,-8.5984,-8.5225,-8.4432,-8.3673,-8.2949,-8.219,-8.1879,-8.219,-8.2604,-8.3362,-8.4087,-8.4742,-8.5121,-8.5466,-8.5915,-8.626,-8.6294,-8.6294,-8.6294,-8.6294,-8.6294,-8.6294,-8.6294,-8.6294,-8.6294,-8.6294,-8.6294,-8.6294,-8.6294,-8.6294,-8.6294,-8.6329,-8.6398,-8.6363,-8.626,-8.6191,-8.6225,-8.5846,-8.5639,-8.5777,-8.6156,-8.6294,-8.6294,-8.6294,-8.6294,-8.6294,-8.6294,-8.6294,-8.6294,-8.6294,-8.6294,-8.6294,-8.6294,-8.6294,-8.6294,-8.6294,-8.6363,-8.6432,-8.6708,-8.7122,-8.7296,-8.7264,-8.6388,-8.5579,-8.4764,-8.391,-8.2803,-8.1785,-8.0721,-7.9565,-8.181,-8.1879,-8.1879,-8.1879,-8.1776,-8.1776,-8.1918,-8.2059,-8.2071,-8.2396,-8.2886,-8.3332,-8.3733,-8.4116,-8.4368,-8.4533,-8.4462,-8.4738,-8.4456,-8.4081,-8.3697,-8.3393,-8.2951,-8.2533,-8.2152,-8.2059,-8.1918,-8.1823,-8.1776,-8.1776,-8.1845,-8.1948,-8.2466,-8.2811,-8.319,-8.3707,-8.4466,-8.5018,-8.5742,-8.6156,-8.6225,-8.626,-8.6294,-8.6294,-8.626,-8.5949,-8.5225,-8.4432,-8.3673,-8.2949,-8.2328,-8.219,-8.2604,-8.3087,-8.388,-8.4673,-8.519,-8.5604,-8.6018,-8.6156,-8.626,-8.6294,-8.6294,-8.6294,-8.6294,-8.6294,-8.6294,-8.6294,-8.6294,-8.6294,-8.6294,-8.6329,-8.6329,-8.6536,-8.6639,-8.6742,-8.6708,-8.6536,-8.6501,-8.6363,-8.6294,-8.6294,-8.6294,-8.6018,-8.5949,-8.626,-8.6294,-8.6294,-8.6294,-8.6294,-8.6294,-8.6294,-8.6294,-8.6294,-8.6294,-8.6294,-8.6294,-8.6294,-8.6294,-8.6294,-8.6294,-8.6398,-8.6708,-8.7122,-8.757,-8.7864,-8.8123,-8.7486,-8.6707,-8.5641,-8.4665,-8.3553,-8.2058,-8.0661,-7.9597,-8.1776,-8.1776,-8.1776,-8.1776,-8.1776,-8.1918,-8.2059,-8.2164,-8.2442,-8.2886,-8.3376,-8.3939,-8.432,-8.4492,-8.4819,-8.498,-8.4944,-8.502,-8.49,-8.4656,-8.429,-8.3869,-8.3437,-8.2951,-8.2579,-8.2211,-8.2012,-8.1871,-8.181,-8.181,-8.1776,-8.1948,-8.2155,-8.219,-8.2466,-8.3018,-8.3742,-8.4466,-8.5156,-8.5604,-8.5708,-8.6122,-8.6294,-8.6294,-8.6294,-8.5915,-8.5225,-8.4432,-8.3673,-8.3052,-8.2638,-8.2776,-8.3156,-8.3742,-8.4501,-8.5225,-8.557,-8.5984,-8.6191,-8.6294,-8.6294,-8.6294,-8.6294,-8.6294,-8.6294,-8.6294,-8.6294,-8.6294,-8.6294,-8.6294,-8.6294,-8.6329,-8.6432,-8.6811,-8.7053,-8.7225,-8.7191,-8.7053,-8.6846,-8.6811,-8.6501,-8.6294,-8.6294,-8.6294,-8.626,-8.6294,-8.6294,-8.6294,-8.6294,-8.6294,-8.6294,-8.6294,-8.6294,-8.6294,-8.6294,-8.6294,-8.6294,-8.6294,-8.6294,-8.6294,-8.6363,-8.6915,-8.7225,-8.7605,-8.8157,-8.8743,-8.8915,-8.8586,-8.7909,-8.6899,-8.5607,-8.4233,-8.2634,-8.0818,-7.972,-8.1823,-8.181,-8.1776,-8.1776,-8.1823,-8.2012,-8.2118,-8.2303,-8.2705,-8.3199,-8.3725,-8.432,-8.4692,-8.4819,-8.5064,-8.5336,-8.5375,-8.5411,-8.5258,-8.506,-8.4738,-8.4368,-8.3869,-8.335,-8.2896,-8.2442,-8.2118,-8.2012,-8.1918,-8.1858,-8.181,-8.1776,-8.181,-8.1845,-8.2017,-8.2535,-8.319,-8.3742,-8.4397,-8.4811,-8.4949,-8.5259,-8.5535,-8.5501,-8.5466,-8.5087,-8.457,-8.4018,-8.3673,-8.3259,-8.3087,-8.3397,-8.388,-8.4501,-8.519,-8.5604,-8.5949,-8.6294,-8.6294,-8.6294,-8.6294,-8.6294,-8.6294,-8.6294,-8.6294,-8.6294,-8.6294,-8.6294,-8.6294,-8.6329,-8.6363,-8.6536,-8.6811,-8.7191,-8.7708,-8.7881,-8.7846,-8.7708,-8.7467,-8.726,-8.6846,-8.6294,-8.6294,-8.6294,-8.6294,-8.6294,-8.6294,-8.6294,-8.6294,-8.6294,-8.6294,-8.6294,-8.6294,-8.6294,-8.6294,-8.6294,-8.6294,-8.6294,-8.6294,-8.6294,-8.6501,-8.7087,-8.7674,-8.8053,-8.8708,-8.9571,-8.9794,-8.9603,-8.8943,-8.8126,-8.6521,-8.4768,-8.3242,-8.1496,-8.0242,-8.1965,-8.1776,-8.1776,-8.181,-8.1858,-8.1977,-8.2257,-8.2533,-8.2851,-8.3341,-8.3947,-8.4445,-8.4855,-8.5139,-8.5378,-8.5608,-8.5797,-8.5797,-8.5721,-8.5453,-8.5319,-8.4886,-8.4433,-8.396,-8.3543,-8.3066,-8.2625,-8.2257,-8.2071,-8.1918,-8.1823,-8.1776,-8.1776,-8.181,-8.1879,-8.2535,-8.2914,-8.3052,-8.3673,-8.3949,-8.4087,-8.4259,-8.4432,-8.4432,-8.4466,-8.4156,-8.3845,-8.3949,-8.3673,-8.3328,-8.3742,-8.4225,-8.4811,-8.5087,-8.5604,-8.6122,-8.6225,-8.6294,-8.6294,-8.6294,-8.6294,-8.6294,-8.6294,-8.6294,-8.6294,-8.6294,-8.6294,-8.6294,-8.6294,-8.6363,-8.657,-8.688,-8.7225,-8.7846,-8.8364,-8.8674,-8.8674,-8.8191,-8.7915,-8.7605,-8.688,-8.6294,-8.6294,-8.6294,-8.6294,-8.6294,-8.6294,-8.6294,-8.6329,-8.6294,-8.6294,-8.6294,-8.6294,-8.6294,-8.6294,-8.6294,-8.6294,-8.6294,-8.6363,-8.6398,-8.6708,-8.7294,-8.7846,-8.8433,-8.9226,-9.0088,-9.0467,-9.0656,-8.9876,-8.8867,-8.686,-8.5025,-8.3606,-8.2289,-8.1104,-8.2012,-8.1776,-8.1776,-8.1871,-8.2012,-8.2257,-8.2488,-8.2841,-8.3297,-8.3776,-8.4165,-8.4738,-8.5139,-8.5414,-8.5646,-8.5837,-8.5987,-8.5911,-8.5835,-8.5911,-8.5925,-8.5894,-8.5524,-8.5109,-8.4561,-8.3894,-8.3281,-8.2522,-8.2071,-8.1977,-8.1918,-8.1823,-8.1776,-8.1776,-8.1845,-8.2121,-8.2155,-8.2293,-8.2845,-8.3293,-8.3328,-8.3673,-8.3914,-8.3914,-8.388,-8.3742,-8.3535,-8.3845,-8.3845,-8.3776,-8.4363,-8.4949,-8.5363,-8.5535,-8.6018,-8.6294,-8.6294,-8.6294,-8.6294,-8.6294,-8.6294,-8.6294,-8.6294,-8.6294,-8.6294,-8.6294,-8.6294,-8.6329,-8.6398,-8.657,-8.7018,-8.7191,-8.7674,-8.8812,-8.9398,-8.9709,-8.964,-8.8812,-8.826,-8.7881,-8.7329,-8.657,-8.6294,-8.6294,-8.6294,-8.6398,-8.6432,-8.6363,-8.6329,-8.6329,-8.6294,-8.6294,-8.6294,-8.6294,-8.6294,-8.6294,-8.6294,-8.6294,-8.6432,-8.657,-8.6984,-8.7605,-8.8364,-8.9088,-8.9812,-9.0536,-9.0674,-9.0725,-9.0585,-8.9522,-8.7845,-8.6006,-8.4531,-8.3285,-8.2112,-8.2059,-8.181,-8.1871,-8.2059,-8.2257,-8.2442,-8.2716,-8.3199,-8.3776,-8.4158,-8.445,-8.498,-8.5336,-8.5569,-8.5837,-8.5987,-8.61,-8.6099,-8.635,-8.6462,-8.6668,-8.6715,-8.6612,-8.6316,-8.56,-8.4863,-8.4035,-8.3246,-8.2533,-8.2211,-8.2012,-8.1823,-8.1776,-8.1776,-8.181,-8.1845,-8.1845,-8.1983,-8.2362,-8.2535,-8.2638,-8.288,-8.3156,-8.3156,-8.319,-8.3259,-8.3604,-8.388,-8.419,-8.4535,-8.5052,-8.5535,-8.5742,-8.5949,-8.6294,-8.6294,-8.6294,-8.6294,-8.6294,-8.6294,-8.6294,-8.6294,-8.6294,-8.6294,-8.6294,-8.6294,-8.6294,-8.6363,-8.6501,-8.6915,-8.7363,-8.7536,-8.8536,-8.9674,-9.0054,-9.0329,-9.0192,-8.9364,-8.8501,-8.8157,-8.7363,-8.6708,-8.6329,-8.6294,-8.6294,-8.6432,-8.6536,-8.6501,-8.6501,-8.6501,-8.6536,-8.6536,-8.6432,-8.6363,-8.6363,-8.6294,-8.6294,-8.6294,-8.657,-8.6846,-8.7432,-8.8088,-8.8881,-8.964,-9.0192,-9.0605,-9.0743,-9.0725,-9.0585,-9.0304,-8.9497,-8.7592,-8.5705,-8.4271,-8.3085,-8.2245,-8.1871,-8.2012,-8.2257,-8.2488,-8.267,-8.3031,-8.3638,-8.4109,-8.4403,-8.4651,-8.506,-8.5375,-8.5572,-8.5914,-8.6172,-8.6355,-8.6466,-8.6902,-8.73,-8.7473,-8.764,-8.7649,-8.7311,-8.6764,-8.5849,-8.4923,-8.4062,-8.3225,-8.2442,-8.2012,-8.1871,-8.1823,-8.1879,-8.1948,-8.2017,-8.2017,-8.2121,-8.219,-8.2397,-8.2638,-8.2397,-8.2673,-8.2707,-8.2673,-8.3018,-8.3431,-8.3949,-8.4535,-8.5156,-8.5846,-8.6122,-8.6294,-8.6294,-8.6294,-8.6294,-8.6294,-8.6294,-8.6294,-8.6294,-8.6294,-8.6294,-8.6294,-8.6294,-8.6294,-8.6329,-8.6398,-8.6639,-8.6915,-8.7294,-8.7639,-8.8536,-8.9467,-9.0019,-9.0433,-9.0536,-9.0467,-8.9812,-8.895,-8.8122,-8.7087,-8.6467,-8.6363,-8.6329,-8.6708,-8.6811,-8.7018,-8.7225,-8.7156,-8.6984,-8.6984,-8.6915,-8.6777,-8.6467,-8.6432,-8.6501,-8.6536,-8.6639,-8.6984,-8.7329,-8.795,-8.8605,-8.9329,-8.9985,-9.0433,-9.0709,-9.0778,-9.076,-9.0707,-9.0391,-9.0074,-8.8661,-8.6552,-8.518,-8.3928,-8.2303,-8.2024,-8.2071,-8.2442,-8.3075,-8.3733,-8.3947,-8.3904,-8.432,-8.4651,-8.4819,-8.5222,-8.5531,-8.5797,-8.6025,-8.6537,-8.6939,-8.7341,-8.7888,-8.8252,-8.8609,-8.8851,-8.883,-8.8545,-8.8033,-8.7156,-8.6133,-8.5021,-8.3981,-8.2951,-8.2222,-8.1977,-8.2112,-8.2237,-8.2466,-8.2604,-8.2604,-8.2638,-8.2673,-8.2811,-8.3121,-8.319,-8.319,-8.319,-8.3156,-8.3604,-8.4259,-8.457,-8.519,-8.588,-8.6156,-8.6294,-8.6294,-8.6294,-8.6294,-8.6294,-8.6294,-8.6294,-8.6294,-8.6294,-8.6294,-8.6294,-8.6294,-8.6294,-8.6294,-8.6432,-8.6605,-8.6915,-8.7432,-8.7915,-8.8501,-8.9329,-9.0019,-9.0398,-9.0674,-9.0674,-9.0571,-9.0019,-8.9157,-8.8364,-8.7294,-8.6846,-8.6708,-8.6949,-8.7294,-8.7363,-8.7536,-8.7812,-8.7846,-8.7674,-8.7536,-8.7467,-8.7363,-8.7122,-8.688,-8.6846,-8.6915,-8.6984,-8.7467,-8.8053,-8.8777,-8.9398,-8.9881,-9.0295,-9.064,-9.0743,-9.0778,-9.076,-9.076,-9.0654,-9.0304,-8.8945,-8.7566,-8.6153,-8.4541,-8.2488,-8.2303,-8.2442,-8.3031,-8.3776,-8.4486,-8.4574,-8.4492,-8.4738,-8.494,-8.5179,-8.5378,-8.5646,-8.5983,-8.65,-8.7048,-8.7523,-8.8143,-8.8764,-8.9386,-8.9746,-8.9882,-8.983,-8.9662,-8.9081,-8.8284,-8.7335,-8.6347,-8.5199,-8.4246,-8.3474,-8.3217,-8.2959,-8.3106,-8.3369,-8.3411,-8.3569,-8.3604,-8.3638,-8.3707,-8.388,-8.4087,-8.4018,-8.4087,-8.4087,-8.4535,-8.5121,-8.5225,-8.5604,-8.6191,-8.6294,-8.6294,-8.6398,-8.6536,-8.6742,-8.6811,-8.6811,-8.6605,-8.6398,-8.6329,-8.6294,-8.6329,-8.6329,-8.6501,-8.6708,-8.688,-8.7053,-8.7329,-8.8019,-8.8674,-8.9329,-8.9985,-9.0364,-9.0743,-9.0778,-9.0812,-9.0467,-9.0088,-8.9398,-8.8639,-8.8019,-8.7536,-8.7467,-8.7708,-8.7915,-8.8088,-8.8398,-8.8812,-8.8708,-8.8433,-8.826,-8.8157,-8.8019,-8.7881,-8.7639,-8.7467,-8.7605,-8.7881,-8.8364,-8.8984,-8.964,-9.0019,-9.0364,-9.0571,-9.0743,-9.0812,-9.0812,-9.0812,-9.076,-9.0707,-9.0516,-8.9511,-8.8258,-8.6995,-8.5259,-8.2761,-8.2625,-8.312,-8.3819,-8.4574,-8.4859,-8.506,-8.5258,-8.5258,-8.5336,-8.5456,-8.5533,-8.5757,-8.6237,-8.6974,-8.7632,-8.829,-8.9056,-8.9751,-9.0374,-9.0334,-9.0474,-9.0567,-9.0469,-8.9866,-8.9189,-8.8398,-8.7413,-8.671,-8.5702,-8.4877,-8.4879,-8.4469,-8.4361,-8.4391,-8.4316,-8.4495,-8.488,-8.4639,-8.4501,-8.4397,-8.4294,-8.419,-8.4328,-8.4432,-8.4673,-8.5156,-8.5432,-8.5604,-8.6053,-8.6294,-8.6294,-8.6674,-8.6949,-8.7225,-8.7398,-8.7363,-8.7018,-8.6639,-8.6432,-8.6329,-8.6329,-8.6398,-8.6742,-8.7053,-8.7191,-8.7329,-8.8053,-8.8812,-8.9329,-8.995,-9.0295,-9.064,-9.0778,-9.0812,-9.0812,-9.064,-9.0192,-8.9571,-8.8915,-8.8501,-8.8088,-8.8122,-8.8329,-8.8639,-8.8846,-8.9226,-8.9709,-8.9605,-8.926,-8.9122,-8.895,-8.8777,-8.8674,-8.8536,-8.8433,-8.8467,-8.8777,-8.9191,-8.9605,-9.0019,-9.0398,-9.0778,-9.0812,-9.0812,-9.0812,-9.0812,-9.0812,-9.0812,-9.076,-9.0466,-8.9931,-8.889,-8.7653,-8.5789,-8.2976,-8.312,-8.3904,-8.4492,-8.4859,-8.5182,-8.5492,-8.5721,-8.5721,-8.568,-8.5569,-8.5757,-8.6123,-8.6744,-8.7448,-8.8216,-8.9349,-8.9935,-9.0703,-9.107,-9.1106,-9.0955,-9.1057,-9.0819,-9.0436,-8.9902,-8.9148,-8.8284,-8.7322,-8.6514,-8.5842,-8.5424,-8.5252,-8.525,-8.5415,-8.5222,-8.5456,-8.5861,-8.5708,-8.5501,-8.5501,-8.5673,-8.5777,-8.5708,-8.5742,-8.5673,-8.5949,-8.6018,-8.6122,-8.6294,-8.6294,-8.6605,-8.7122,-8.7329,-8.7743,-8.8088,-8.7846,-8.7467,-8.7053,-8.6674,-8.6467,-8.657,-8.6742,-8.7087,-8.7329,-8.7398,-8.7881,-8.8777,-8.9502,-8.9985,-9.0364,-9.0605,-9.0812,-9.0812,-9.0812,-9.0812,-9.0812,-9.0295,-8.9709,-8.9329,-8.895,-8.8881,-8.8881,-8.9053,-8.9329,-8.9709,-9.0192,-9.0502,-9.0433,-9.0226,-9.0123,-8.9916,-8.9605,-8.9467,-8.9364,-8.926,-8.926,-8.9364,-8.9674,-9.0054,-9.0433,-9.0605,-9.0812,-9.0812,-9.0812,-9.0812,-9.0812,-9.0812,-9.0812,-9.0812,-9.0622,-9.0156,-8.9326,-8.8198,-8.6203,-8.3429,-8.3603,-8.4368,-8.49,-8.5218,-8.5531,-8.5759,-8.5945,-8.6235,-8.6304,-8.6191,-8.634,-8.667,-8.7288,-8.8103,-8.8909,-9.0078,-9.0814,-9.1253,-9.1584,-9.1583,-9.1434,-9.1282,-9.1053,-9.0819,-9.036,-8.9902,-8.9066,-8.8063,-8.7828,-8.7435,-8.6893,-8.6601,-8.6359,-8.6481,-8.6345,-8.6192,-8.6459,-8.6344,-8.6294,-8.6294,-8.6294,-8.6294,-8.6294,-8.6294,-8.6294,-8.6294,-8.6294,-8.6294,-8.6294,-8.6294,-8.7053,-8.7605,-8.7984,-8.8398,-8.8777,-8.8674,-8.8122,-8.757,-8.7122,-8.6811,-8.6984,-8.7087,-8.7432,-8.8536,-8.8674,-8.8708,-8.9536,-9.0054,-9.0536,-9.0571,-9.0778,-9.0812,-9.0812,-9.0812,-9.0812,-9.0812,-9.0571,-9.0295,-9.0192,-8.995,-8.9916,-8.995,-8.9985,-9.0192,-9.0192,-9.0743,-9.0778,-9.0812,-9.0812,-9.0812,-9.0709,-9.0295,-9.0192,-9.0157,-9.0054,-8.9985,-9.0088,-9.0123,-9.0364,-9.064,-9.0709,-9.0812,-9.0812,-9.0812,-9.0812,-9.0812,-9.0812,-9.0812,-9.0812,-9.0656,-9.0484,-8.9585,-8.8687,-8.7026,-8.3996,-8.4081,-8.4702,-8.5143,-8.5495,-8.5797,-8.5982,-8.6163,-8.6706,-8.7068,-8.7175,-8.7322,-8.7322,-8.7983,-8.9012,-8.9709,-9.0445,-9.1217,-9.1693,-9.173,-9.162,-9.1546,-9.1396,-9.1168,-9.0975,-9.078,-9.0433,-9.0032,-8.9432,-8.9221,-8.8963,-8.8828,-8.8371,-8.7866,-8.762,-8.7192,-8.674,-8.6593,-8.6444,-8.6294,-8.6294,-8.6294,-8.6294,-8.6294,-8.6294,-8.6294,-8.6294,-8.6294,-8.6294,-8.6294,-8.6398,-8.7191,-8.795,-8.8433,-8.9088,-8.9467,-8.9536,-8.8846,-8.8191,-8.7743,-8.7605,-8.7605,-8.7605,-8.8191,-8.9364,-8.9743,-8.9778,-9.0019,-9.0536,-9.0743,-9.0778,-9.0812,-9.0812,-9.0812,-9.0812,-9.0812,-9.0778,-9.0778,-9.0778,-9.0743,-9.0709,-9.0709,-9.0709,-9.0778,-9.0778,-9.0812,-9.0812,-9.0812,-9.0812,-9.0812,-9.0812,-9.0812,-9.0605,-9.064,-9.0743,-9.0605,-9.0433,-9.0502,-9.0502,-9.0674,-9.0812,-9.0812,-9.0812,-9.0812,-9.0812,-9.0812,-9.0812,-9.0812,-9.0812,-9.0812,-9.0743,-9.0587,-9.0121,-8.9188,-8.8015,-8.4538,-8.4702,-8.5182,-8.5417,-8.5533,-8.5797,-8.6235,-8.6778,-8.6959,-8.7319,-8.801,-8.8662,-8.8951,-8.8954,-8.9596,-9.0222,-9.0881,-9.1583,-9.173,-9.1803,-9.173,-9.1657,-9.1508,-9.1358,-9.1206,-9.0975,-9.078,-9.0541,-9.0177,-9.0089,-8.9797,-8.9249,-8.8943,-8.8371,-8.7726,-8.7288,-8.6936,-8.674,-8.6494,-8.6294,-8.6294,-8.6294,-8.6294,-8.6294,-8.6294,-8.6294,-8.6294,-8.6294,-8.6294,-8.6294,-8.6398,-8.7225,-8.8019,-8.8674,-8.9295,-9.0019,-9.0088,-8.9605,-8.8984,-8.8536,-8.8398,-8.8398,-8.857,-8.9088,-8.9881,-9.0295,-9.0329,-9.0433,-9.0778,-9.0778,-9.0812,-9.0812,-9.0812,-9.0812,-9.0812,-9.0812,-9.0812,-9.0812,-9.0778,-9.0778,-9.0778,-9.0778,-9.0778,-9.0812,-9.0812,-9.0812,-9.0812,-9.0812,-9.0812,-9.0812,-9.0812,-9.0812,-9.0812,-9.0812,-9.0778,-9.0778,-9.0674,-9.0778,-9.0812,-9.0812,-9.0812,-9.0812,-9.0812,-9.0812,-9.0812,-9.0812,-9.0812,-9.0812,-9.0812,-9.0812,-9.0812,-9.0622,-9.0311,-8.9759,-8.8618]},{"header":{"parameterUnit":"m.s-1","parameterCategory":1,"la1":31.0,"la2":29.5877,"lo1":-88.7671,"lo2":-86.6584,"dx":0.0162,"dy":0.0185,"nx":115,"ny":88,"refTime":"2023-01-02T18:00:00:Z","depth":0,"parameterNumber":3,"parameterNumberName":"V-component_of_WINDS"},"data":[0.0,0.0,0.0,0.0,0.0,0.0,0.0,0.0,0.0,0.0,0.0,0.0,0.0,0.0,0.0,0.0,0.0,0.0,0.0,0.0,0.0,0.0,0.0,0.0,0.0,0.0,0.0,0.0,0.0,0.0,0.0,0.0,0.0,0.0,0.0,0.0,0.0,0.0,0.0,0.0,0.0,0.0,0.0,0.0,0.0,0.0,0.0,0.0,0.0,0.0,0.0,0.0,0.0,0.0,0.0,0.0,0.0,0.0,0.0,0.0,0.0,0.0,0.0,0.0,0.0,0.0,0.0,0.0,0.0,0.0,0.0,0.0,0.0,0.0,0.0,0.0,0.0,0.0,0.0,0.0,0.0,0.0,0.0,0.0,0.0,0.0,0.0,0.0,0.0,0.0,0.0,0.0,0.0,0.0,0.0,0.0,0.0,0.0,0.0,0.0,0.0,0.0,0.0,0.0,0.0,0.0,0.0,0.0,0.0,0.0,0.0,0.0,0.0,0.0,0.0,0.0,0.0,0.0,0.0,0.0,0.0,0.0,0.0,0.0,0.0,0.0,0.0,0.0,0.0,0.0,0.0,0.0,0.0,0.0,0.0,0.0,0.0,0.0,0.0,0.0,0.0,0.0,0.0,0.0,0.0,0.0,0.0,0.0,0.0,0.0,0.0,0.0,0.0,0.0,0.0,0.0,0.0,0.0,0.0,0.0,0.0,0.0,0.0,0.0,0.0,0.0,0.0,0.0,0.0,0.0,0.0,0.0,0.0,0.0,0.0,0.0,0.0,0.0,0.0,0.0,0.0,0.0,0.0,0.0,0.0,0.0,0.0,0.0,0.0,0.0,0.0,0.0,0.0,0.0,0.0,0.0,0.0,0.0,0.0,0.0,0.0,0.0,0.0,0.0,0.0,0.0,0.0,0.0,0.0,0.0,0.0,0.0,0.0,0.0,0.0,0.0,0.0,0.0,0.0,0.0,0.0,0.0,0.0,0.0,0.0,0.0,0.0,0.0,0.0,0.0,0.0,0.0,0.0,0.0,0.0,0.0,0.0,0.0,0.0,0.0,0.0,0.0,0.0,0.0,0.0,0.0,0.0,0.0,0.0,0.0,0.0,0.0,0.0,0.0,0.0,0.0,0.0,0.0,0.0,0.0,0.0,0.0,0.0,0.0,0.0,0.0,0.0,0.0,0.0,0.0,0.0,0.0,0.0,0.0,0.0,0.0,0.0,0.0,0.0,0.0,0.0,0.0,0.0,0.0,0.0,0.0,0.0,0.0,0.0,0.0,0.0,0.0,0.0,0.0,0.0,0.0,0.0,0.0,0.0,0.0,0.0,0.0,0.0,0.0,0.0,0.0,0.0,0.0,0.0,0.0,0.0,0.0,0.0,0.0,0.0,0.0,0.0,0.0,0.0,0.0,0.0,0.0,0.0,0.0,0.0,0.0,0.0,0.0,0.0,0.0,0.0,0.0,0.0,0.0,0.0,0.0,0.0,0.0,0.0,0.0,0.0,0.0,0.0,0.0,0.0,0.0,0.0,0.0,0.0,0.0,0.0,0.0,0.0,0.0,0.0,0.0,0.0,0.0,0.0,0.0,0.0,0.0,0.0,0.0,0.0,0.0,0.0,0.0,0.0,0.0,0.0,0.0,0.0,0.0,0.0,0.0,0.0,0.0,0.0,0.0,0.0,0.0,0.0,0.0,0.0,0.0,0.0,0.0,0.0,0.0,0.0,0.0,0.0,0.0,0.0,0.0,0.0,0.0,0.0,0.0,0.0,0.0,0.0,0.0,0.0,0.0,0.0,0.0,0.0,0.0,0.0,0.0,0.0,0.0,0.0,0.0,0.0,0.0,0.0,0.0,0.0,0.0,0.0,0.0,0.0,0.0,0.0,0.0,0.0,0.0,0.0,0.0,0.0,0.0,0.0,0.0,0.0,0.0,0.0,0.0,0.0,0.0,0.0,0.0,0.0,0.0,0.0,0.0,0.0,0.0,0.0,0.0,0.0,0.0,0.0,0.0,0.0,0.0,0.0,0.0,0.0,0.0,0.0,0.0,0.0,0.0,0.0,0.0,0.0,0.0,0.0,0.0,0.0,0.0,0.0,0.0,0.0,0.0,0.0,0.0,0.0,0.0,0.0,0.0,0.0,0.0,0.0,0.0,0.0,0.0,0.0,0.0,0.0,0.0,0.0,0.0,0.0,0.0,0.0,0.0,0.0,0.0,0.0,0.0,0.0,0.0,0.0,0.0,0.0,0.0,0.0,0.0,0.0,0.0,0.0,0.0,0.0,0.0,0.0,0.0,0.0,0.0,0.0,0.0,0.0,0.0,0.0,0.0,0.0,0.0,0.0,0.0,0.0,0.0,0.0,0.0,0.0,0.0,0.0,0.0,0.0,0.0,0.0,0.0,0.0,0.0,0.0,0.0,0.0,0.0,0.0,0.0,0.0,0.0,0.0,0.0,0.0,0.0,0.0,0.0,0.0,0.0,0.0,0.0,0.0,0.0,0.0,0.0,0.0,0.0,0.0,0.0,0.0,0.0,0.0,0.0,0.0,0.0,0.0,0.0,0.0,0.0,0.0,0.0,0.0,0.0,0.0,0.0,0.0,0.0,0.0,0.0,0.0,0.0,0.0,0.0,0.0,0.0,0.0,0.0,0.0,0.0,0.0,0.0,0.0,0.0,0.0,0.0,0.0,0.0,0.0,0.0,0.0,0.0,0.0,0.0,0.0,0.0,0.0,0.0,0.0,0.0,0.0,0.0,0.0,0.0,0.0,0.0,0.0,0.0,0.0,0.0,0.0,0.0,0.0,0.0,0.0,0.0,0.0,0.0,0.0,0.0,0.0,0.0,0.0,0.0,0.0,0.0,0.0,0.0,0.0,0.0,0.0,0.0,0.0,0.0,0.0,0.0,0.0,0.0,0.0,0.0,0.0,0.0,0.0,0.0,0.0,0.0,0.0,0.0,0.0,0.0,0.0,0.0,0.0,0.0,0.0,0.0,0.0,0.0,0.0,0.0,0.0,0.0,0.0,0.0,0.0,0.0,0.0,0.0,0.0,0.0,0.0,0.0,0.0,0.0,0.0,0.0,0.0,0.0,0.0,0.0,0.0,0.0,0.0,0.0,0.0,0.0,0.0,0.0,0.0,0.0,0.0,0.0,0.0,0.0,0.0,0.0,0.0,0.0,0.0,0.0,0.0,0.0,0.0,0.0,0.0,0.0,0.0,0.0,0.0,0.0,0.0,0.0,0.0,0.0,0.0,0.0,0.0,0.0,0.0,0.0,0.0,0.0,0.0,0.0,0.0,0.0,0.0,0.0,0.0,0.0,0.0,0.0,0.0,0.0,0.0,0.0,0.0,0.0,0.0,0.0,0.0,0.0,0.0,0.0,0.0,0.0,0.0,0.0,0.0,0.0,0.0,0.0,0.0,0.0,0.0,0.0,0.0,0.0,0.0,0.0,0.0,0.0,0.0,0.0,0.0,0.0,0.0,0.0,0.0,0.0,0.0,0.0,0.0,0.0,0.0,0.0,0.0,0.0,0.0,0.0,0.0,0.0,0.0,0.0,0.0,0.0,0.0,0.0,0.0,0.0,0.0,0.0,0.0,0.0,0.0,0.0,0.0,0.0,0.0,0.0,0.0,0.0,0.0,0.0,0.0,0.0,0.0,0.0,0.0,0.0,0.0,0.0,0.0,0.0,0.0,0.0,0.0,0.0,0.0,0.0,0.0,0.0,0.0,0.0,0.0,0.0,0.0,0.0,0.0,0.0,0.0,0.0,0.0,0.0,0.0,0.0,0.0,0.0,0.0,0.0,0.0,0.0,0.0,0.0,0.0,0.0,0.0,0.0,0.0,0.0,0.0,0.0,0.0,0.0,0.0,0.0,0.0,0.0,0.0,0.0,0.0,0.0,0.0,0.0,0.0,0.0,0.0,0.0,0.0,0.0,0.0,0.0,0.0,0.0,0.0,0.0,0.0,0.0,0.0,0.0,0.0,0.0,0.0,0.0,0.0,0.0,0.0,0.0,0.0,0.0,0.0,0.0,0.0,0.0,0.0,0.0,0.0,0.0,0.0,0.0,0.0,0.0,0.0,0.0,0.0,0.0,0.0,0.0,0.0,0.0,0.0,0.0,0.0,0.0,0.0,0.0,0.0,0.0,0.0,0.0,0.0,0.0,0.0,0.0,0.0,0.0,0.0,0.0,0.0,0.0,0.0,0.0,0.0,0.0,0.0,0.0,0.0,0.0,0.0,0.0,1.5992,0.0,0.0,0.0,1.6652,0.0,0.0,0.0,0.0,0.0,0.0,0.0,0.0,0.0,0.0,0.0,0.0,0.0,0.0,0.0,0.0,0.0,0.0,0.0,0.0,0.0,0.0,0.0,0.0,0.0,0.0,0.0,0.0,0.0,0.0,0.0,0.0,0.0,0.0,0.0,0.0,0.0,0.0,0.0,0.0,0.0,0.0,0.0,0.0,0.0,0.0,0.0,0.0,0.0,0.0,0.0,0.0,0.0,0.0,0.0,0.0,0.0,0.0,0.0,0.0,0.0,0.0,0.0,0.0,0.0,0.0,0.0,0.0,0.0,0.0,0.0,0.0,0.0,0.0,0.0,0.0,0.0,0.0,0.0,0.0,0.0,0.0,0.0,0.0,0.0,0.0,0.0,0.0,0.0,0.0,0.0,0.0,0.0,0.0,0.0,0.0,0.0,0.0,0.0,0.0,0.0,0.0,0.0,0.0,0.0,0.0,0.0,0.0,0.0,0.0,1.6164,1.6324,1.659,1.6897,1.7186,0.0,0.0,0.0,0.0,0.0,0.0,0.0,0.0,0.0,0.0,0.0,0.0,0.0,0.0,0.0,0.0,0.0,0.0,0.0,0.0,0.0,0.0,0.0,0.0,0.0,0.0,0.0,0.0,0.0,0.0,0.0,0.0,0.0,0.0,0.0,0.0,0.0,0.0,0.0,0.0,0.0,0.0,0.0,0.0,0.0,0.0,0.0,0.0,0.0,0.0,0.0,0.0,0.0,0.0,0.0,0.0,0.0,0.0,0.0,0.0,0.0,0.0,0.0,0.0,0.0,0.0,0.0,0.0,0.0,0.0,0.0,0.0,0.0,0.0,0.0,0.0,0.0,0.0,0.0,0.0,0.0,0.0,0.0,0.0,0.0,0.0,0.0,0.0,0.0,0.0,0.0,0.0,0.0,0.0,0.0,0.0,0.0,0.0,0.0,0.0,0.0,0.0,0.0,0.0,0.0,0.0,0.0,0.0,0.0,0.0,0.0,0.0,1.7014,1.7423,1.7694,0.0,0.0,0.0,0.0,0.0,0.0,0.0,0.0,0.0,0.0,0.0,0.0,0.0,0.0,0.0,0.0,0.0,0.0,0.0,0.0,0.0,0.0,0.0,0.0,0.0,0.0,0.0,0.0,0.0,0.0,0.0,0.0,0.0,0.0,0.0,0.0,0.0,0.0,0.0,0.0,0.0,0.0,0.0,0.0,0.0,0.0,0.0,0.0,0.0,0.0,0.0,0.0,0.0,0.0,0.0,0.0,0.0,0.0,0.0,0.0,0.0,0.0,0.0,0.0,0.0,0.0,0.0,0.0,0.0,0.0,0.0,0.0,0.0,0.0,0.0,0.0,0.0,0.0,0.0,0.0,0.0,0.0,0.0,0.0,0.0,0.0,0.0,0.0,0.0,0.0,0.0,0.0,0.0,0.0,0.0,0.0,0.0,0.0,0.0,0.0,0.0,0.0,0.0,0.0,0.0,0.0,0.0,0.0,0.0,0.0,1.6537,1.708,1.7437,0.0,1.7853,0.0,0.0,0.0,0.0,0.0,0.0,0.0,0.0,0.0,0.0,0.0,0.0,0.0,0.0,0.0,0.0,0.0,0.0,0.0,0.0,0.0,0.0,0.0,0.0,0.0,0.0,0.0,0.0,0.0,0.0,0.0,0.0,0.0,0.0,0.0,0.0,0.0,0.0,0.0,0.0,0.0,0.0,0.0,0.0,0.0,0.0,0.0,0.0,0.0,0.0,0.0,0.0,0.0,0.0,0.0,0.0,0.0,0.0,0.0,0.0,0.0,0.0,0.0,0.0,0.0,0.0,0.0,0.0,0.0,0.0,0.0,0.0,0.0,0.0,0.0,0.0,0.0,0.0,0.0,0.0,0.0,0.0,0.0,0.0,0.0,0.0,0.0,0.0,0.0,0.0,0.0,0.0,0.0,0.0,0.0,0.0,0.0,0.0,0.0,0.0,0.0,0.0,0.0,0.0,0.0,0.0,0.0,0.0,0.0,0.0,1.6842,1.7437,1.8016,1.8311,0.0,0.0,0.0,0.0,0.0,0.0,0.0,0.0,0.0,0.0,0.0,0.0,0.0,0.0,0.0,0.0,0.0,0.0,0.0,0.0,0.0,0.0,0.0,0.0,0.0,0.0,0.0,0.0,0.0,0.0,0.0,0.0,0.0,0.0,0.0,0.0,0.0,0.0,0.0,0.0,0.0,0.0,0.0,0.0,0.0,0.0,0.0,0.0,0.0,0.0,0.0,0.0,0.0,0.0,0.0,0.0,0.0,0.0,0.0,0.0,0.0,0.0,0.0,0.0,0.0,0.0,0.0,0.0,0.0,0.0,0.0,0.0,0.0,0.0,0.0,0.0,0.0,0.0,0.0,0.0,0.0,0.0,0.0,0.0,0.0,0.0,0.0,0.0,0.0,0.0,0.0,0.0,0.0,0.0,0.0,0.0,0.0,0.0,0.0,0.0,0.0,0.0,0.0,0.0,0.0,0.0,0.0,0.0,0.0,0.0,1.6611,1.7383,1.8073,1.8636,1.8825,1.8419,0.0,0.0,0.0,0.0,0.0,0.0,0.0,0.0,0.0,0.0,0.0,0.0,0.0,0.0,0.0,0.0,0.0,0.0,0.0,0.0,0.0,0.0,0.0,0.0,0.0,0.0,0.0,0.0,0.0,0.0,0.0,0.0,0.0,0.0,0.0,0.0,0.0,0.0,0.0,0.0,0.0,0.0,0.0,0.0,0.0,0.0,0.0,0.0,0.0,0.0,0.0,0.0,0.0,0.0,0.0,0.0,0.0,0.0,0.0,0.0,0.0,0.0,0.0,0.0,0.0,0.0,0.0,0.0,0.0,0.0,0.0,0.0,0.0,0.0,0.0,0.0,0.0,0.0,0.0,0.0,0.0,0.0,0.0,0.0,0.0,0.0,0.0,0.0,0.0,0.0,0.0,0.0,0.0,0.0,0.0,0.0,0.0,0.0,0.0,0.0,0.0,0.0,0.0,0.0,0.0,0.0,0.0,0.0,1.6252,1.7437,1.8387,1.9192,1.9275,1.9081,0.0,0.0,0.0,0.0,0.0,0.0,0.0,0.0,0.0,0.0,0.0,0.0,0.0,0.0,0.0,0.0,0.0,0.0,0.0,0.0,0.0,0.0,0.0,0.0,0.0,0.0,0.0,0.0,0.0,0.0,0.0,0.0,0.0,0.0,0.0,0.0,0.0,0.0,0.0,0.0,0.0,0.0,0.0,0.0,0.0,0.0,0.0,0.0,0.0,0.0,0.0,0.0,0.0,0.0,0.0,0.0,0.0,0.0,0.0,0.0,0.0,0.0,0.0,0.0,0.0,0.0,0.0,0.0,0.0,0.0,0.0,0.0,0.0,0.0,0.0,0.0,0.0,0.0,0.0,0.0,0.0,0.0,0.0,0.0,0.0,0.0,0.0,0.0,0.0,0.0,0.0,0.0,0.0,0.0,0.0,0.0,0.0,0.0,0.0,0.0,0.0,0.0,0.0,0.0,0.0,0.0,0.0,0.0,0.0,1.6636,1.8171,1.9148,1.9541,1.9744,1.9739,0.0,0.0,0.0,0.0,0.0,0.0,0.0,0.0,0.0,0.0,0.0,0.0,0.0,0.0,0.0,0.0,0.0,0.0,0.0,0.0,0.0,0.0,0.0,0.0,0.0,0.0,0.0,0.0,0.0,0.0,0.0,0.0,0.0,0.0,0.0,0.0,0.0,0.0,0.0,0.0,0.0,0.0,0.0,0.0,0.0,0.0,0.0,0.0,0.0,0.0,0.0,0.0,0.0,0.0,0.0,0.0,0.0,0.0,0.0,0.0,0.0,0.0,0.0,0.0,0.0,0.0,0.0,0.0,0.0,0.0,0.0,0.0,0.0,0.0,0.0,0.0,0.0,0.0,0.0,0.0,0.0,0.0,0.0,0.0,0.0,0.0,0.0,0.0,0.0,0.0,0.0,0.0,0.0,0.0,0.0,0.0,0.0,0.0,0.0,0.0,0.0,0.0,0.0,0.0,0.0,0.0,0.0,0.0,0.0,1.7767,1.9029,1.9852,2.017,2.0339,2.0382,0.0,0.0,0.0,0.0,0.0,0.0,0.0,0.0,0.0,0.0,0.0,0.0,0.0,0.0,0.0,0.0,0.0,0.0,0.0,0.0,0.0,0.0,0.0,0.0,0.0,0.0,0.0,0.0,0.0,0.0,0.0,0.0,0.0,0.0,0.0,0.0,0.0,0.0,0.0,0.0,0.0,0.0,0.0,0.0,0.0,0.0,0.0,0.0,0.0,0.0,0.0,0.0,0.0,0.0,0.0,0.0,0.0,0.0,0.0,0.0,0.0,0.0,0.0,0.0,0.0,0.0,0.0,0.0,0.0,0.0,0.0,0.0,0.0,0.0,0.0,0.0,0.0,0.0,0.0,0.0,0.0,0.0,0.0,0.0,0.0,0.0,0.0,0.0,0.0,0.0,0.0,0.0,0.0,0.0,0.0,0.0,0.0,0.0,0.0,0.0,0.0,0.0,0.0,0.0,0.0,0.0,0.0,0.0,1.782,1.9738,2.0152,2.0693,2.1208,2.1094,2.0888,0.0,0.0,0.0,0.0,0.0,0.0,0.0,0.0,0.0,0.0,0.0,0.0,0.0,0.0,0.0,0.0,0.0,0.0,0.0,0.0,0.0,0.0,0.0,0.0,0.0,0.0,0.0,0.0,0.0,0.0,0.0,0.0,0.0,0.0,0.0,0.0,0.0,0.0,0.0,0.0,0.0,0.0,0.0,0.0,0.0,0.0,0.0,0.0,0.0,0.0,0.0,0.0,0.0,0.0,0.0,0.0,0.0,0.0,0.0,0.0,0.0,0.0,0.0,0.0,0.0,0.0,0.0,0.0,0.0,0.0,0.0,0.0,0.0,0.0,0.0,0.0,0.0,0.0,0.0,0.0,0.0,0.0,0.0,0.0,0.0,0.0,0.0,0.0,0.0,0.0,0.0,0.0,0.0,0.0,0.0,0.0,0.0,0.0,0.0,0.0,0.0,0.0,0.0,0.0,0.0,0.0,0.0,0.0,0.0,2.08,2.1782,2.2494,2.2798,2.26,2.2243,0.0,0.0,0.0,0.0,0.0,0.0,0.0,0.0,0.0,0.0,0.0,0.0,0.0,0.0,0.0,0.0,0.0,0.0,0.0,0.0,0.0,0.0,0.0,0.0,0.0,0.0,0.0,0.0,0.0,0.0,0.0,0.0,0.0,0.0,0.0,0.0,0.0,0.0,0.0,0.0,0.0,0.0,0.0,0.0,0.0,0.0,0.0,0.0,0.0,0.0,0.0,0.0,0.0,0.0,0.0,0.0,0.0,0.0,0.0,0.0,0.0,0.0,0.0,0.0,0.0,0.0,0.0,0.0,0.0,0.0,0.0,0.0,0.0,0.0,0.0,0.0,0.0,0.0,0.0,0.0,0.0,0.0,0.0,0.0,0.0,0.0,0.0,0.0,0.0,0.0,0.0,0.0,0.0,0.0,0.0,0.0,0.0,0.0,0.0,0.0,0.0,0.0,0.0,0.0,0.0,0.0,0.0,0.0,0.0,2.2731,2.3559,2.4039,2.4146,2.3811,2.3343,2.2668,0.0,0.0,0.0,0.0,0.0,0.0,0.0,0.0,0.0,0.0,0.0,0.0,0.0,0.0,0.0,0.0,0.0,0.0,0.0,0.0,0.0,0.0,0.0,0.0,0.0,0.0,0.0,0.0,0.0,0.0,0.0,0.0,0.0,0.0,0.0,0.0,0.0,0.0,0.0,0.0,0.0,0.0,0.0,0.0,0.0,0.0,0.0,0.0,0.0,0.0,0.0,0.0,0.0,0.0,0.0,0.0,0.0,0.0,0.0,0.0,0.0,0.0,0.0,0.0,0.0,0.0,0.0,0.0,0.0,0.0,0.0,0.0,0.0,0.0,0.0,0.0,0.0,0.0,0.0,0.0,0.0,0.0,0.0,0.0,0.0,0.0,0.0,0.0,0.0,0.0,0.0,0.0,0.0,0.0,0.0,0.0,0.0,0.0,0.0,0.0,0.0,0.0,0.0,0.0,0.0,0.0,0.0,0.0,2.5322,2.5416,2.5423,2.5245,2.4869,2.4145,0.0,0.0,0.0,0.0,0.0,0.0,0.0,0.0,0.0,0.0,0.0,0.0,0.0,0.0,0.0,0.0,0.0,0.0,0.0,0.0,0.0,0.0,0.0,0.0,0.0,0.0,0.0,0.0,0.0,0.0,0.0,0.0,0.0,0.0,0.0,0.0,0.0,0.0,0.0,0.0,0.0,0.0,0.0,0.0,0.0,0.0,0.0,0.0,0.0,0.0,0.0,0.0,0.0,0.0,0.0,0.0,0.0,0.0,0.0,0.0,0.0,0.0,0.0,0.0,0.0,0.0,0.0,0.0,0.0,0.0,0.0,0.0,0.0,0.0,0.0,0.0,0.0,0.0,0.0,0.0,0.0,0.0,0.0,0.0,0.0,0.0,0.0,0.0,0.0,0.0,0.0,0.0,0.0,0.0,0.0,0.0,0.0,0.0,0.0,0.0,0.0,0.0,0.0,0.0,0.0,0.0,0.0,0.0,0.0,2.7052,2.8128,2.8151,2.7073,2.6399,2.5679,0.0,0.0,0.0,0.0,0.0,0.0,0.0,0.0,0.0,0.0,0.0,0.0,0.0,0.0,0.0,0.0,0.0,0.0,0.0,0.0,0.0,0.0,0.0,0.0,0.0,0.0,0.0,0.0,0.0,0.0,0.0,0.0,0.0,0.0,0.0,0.0,0.0,0.0,0.0,0.0,0.0,0.0,0.0,0.0,0.0,0.0,0.0,0.0,0.0,0.0,0.0,0.0,0.0,0.0,0.0,0.0,0.0,0.0,0.0,0.0,0.0,0.0,0.0,0.0,0.0,0.0,0.0,0.0,0.0,0.0,0.0,0.0,0.0,0.0,0.0,0.0,0.0,0.0,0.0,0.0,0.0,0.0,0.0,0.0,0.0,0.0,0.0,0.0,0.0,0.0,0.0,0.0,0.0,0.0,0.0,0.0,0.0,0.0,0.0,0.0,0.0,0.0,0.0,0.0,0.0,0.0,0.0,0.0,2.6536,2.8444,2.9696,2.9975,2.9099,2.8202,2.7082,0.0,0.0,0.0,0.0,0.0,0.0,0.0,0.0,0.0,0.0,0.0,0.0,0.0,0.0,0.0,0.0,0.0,0.0,0.0,0.0,0.0,0.0,0.0,0.0,0.0,0.0,0.0,0.0,0.0,0.0,0.0,0.0,0.0,0.0,0.0,0.0,0.0,0.0,0.0,0.0,0.0,0.0,0.0,0.0,0.0,0.0,0.0,0.0,0.0,0.0,0.0,0.0,0.0,0.0,0.0,0.0,0.0,0.0,0.0,0.0,0.0,0.0,0.0,0.0,0.0,0.0,0.0,0.0,0.0,0.0,0.0,0.0,0.0,0.0,0.0,0.0,0.0,0.0,0.0,0.0,0.0,0.0,0.0,0.0,0.0,0.0,0.0,0.0,0.0,0.0,0.0,0.0,0.0,0.0,0.0,0.0,0.0,0.0,0.0,0.0,0.0,0.0,0.0,0.0,0.0,0.0,0.0,0.0,2.7764,2.9502,3.0524,3.1138,3.1119,2.9999,2.836,0.0,0.0,0.0,0.0,0.0,0.0,0.0,0.0,0.0,0.0,0.0,0.0,0.0,0.0,0.0,0.0,0.0,0.0,0.0,0.0,0.0,0.0,0.0,0.0,0.0,0.0,0.0,0.0,0.0,0.0,0.0,0.0,0.0,0.0,0.0,0.0,0.0,0.0,0.0,0.0,0.0,0.0,0.0,0.0,0.0,0.0,0.0,0.0,0.0,0.0,0.0,0.0,0.0,0.0,0.0,0.0,0.0,0.0,0.0,0.0,0.0,0.0,0.0,0.0,0.0,0.0,0.0,0.0,0.0,0.0,0.0,0.0,0.0,0.0,0.0,0.0,0.0,0.0,0.0,0.0,0.0,0.0,0.0,0.0,0.0,0.0,0.0,0.0,0.0,0.0,0.0,0.0,0.0,0.0,0.0,0.0,0.0,0.0,0.0,0.0,0.0,0.0,0.0,0.0,0.0,0.0,0.0,0.0,2.8444,3.0257,3.1335,3.1989,3.2241,3.0864,2.9464,0.0,0.0,0.0,0.0,0.0,0.0,0.0,0.0,0.0,0.0,0.0,0.0,0.0,0.0,0.0,0.0,0.0,0.0,0.0,0.0,0.0,0.0,0.0,0.0,0.0,0.0,0.0,0.0,0.0,0.0,0.0,0.0,0.0,0.0,0.0,0.0,0.0,0.0,0.0,0.0,0.0,0.0,0.0,0.0,0.0,0.0,0.0,0.0,2.6689,0.0,0.0,0.0,0.0,0.0,0.0,0.0,0.0,0.0,0.0,0.0,0.0,0.0,0.0,0.0,0.0,0.0,0.0,0.0,0.0,0.0,0.0,0.0,0.0,0.0,0.0,0.0,0.0,0.0,0.0,0.0,0.0,0.0,0.0,0.0,0.0,0.0,0.0,0.0,0.0,0.0,0.0,0.0,0.0,0.0,0.0,0.0,0.0,0.0,0.0,0.0,0.0,0.0,0.0,0.0,0.0,0.0,0.0,0.0,2.9682,3.1478,3.2276,3.2797,3.3088,3.2029,3.0725,0.0,0.0,0.0,0.0,0.0,0.0,0.0,0.0,0.0,0.0,0.0,0.0,0.0,0.0,0.0,0.0,0.0,0.0,0.0,0.0,0.0,0.0,0.0,0.0,0.0,0.0,0.0,0.0,0.0,0.0,0.0,0.0,0.0,0.0,0.0,0.0,0.0,0.0,0.0,0.0,0.0,0.0,0.0,0.0,0.0,0.0,0.0,0.0,0.0,0.0,0.0,0.0,0.0,0.0,0.0,0.0,0.0,0.0,0.0,0.0,0.0,0.0,0.0,0.0,0.0,0.0,0.0,0.0,0.0,0.0,0.0,0.0,0.0,0.0,0.0,0.0,0.0,0.0,0.0,0.0,0.0,0.0,0.0,0.0,0.0,0.0,0.0,0.0,0.0,0.0,0.0,0.0,0.0,0.0,0.0,0.0,0.0,0.0,0.0,0.0,0.0,0.0,0.0,0.0,0.0,0.0,0.0,2.8525,3.0889,3.2613,3.3175,3.356,3.389,3.312,3.1833,3.0031,0.0,0.0,0.0,0.0,0.0,0.0,0.0,0.0,0.0,0.0,0.0,0.0,0.0,0.0,0.0,0.0,0.0,0.0,0.0,0.0,0.0,0.0,0.0,0.0,0.0,0.0,0.0,0.0,0.0,0.0,0.0,0.0,0.0,0.0,0.0,0.0,0.0,0.0,2.6368,2.8482,0.0,0.0,0.0,0.0,0.0,0.0,0.0,0.0,3.2082,0.0,0.0,0.0,0.0,0.0,0.0,0.0,0.0,0.0,0.0,0.0,0.0,0.0,0.0,0.0,0.0,0.0,0.0,0.0,0.0,0.0,0.0,0.0,0.0,0.0,0.0,0.0,0.0,0.0,0.0,0.0,0.0,0.0,0.0,0.0,0.0,0.0,0.0,0.0,0.0,0.0,0.0,0.0,0.0,0.0,0.0,0.0,0.0,0.0,0.0,0.0,0.0,0.0,0.0,0.0,0.0,2.655,2.9109,3.1149,3.2648,3.3426,3.3959,3.4275,3.3541,3.2514,3.1148,0.0,0.0,0.0,0.0,0.0,0.0,0.0,0.0,0.0,0.0,0.0,0.0,0.0,0.0,0.0,0.0,0.0,0.0,0.0,0.0,0.0,0.0,0.0,0.0,0.0,0.0,0.0,0.0,0.0,0.0,0.0,0.0,0.0,0.0,0.0,0.0,0.0,0.0,0.0,3.0591,3.1915,0.0,0.0,0.0,0.0,0.0,0.0,0.0,0.0,3.3846,0.0,0.0,0.0,0.0,0.0,0.0,0.0,0.0,0.0,0.0,0.0,0.0,0.0,0.0,0.0,0.0,0.0,0.0,0.0,0.0,0.0,0.0,0.0,0.0,0.0,0.0,0.0,0.0,0.0,0.0,0.0,0.0,0.0,0.0,0.0,0.0,0.0,0.0,0.0,0.0,0.0,0.0,0.0,0.0,0.0,0.0,0.0,0.0,0.0,0.0,0.0,0.0,0.0,0.0,0.0,2.7099,2.9967,3.2034,3.3305,3.4054,3.452,3.4697,3.3762,3.2643,0.0,0.0,0.0,0.0,0.0,0.0,0.0,0.0,0.0,0.0,0.0,0.0,0.0,0.0,0.0,0.0,0.0,0.0,0.0,0.0,0.0,0.0,0.0,0.0,0.0,0.0,0.0,0.0,0.0,0.0,0.0,0.0,0.0,0.0,0.0,0.0,0.0,0.0,0.0,0.0,3.1595,3.305,3.3519,0.0,0.0,0.0,0.0,0.0,0.0,3.6995,3.6114,0.0,0.0,0.0,0.0,0.0,0.0,0.0,0.0,0.0,0.0,0.0,0.0,0.0,0.0,0.0,0.0,0.0,0.0,0.0,0.0,0.0,0.0,0.0,0.0,0.0,0.0,0.0,0.0,0.0,0.0,0.0,0.0,0.0,0.0,0.0,0.0,0.0,0.0,0.0,0.0,0.0,0.0,0.0,0.0,0.0,0.0,0.0,0.0,0.0,0.0,0.0,0.0,0.0,0.0,0.0,2.7916,3.0802,3.2895,3.4018,3.474,3.51,3.5009,3.3945,3.2716,0.0,0.0,0.0,0.0,0.0,0.0,0.0,0.0,0.0,0.0,0.0,0.0,0.0,0.0,0.0,0.0,0.0,0.0,0.0,0.0,0.0,0.0,0.0,0.0,0.0,0.0,0.0,0.0,0.0,0.0,0.0,0.0,0.0,0.0,0.0,0.0,0.0,0.0,0.0,0.0,0.0,3.4168,3.5165,3.6016,0.0,0.0,0.0,0.0,4.0012,3.936,0.0,0.0,0.0,0.0,0.0,0.0,0.0,0.0,0.0,0.0,0.0,0.0,0.0,0.0,0.0,0.0,0.0,0.0,0.0,0.0,0.0,0.0,0.0,0.0,0.0,0.0,0.0,0.0,0.0,0.0,0.0,0.0,0.0,0.0,0.0,0.0,0.0,0.0,0.0,0.0,0.0,0.0,0.0,0.0,0.0,0.0,0.0,0.0,0.0,0.0,0.0,0.0,0.0,0.0,0.0,0.0,2.9643,3.1649,3.3233,3.4397,3.5139,3.5375,3.5027,3.4202,3.301,0.0,0.0,0.0,0.0,0.0,0.0,0.0,0.0,0.0,0.0,0.0,0.0,0.0,0.0,0.0,0.0,0.0,0.0,0.0,0.0,0.0,0.0,0.0,0.0,0.0,0.0,0.0,0.0,0.0,0.0,0.0,0.0,0.0,0.0,0.0,0.0,0.0,0.0,0.0,0.0,0.0,3.6199,3.6832,3.8475,3.9744,0.0,0.0,4.0881,4.1492,4.074,0.0,0.0,0.0,0.0,0.0,0.0,0.0,0.0,0.0,0.0,0.0,0.0,0.0,0.0,0.0,0.0,0.0,0.0,0.0,0.0,0.0,0.0,0.0,0.0,0.0,0.0,0.0,0.0,0.0,0.0,0.0,0.0,0.0,0.0,0.0,0.0,0.0,0.0,0.0,0.0,0.0,0.0,0.0,0.0,0.0,0.0,0.0,0.0,0.0,0.0,0.0,0.0,0.0,0.0,0.0,2.728,3.0273,3.214,3.3607,3.483,3.5522,3.5669,3.5045,3.4458,3.3395,0.0,0.0,0.0,0.0,0.0,0.0,0.0,0.0,0.0,0.0,0.0,0.0,0.0,0.0,0.0,0.0,0.0,0.0,0.0,0.0,0.0,0.0,0.0,0.0,0.0,0.0,0.0,0.0,0.0,0.0,0.0,0.0,0.0,0.0,0.0,0.0,0.0,0.0,0.0,0.0,0.0,0.0,3.8216,3.9907,0.0,0.0,0.0,4.2871,4.3579,0.0,0.0,0.0,0.0,0.0,0.0,0.0,0.0,0.0,0.0,0.0,0.0,0.0,0.0,0.0,0.0,0.0,0.0,0.0,0.0,0.0,0.0,0.0,0.0,0.0,0.0,0.0,0.0,0.0,0.0,0.0,0.0,0.0,0.0,0.0,0.0,0.0,0.0,0.0,0.0,0.0,0.0,0.0,0.0,0.0,0.0,0.0,0.0,0.0,0.0,0.0,0.0,0.0,0.0,0.0,0.0,0.0,3.0941,3.2615,3.4036,3.5175,3.5851,3.5889,3.5192,3.4678,0.0,0.0,0.0,0.0,0.0,0.0,0.0,0.0,0.0,0.0,0.0,0.0,0.0,0.0,0.0,0.0,0.0,0.0,0.0,0.0,0.0,0.0,0.0,0.0,0.0,0.0,0.0,2.2236,0.0,0.0,0.0,0.0,0.0,0.0,0.0,0.0,0.0,0.0,0.0,0.0,0.0,0.0,3.7275,3.9784,4.1314,4.2753,0.0,0.0,4.4625,4.5221,4.4257,4.2949,0.0,0.0,0.0,0.0,0.0,0.0,0.0,0.0,0.0,0.0,0.0,0.0,0.0,0.0,0.0,0.0,0.0,0.0,0.0,0.0,0.0,0.0,0.0,0.0,0.0,0.0,0.0,0.0,0.0,0.0,0.0,0.0,0.0,0.0,0.0,0.0,0.0,0.0,0.0,0.0,0.0,0.0,0.0,0.0,0.0,0.0,0.0,0.0,0.0,0.0,0.0,0.0,0.0,0.0,0.0,3.1959,3.3287,3.445,3.5541,3.5999,3.5999,3.5595,3.4807,3.3835,0.0,0.0,0.0,0.0,0.0,0.0,0.0,0.0,0.0,0.0,0.0,0.0,0.0,0.0,0.0,0.0,0.0,0.0,0.0,0.0,0.0,0.0,0.0,0.0,0.0,0.0,0.0,0.0,0.0,0.0,0.0,0.0,0.0,0.0,0.0,0.0,0.0,0.0,0.0,0.0,0.0,3.8947,4.1822,4.3211,4.426,0.0,0.0,4.5774,4.5798,4.4933,4.3897,4.3055,0.0,0.0,0.0,0.0,0.0,0.0,0.0,0.0,0.0,0.0,0.0,0.0,0.0,0.0,0.0,0.0,0.0,0.0,0.0,0.0,0.0,0.0,0.0,0.0,0.0,0.0,0.0,0.0,0.0,0.0,0.0,0.0,0.0,0.0,0.0,0.0,0.0,0.0,0.0,0.0,0.0,0.0,0.0,0.0,0.0,0.0,0.0,0.0,0.0,0.0,0.0,0.0,0.0,2.9474,3.2505,3.3732,3.4812,3.5888,3.6127,3.6017,3.5632,3.5302,3.4587,0.0,0.0,0.0,0.0,0.0,0.0,0.0,0.0,0.0,0.0,0.0,0.0,0.0,0.0,0.0,0.0,0.0,0.0,0.0,0.0,0.0,0.0,0.0,0.0,0.0,0.0,0.0,0.0,2.5968,2.6333,2.6353,0.0,0.0,0.0,0.0,0.0,0.0,0.0,0.0,0.0,0.0,3.9797,4.2225,4.4007,0.0,0.0,4.6634,4.6776,4.6463,4.6078,4.5462,4.4472,4.3107,0.0,0.0,0.0,0.0,0.0,0.0,0.0,0.0,0.0,0.0,0.0,0.0,0.0,0.0,0.0,0.0,0.0,0.0,0.0,0.0,0.0,0.0,0.0,0.0,0.0,0.0,0.0,0.0,0.0,0.0,0.0,0.0,0.0,0.0,0.0,0.0,0.0,0.0,0.0,0.0,0.0,0.0,0.0,0.0,0.0,0.0,0.0,0.0,0.0,0.0,0.0,0.0,2.9996,3.3124,3.4019,3.5085,3.6384,3.6384,3.6256,3.5999,3.5852,3.5284,0.0,0.0,0.0,0.0,0.0,0.0,0.0,0.0,0.0,0.0,0.0,0.0,0.0,0.0,0.0,0.0,0.0,0.0,0.0,0.0,0.0,0.0,0.0,0.0,0.0,0.0,0.0,0.0,2.7068,2.7196,2.6811,0.0,0.0,0.0,0.0,0.0,0.0,0.0,0.0,0.0,0.0,4.0625,4.3202,4.4914,4.6347,4.748,4.77,4.7593,4.7233,4.7064,4.6631,4.5742,0.0,0.0,0.0,0.0,0.0,0.0,0.0,0.0,0.0,0.0,0.0,0.0,0.0,0.0,0.0,0.0,0.0,0.0,0.0,0.0,0.0,0.0,0.0,0.0,0.0,0.0,0.0,0.0,0.0,0.0,2.0341,0.0,0.0,0.0,0.0,0.0,0.0,0.0,0.0,0.0,0.0,0.0,0.0,0.0,0.0,0.0,0.0,0.0,0.0,0.0,0.0,0.0,0.0,3.053,3.3783,3.4306,3.523,3.6694,3.6824,3.6806,3.6787,3.6402,3.5815,3.5009,0.0,0.0,0.0,0.0,0.0,0.0,0.0,0.0,0.0,0.0,0.0,0.0,0.0,0.0,0.0,0.0,0.0,0.0,0.0,0.0,0.0,0.0,0.0,0.0,0.0,0.0,2.7711,2.7803,2.7656,0.0,0.0,0.0,0.0,0.0,0.0,0.0,0.0,0.0,0.0,3.8692,4.1492,4.5247,4.6204,4.7143,4.8731,4.8579,4.8267,4.8243,4.7834,4.7305,0.0,0.0,0.0,0.0,0.0,0.0,0.0,0.0,0.0,0.0,0.0,0.0,0.0,0.0,0.0,0.0,0.0,0.0,0.0,0.0,0.0,0.0,0.0,0.0,0.0,0.0,0.0,2.3308,2.3142,0.0,0.0,0.0,0.0,0.0,0.0,0.0,0.0,0.0,0.0,0.0,2.92,2.9573,0.0,0.0,0.0,0.0,0.0,0.0,0.0,0.0,0.0,0.0,0.0,0.0,3.1711,3.3854,3.4776,3.5723,3.673,3.6842,3.6952,3.7133,3.6842,3.6127,3.5064,0.0,0.0,0.0,0.0,0.0,0.0,0.0,0.0,0.0,0.0,0.0,0.0,0.0,0.0,0.0,0.0,0.0,0.0,0.0,0.0,0.0,0.0,0.0,0.0,0.0,2.8388,0.0,0.0,0.0,0.0,0.0,0.0,0.0,0.0,0.0,0.0,0.0,3.4964,3.7296,4.017,4.2795,4.4914,4.6539,4.7811,0.0,0.0,0.0,0.0,0.0,0.0,0.0,0.0,0.0,0.0,0.0,0.0,0.0,0.0,4.1966,3.9489,3.9056,3.9056,3.9056,0.0,0.0,0.0,0.0,0.0,0.0,0.0,0.0,0.0,0.0,0.0,0.0,0.0,0.0,2.596,0.0,2.5422,0.0,0.0,0.0,0.0,0.0,0.0,0.0,0.0,3.1368,3.1731,3.1439,3.184,3.1819,0.0,3.1032,2.9722,0.0,0.0,0.0,0.0,0.0,0.0,0.0,0.0,3.2603,3.4231,3.5267,3.6219,3.7007,3.7173,3.7374,3.7613,3.7246,3.6531,3.5467,3.455,3.3431,0.0,0.0,0.0,0.0,0.0,0.0,0.0,0.0,0.0,0.0,0.0,0.0,0.0,0.0,0.0,0.0,0.0,0.0,0.0,0.0,0.0,0.0,0.0,2.9599,0.0,0.0,0.0,0.0,0.0,0.0,0.0,0.0,0.0,3.1134,3.3562,3.6123,3.8345,4.1065,4.3495,4.5405,0.0,0.0,0.0,0.0,0.0,0.0,0.0,4.9638,4.9638,4.9517,4.9157,4.8435,4.7762,4.7233,4.704,0.0,0.0,4.2856,4.2327,4.2327,4.2327,4.3024,4.3686,4.3808,4.4671,4.5503,0.0,0.0,0.0,0.0,0.0,0.0,0.0,0.0,2.8013,2.8593,0.0,2.8163,0.0,0.0,0.0,0.0,0.0,3.0429,0.0,0.0,3.3233,3.3411,3.3393,3.3749,3.3764,3.3402,3.2987,3.2571,3.2016,2.9923,0.0,0.0,0.0,0.0,0.0,0.0,3.3106,3.4937,3.5834,3.6622,3.7393,3.7796,3.7998,3.7998,3.7631,3.7062,3.6292,3.5834,3.4899,3.3358,3.2111,0.0,0.0,0.0,0.0,0.0,0.0,0.0,0.0,0.0,0.0,0.0,0.0,0.0,0.0,0.0,0.0,0.0,0.0,0.0,0.0,3.0607,0.0,0.0,0.0,0.0,0.0,0.0,0.0,0.0,0.0,0.0,3.2592,3.4602,3.6917,3.9391,0.0,0.0,0.0,0.0,4.9619,5.1289,5.1082,5.0936,5.1417,5.1081,5.0744,5.0744,0.0,0.0,5.0119,4.995,4.9758,4.9277,4.8796,4.793,4.6415,4.5982,4.5886,4.591,4.6319,4.6906,4.7215,4.7857,4.8666,3.1565,0.0,0.0,0.0,0.0,3.0909,3.1115,3.0995,3.1478,3.1792,3.1825,3.1408,0.0,0.0,0.0,0.0,0.0,0.0,3.4073,3.4504,3.5374,3.5611,3.5394,3.5467,3.5486,3.5358,3.4974,3.4573,3.4171,3.3244,3.1842,3.0167,0.0,0.0,0.0,0.0,3.4333,3.543,3.6237,3.6897,3.7411,3.7796,3.8016,3.8016,3.7906,3.7613,3.7099,3.6402,3.5705,3.4954,3.3505,0.0,0.0,0.0,0.0,0.0,0.0,0.0,0.0,0.0,0.0,0.0,0.0,0.0,0.0,0.0,0.0,0.0,0.0,0.0,3.1799,3.1763,3.1561,0.0,0.0,0.0,0.0,0.0,0.0,0.0,0.0,0.0,3.4957,3.6393,3.7904,0.0,0.0,4.478,4.6507,4.8384,4.9994,5.1087,5.1339,0.0,0.0,5.1922,5.1826,5.1826,5.197,5.1946,5.1634,5.1586,5.1537,5.1369,5.1249,5.0984,5.0479,4.8868,4.7714,4.769,4.8315,4.9008,4.9125,4.9878,5.0563,3.4791,3.3893,3.3376,3.2862,3.2615,3.3215,3.3303,3.3124,3.3569,3.3928,3.4144,3.3821,3.3714,3.3804,3.3625,0.0,0.0,0.0,3.5903,3.6067,3.6691,3.6858,3.6696,3.6696,3.6696,3.6677,3.6457,3.6127,3.5669,3.5485,3.4536,3.3048,0.0,0.0,3.3688,3.4477,3.521,3.5852,3.6806,3.7429,3.7668,3.8053,3.8255,3.8273,3.8273,3.8071,3.7668,3.7191,3.6586,3.587,3.4788,3.367,0.0,0.0,0.0,0.0,0.0,0.0,0.0,0.0,0.0,0.0,0.0,2.7618,2.8315,0.0,0.0,0.0,3.1873,3.2716,3.3046,3.301,0.0,0.0,0.0,0.0,0.0,0.0,0.0,3.3431,3.3908,3.4731,3.622,3.7628,3.8876,3.9963,4.2562,4.4857,4.6301,0.0,5.0011,5.1048,5.1656,5.2175,5.2851,5.2954,5.3029,5.3461,5.3534,5.3317,5.2932,5.2884,5.2764,5.2403,5.2283,5.2283,5.2283,5.0936,4.9878,4.9878,5.0359,5.0792,5.0816,5.1365,5.1915,3.7352,3.7224,3.5448,3.4686,3.4758,3.4758,3.4756,3.4729,3.4747,3.5381,3.633,3.5592,3.5704,3.633,3.5969,0.0,3.6366,3.6764,3.706,3.7521,3.7558,3.7594,3.7613,3.7613,3.7594,3.7576,3.7539,3.7319,3.6858,3.6897,3.6696,3.6311,3.4844,3.4257,3.4623,3.5339,3.5907,3.6311,3.7429,3.8034,3.8071,3.8438,3.864,3.864,3.864,3.8377,3.8089,3.8034,3.7503,3.6402,3.5944,3.5027,3.356,0.0,0.0,0.0,0.0,0.0,0.0,0.0,0.0,0.0,0.0,0.0,0.0,0.0,0.0,3.2771,3.3872,0.0,3.4037,3.433,0.0,0.0,0.0,3.3468,3.3468,3.3468,3.3908,3.4973,0.0,0.0,3.6824,3.8287,3.9624,4.0432,4.2342,4.4336,4.6068,4.8079,4.9882,5.1185,5.2003,5.2854,5.3713,5.3852,5.4155,5.5049,5.5385,5.4952,5.4159,5.3942,5.3558,5.2836,5.2548,5.2596,5.2548,5.2572,5.2524,5.2499,5.2427,5.2379,5.2379,5.2768,5.3108,3.7352,3.7393,3.6932,3.6709,3.6691,3.6691,3.6688,3.6685,3.6685,3.6871,3.7129,3.6944,3.6962,3.7129,3.7038,3.7038,3.7148,3.7517,3.7943,3.8365,3.8658,3.897,3.9263,3.9263,3.9098,3.8805,3.8493,3.8144,3.7723,3.7429,3.7374,3.7539,3.6897,3.6457,3.6274,3.6457,3.6751,3.7136,3.7723,3.8163,3.8493,3.8505,3.864,3.864,3.864,3.8603,3.8414,3.8181,3.7888,3.7594,3.6916,3.6219,3.5522,3.444,0.0,0.0,0.0,0.0,0.0,0.0,0.0,0.0,0.0,3.1212,3.2404,0.0,3.4367,0.0,3.543,3.5742,3.565,3.5724,0.0,0.0,3.5504,3.5504,3.5504,3.5485,3.5724,3.6329,3.6494,3.6842,3.7631,3.8632,3.9629,4.0404,4.2624,4.47,4.6127,4.8158,4.9994,5.1209,5.2143,5.3069,5.3905,5.4348,5.4735,5.5284,5.5409,5.5289,5.5073,5.5025,5.4928,5.4688,5.464,5.464,5.4592,5.4664,5.464,5.4592,5.4015,5.3461,5.3461,5.4138,5.4844,3.7979,3.7961,3.7961,3.7961,3.7943,3.7594,3.7521,3.7686,3.7686,3.7796,3.7961,3.7883,3.8053,3.8218,3.8236,3.8328,3.8511,3.8731,3.8951,3.919,3.941,3.963,3.9913,3.9913,3.9803,3.9502,3.9281,3.9061,3.8823,3.8603,3.8621,3.8823,3.8603,3.8401,3.8163,3.7814,3.7759,3.7961,3.853,3.8951,3.9153,3.9006,3.8896,3.8896,3.8731,3.864,3.864,3.842,3.8199,3.8016,3.7594,3.7099,3.6512,3.5852,3.4862,0.0,0.0,0.0,0.0,0.0,0.0,0.0,0.0,0.0,0.0,0.0,3.5999,3.6384,3.6787,3.6934,3.6769,3.6751,3.6751,3.6751,3.6751,3.6751,3.6751,3.6751,3.6989,3.7499,3.7631,3.7943,3.8713,3.9424,4.0042,4.0696,4.2558,4.424,4.5643,4.7437,4.9183,5.0485,5.1764,5.3072,5.4209,5.4862,5.5241,5.5478,5.5533,5.5564,5.5482,5.5512,5.544,5.538,5.5385,5.5385,5.5385,5.5385,5.5385,5.5337,5.5145,5.4832,5.4592,5.4977,5.5487,3.8786,3.8786,3.8805,3.8786,3.8731,3.8034,3.7906,3.8181,3.8218,3.8456,3.8786,3.8786,3.8988,3.93,3.9318,3.9502,3.9913,3.9913,3.995,4.0005,4.0005,4.0024,4.0079,4.0079,4.006,4.0005,4.0005,3.9968,3.9913,3.9913,3.995,4.0005,3.995,3.995,3.9968,3.9226,3.886,3.8805,3.9483,3.9913,3.9913,3.9502,3.9318,3.93,3.897,3.8805,3.8786,3.875,3.8505,3.8273,3.8199,3.7833,3.7118,3.6986,3.6366,0.0,3.4715,0.0,0.0,0.0,0.0,0.0,0.0,0.0,0.0,3.6512,3.7374,3.7704,3.8053,3.8108,3.7759,3.7741,3.7741,3.7741,3.7741,3.7741,3.7741,3.7741,3.8016,3.8731,3.8786,3.908,3.9766,4.0295,4.0644,4.1069,4.2124,4.3389,4.4684,4.6432,4.8177,4.927,5.1019,5.2855,5.4324,5.5064,5.5402,5.5506,5.554,5.5607,5.5581,5.5589,5.5604,5.5512,5.5596,5.5572,5.5602,5.565,5.5626,5.5674,5.5987,5.6059,5.5626,5.5602,5.5602,3.9612,3.9612,3.9612,3.9612,3.9612,3.9447,3.9245,3.9025,3.9355,3.9619,3.9612,3.9612,3.9648,3.9722,3.9803,3.9858,3.9913,3.9913,4.0115,4.0363,4.0345,4.0529,4.0906,4.0924,4.0759,4.0446,4.0363,4.0262,3.9913,3.9913,4.0097,4.0409,4.0097,4.0097,4.0327,0.0,0.0,0.0,3.984,3.9913,3.9913,3.984,3.9803,3.9803,3.9748,0.0,3.9593,3.93,3.9245,3.9546,3.9171,0.0,0.0,0.0,0.0,0.0,0.0,0.0,0.0,0.0,0.0,0.0,3.7081,3.7301,3.7466,3.8566,3.938,3.9373,3.9527,3.9465,3.9472,3.9392,3.9472,3.9472,3.9373,3.9472,3.9472,3.9355,3.9465,3.9575,3.9612,3.9748,3.9932,4.0207,4.063,4.1035,4.1628,4.248,4.3719,4.6022,4.7838,4.8664,5.0687,5.2645,5.3847,5.4043,5.4416,5.4986,5.523,5.5264,5.555,5.5607,5.5791,5.6025,5.6256,5.6287,5.6605,5.6708,5.6636,5.6708,5.678,5.6708,5.6203,5.6419,5.6708,3.9913,0.0,3.9913,3.9913,0.0,4.0152,4.0033,3.985,3.9932,3.9913,3.9913,3.9913,4.0042,4.0143,4.0143,4.0336,4.0437,4.0538,4.0565,4.0749,4.0749,4.0859,4.106,4.106,4.095,4.0767,4.0767,4.074,4.0538,4.052,4.063,4.0851,4.063,4.063,4.0832,4.0767,4.0657,4.052,4.0538,4.0437,4.052,4.0253,4.0244,4.0143,0.0,0.0,0.0,0.0,0.0,0.0,0.0,0.0,0.0,0.0,0.0,3.8071,3.7938,3.7833,3.7448,3.7411,3.7668,3.8291,3.9061,3.9336,3.8951,3.9685,4.0152,3.995,4.0097,4.0152,3.995,3.9913,3.9913,3.9913,3.9913,3.9913,3.9913,3.9913,4.0005,4.0207,4.0143,4.0299,4.0501,4.062,4.0832,4.1083,4.1481,4.1946,4.2754,4.4655,4.653,4.8421,5.0162,5.1725,5.2581,5.2747,5.2995,5.3573,5.3738,5.4007,5.4638,5.4882,5.5206,5.5658,5.606,5.6486,5.6646,5.6861,5.7021,5.7021,5.7021,5.6949,5.6684,5.6828,5.7021,4.0134,4.0134,4.0134,4.0134,4.0171,4.052,4.0584,4.0547,0.0,0.0,0.0,4.0134,4.0336,4.0565,4.0565,4.0749,4.106,4.106,4.106,4.106,4.106,4.106,4.106,4.106,4.106,4.106,4.106,4.106,4.106,4.106,4.106,4.106,4.106,4.106,4.106,4.106,4.106,4.106,4.106,4.106,4.106,4.073,4.0584,4.0565,4.0318,4.0134,4.0134,4.0079,4.006,4.0134,4.006,4.0042,4.0024,4.0042,3.9777,3.9373,3.9336,3.9208,3.8878,3.8841,3.9061,3.952,4.062,4.0932,4.0207,4.051,4.0639,4.0391,4.0667,4.0657,4.0391,4.0354,4.0354,4.0354,4.0354,4.0373,4.0373,4.0354,4.0556,4.073,4.084,4.0914,4.1225,4.1292,4.1255,4.1236,4.1415,4.163,4.1919,4.333,4.5553,4.794,4.9196,5.0187,5.0879,5.117,5.1402,5.1834,5.2028,5.2387,5.3131,5.3692,5.423,5.4905,5.5577,5.606,5.6325,5.6646,5.6941,5.6941,5.7021,5.7021,5.7021,5.7021,5.7021,4.0895,4.0979,4.0979,4.0895,4.0895,4.095,4.1053,4.0969,4.0998,4.0895,4.0979,4.0895,4.0932,4.0987,4.0987,4.1005,4.1145,4.106,4.106,0.0,4.106,4.106,4.106,4.106,4.106,4.106,4.1079,4.106,4.106,4.1079,4.106,4.1079,4.106,4.1079,4.106,4.106,4.106,4.106,4.106,4.106,4.1145,4.1005,4.0987,4.1053,4.0914,4.0895,4.0979,4.0565,4.0529,4.0942,4.0565,4.0382,4.0382,4.0382,4.0198,3.9877,3.984,3.974,3.9766,3.9685,4.0079,4.0749,4.161,4.1757,4.1005,4.1592,4.1996,4.1941,4.1941,4.2014,4.1941,4.1867,4.1831,4.1886,4.1904,4.1922,4.1849,4.1849,4.1849,4.1922,4.2032,4.1977,4.1996,4.1776,4.1592,4.1537,4.1431,4.1294,4.1854,4.3246,4.4951,4.6461,4.7482,4.8213,4.89,4.9251,4.9707,5.0011,5.04,5.0992,5.1861,5.2375,5.3093,5.4252,5.4661,5.5149,5.606,5.6382,5.6622,5.6941,5.7021,5.7021,5.7021,5.7021,5.7021,4.106,4.1097,4.1299,4.1409,4.1409,4.1629,4.1721,4.1721,4.1721,4.1549,4.1163,4.106,4.106,4.1163,4.1299,4.1409,4.1409,4.1629,4.1721,4.1721,4.1721,4.1721,4.1721,4.1721,4.1721,4.1721,4.1721,4.1721,4.1721,4.1721,4.1721,4.1721,4.1721,4.1721,4.1702,4.1519,4.1409,4.139,4.117,4.106,4.106,4.106,4.106,4.106,4.106,4.106,4.1145,4.0877,4.0877,4.1126,4.0877,4.0895,4.1115,4.1134,4.1152,4.1152,4.117,4.1152,4.1255,4.117,4.1317,4.1702,4.2252,4.2454,4.2087,4.2179,4.2271,4.2271,4.2271,4.2271,4.2271,4.2271,4.2271,4.2271,4.2271,4.2271,4.2271,4.2271,4.2271,4.2271,4.2271,4.2271,4.2271,4.2124,4.1904,4.1721,4.1317,4.1229,4.1378,4.2283,4.3472,4.4971,4.6108,4.6837,4.7526,4.8046,4.8522,4.8935,4.9188,4.9692,5.0465,5.1205,5.1961,5.2868,5.3655,5.4661,5.5577,5.606,5.6462,5.6861,5.7021,5.7021,5.7021,5.7021,5.7021,4.1262,4.1372,4.1684,4.1812,4.1849,4.2142,4.2271,4.2271,4.2271,4.1922,4.1475,4.1335,4.1335,4.1372,4.1684,4.1831,4.1867,4.2142,4.2271,4.2271,4.2271,4.2271,4.2271,4.2271,4.2271,4.2271,4.2271,4.2271,4.2271,4.2271,4.2271,4.2271,4.2271,4.2271,4.2271,4.1977,4.1831,4.1794,4.15,4.1244,4.1079,4.106,4.106,4.106,4.106,4.106,4.1145,4.1236,4.1207,4.1207,4.128,4.1482,4.1794,4.1812,4.1959,4.2234,4.2271,4.2271,4.2289,4.2362,4.2417,4.2417,4.2784,4.3004,4.2986,4.2729,4.2546,4.2546,4.2582,4.2582,4.2601,4.2582,4.2546,4.2564,4.2546,4.2601,4.2564,4.2546,4.2546,4.2546,4.2546,4.2582,4.2546,4.2472,4.2216,4.1757,4.139,4.1189,4.1163,4.1378,4.2199,4.3472,4.4576,4.5469,4.6386,4.6781,4.7175,4.7547,4.7921,4.8421,4.9236,5.0115,5.1083,5.1765,5.2995,5.4089,5.4824,5.5634,5.6301,5.6702,5.6941,5.7021,5.7021,5.7021,5.7021,4.1831,4.2142,4.2197,4.2234,4.2252,4.2289,4.2307,4.2307,4.2289,4.2252,4.2179,4.2179,4.2161,4.2161,4.2197,4.2216,4.2216,4.2271,4.2307,4.2307,4.2271,4.2289,4.2326,4.2307,4.2289,4.2307,4.2326,4.2362,4.2344,4.2326,4.2289,4.2271,4.2271,4.2307,4.2289,4.2252,4.2216,4.2216,4.2179,4.1812,4.1115,4.106,4.106,4.106,4.1079,4.106,4.1115,4.1427,4.1629,4.1666,4.1959,4.2179,4.2216,4.2216,4.2234,4.2307,4.2289,4.2271,4.2307,4.2619,4.2821,4.2839,4.3188,4.3408,4.3408,4.3389,4.3389,4.3334,4.3353,4.3316,4.3371,4.3334,4.3298,4.3261,4.3298,4.3389,4.3316,4.3389,4.3389,4.3389,4.3279,4.3371,4.3261,4.2986,4.2509,4.1904,4.1666,4.1464,4.1189,4.1163,4.1397,4.2105,4.3081,4.4033,4.4651,4.5002,4.5533,4.5636,4.6432,4.7277,4.8046,4.9091,5.021,5.1347,5.2165,5.3101,5.4252,5.5149,5.5876,5.6462,5.6782,5.7021,5.7021,5.7021,5.7021,4.2124,4.2289,4.2527,4.2766,4.2986,4.3004,4.3004,4.3004,4.2986,4.2986,4.3004,4.3004,4.2729,4.2307,4.2509,4.2619,4.2637,4.2876,4.3004,4.3004,4.3004,4.3004,4.3004,4.2986,4.3004,4.3004,4.3004,4.3004,4.3004,4.2986,4.3004,4.3004,4.3004,4.3004,4.2968,4.2747,4.2637,4.2619,4.2399,4.2106,4.1831,4.1776,4.1776,4.1776,4.1776,4.1776,4.1794,4.1959,4.2032,4.2051,4.2197,4.2381,4.2619,4.2619,4.2729,4.2968,4.3004,4.2986,4.3004,4.3151,4.3243,4.3243,4.3408,4.3481,4.3481,4.3481,4.3481,4.3481,4.3481,4.3481,4.3481,4.3481,4.3481,4.3481,4.3481,4.3481,4.3481,4.3481,4.3481,4.3481,4.3481,4.3481,4.3444,4.3133,4.2766,4.2344,4.2032,4.1647,4.1445,4.1225,4.1313,4.1695,4.2466,4.3131,4.3876,4.4616,4.4902,4.5146,4.5714,4.6408,4.7337,4.8169,4.9385,5.0758,5.158,5.252,5.3783,5.4742,5.5553,5.6141,5.6702,5.7021,5.7021,5.7021,5.7021,4.2509,4.2656,4.2913,4.3224,4.3481,4.3481,4.3481,4.3481,4.3481,4.3481,4.3481,4.3481,4.3169,4.2711,4.2913,4.3041,4.3078,4.3353,4.3481,4.3481,4.3481,4.3481,4.3481,4.3481,4.3481,4.3481,4.3463,4.3481,4.3481,4.3481,4.3481,4.3481,4.3481,4.3481,4.3463,4.3169,4.3041,4.3023,4.2747,4.2619,4.2619,4.2619,4.2509,4.2307,4.2271,4.2271,4.2271,4.2381,4.2436,4.2436,4.2546,4.2747,4.3004,4.3041,4.3169,4.3444,4.3481,4.3481,4.3481,4.3481,4.3481,4.3481,4.3481,4.3481,4.3481,4.3481,4.3481,4.3481,4.3481,4.3481,4.3481,4.3481,4.3481,4.3481,4.3481,4.3481,4.3481,4.3481,4.3481,4.3481,4.3481,4.3481,4.3444,4.3224,4.3004,4.2784,4.2381,4.1941,4.1849,4.161,4.1579,4.188,4.2237,4.2797,4.3458,4.4218,4.4713,4.5038,4.5417,4.6209,4.6936,4.783,4.8752,5.0125,5.0991,5.1914,5.3101,5.4089,5.5334,5.6141,5.6702,5.6941,5.7021,5.7021,5.7021,4.3078,4.3408,4.3444,4.3463,4.3499,4.3499,4.3499,4.3536,4.3536,4.3518,4.3554,4.3518,4.3481,4.3408,4.3426,4.3444,4.3463,4.3481,4.3481,4.3481,4.3481,4.3481,4.3481,4.3481,4.3481,4.3481,4.3481,4.3481,4.3481,4.3481,4.3481,4.3481,4.3481,4.3481,4.3481,4.3444,4.3444,4.3408,4.3371,4.3389,4.3408,4.3408,4.3041,4.2417,4.2307,4.2344,4.2362,4.2656,4.2839,4.2839,4.3188,4.3426,4.3444,4.3444,4.3463,4.3481,4.3481,4.3481,4.3481,4.3481,4.3481,4.3481,4.3481,4.3481,4.3481,4.3481,4.3481,4.3481,4.3481,4.3481,4.3481,4.3481,4.3481,4.3481,4.3481,4.3481,4.3481,4.3481,4.3481,4.3481,4.3481,4.3481,4.3481,4.3481,4.3261,4.3004,4.2821,4.2656,4.2326,4.2197,4.221,4.2278,4.2586,4.2951,4.3151,4.3935,4.442,4.4744,4.5475,4.6365,4.6992,4.7813,4.8722,4.9551,5.04,5.1328,5.2331,5.3618,5.4974,5.597,5.6566,5.6885,5.6941,5.7021,5.7021,4.3353,4.3481,4.3481,4.3481,4.3518,4.3756,4.3866,4.3903,4.4141,4.4251,4.4196,4.3995,4.3866,4.3866,4.3609,4.3481,4.3481,4.3481,4.3481,4.3481,4.3481,4.3481,4.3481,4.3481,4.3481,4.3481,4.3481,4.3481,4.3481,4.3481,4.3481,4.3481,4.3481,4.3481,4.3481,4.3481,4.3481,4.3481,4.3481,4.3481,4.3481,4.3481,4.3334,4.3078,4.3059,4.3059,4.3059,4.3206,4.3279,4.3279,4.3426,4.3481,4.3481,4.3481,4.3481,4.3481,4.3481,4.3481,4.3481,4.3481,4.3481,4.3481,4.3481,4.3481,4.3481,4.3481,4.3481,4.3481,4.3481,4.3481,4.3481,4.3481,4.3481,4.3481,4.3481,4.3481,4.3481,4.3481,4.3481,4.3481,4.3481,4.3481,4.3481,4.3481,4.3426,4.3279,4.3041,4.2839,4.2674,4.2472,4.2326,4.2376,4.2599,4.2937,4.2951,4.3717,4.44,4.4856,4.5405,4.5937,4.6623,4.742,4.8265,4.9144,4.9912,5.1059,5.2159,5.3904,5.5227,5.6266,5.6843,5.6901,5.6941,5.7069,5.7045,4.3481,4.3518,4.3628,4.3683,4.3738,4.4105,4.427,4.4306,4.4545,4.46,4.4453,4.4196,4.4013,4.3866,4.3609,4.3481,4.3481,4.3481,4.3481,4.3481,4.3481,4.3481,4.3481,4.3481,4.3481,4.3481,4.3481,4.3481,4.3481,4.3481,4.3481,4.3481,4.3481,4.3481,4.3481,4.3481,4.3481,4.3481,4.3481,4.3481,4.3481,4.3481,4.3481,4.3481,4.3481,4.3481,4.3481,4.3481,4.3481,4.3481,4.3481,4.3481,4.3481,4.3481,4.3481,4.3481,4.3481,4.3481,4.3481,4.3481,4.3481,4.3481,4.3481,4.3481,4.3481,4.3481,4.3481,4.3481,4.3481,4.3481,4.3481,4.3481,4.3481,4.3481,4.3481,4.3481,4.3481,4.3481,4.3481,4.3481,4.3481,4.3481,4.3481,4.3481,4.3481,4.3481,4.3243,4.3078,4.3023,4.2858,4.2674,4.2674,4.2973,4.3254,4.3354,4.4019,4.4473,4.4875,4.5288,4.5742,4.6398,4.7108,4.7854,4.865,4.9674,5.089,5.2298,5.4103,5.5486,5.662,5.699,5.7028,5.7045,5.7117,5.7141,4.3499,4.3573,4.3921,4.4086,4.4141,4.4508,4.4673,4.4691,4.471,4.4563,4.4343,4.4123,4.3903,4.3609,4.3536,4.3481,4.3481,4.3481,4.3481,4.3481,4.3481,4.3481,4.3481,4.3481,4.3481,4.3481,4.3481,4.3481,4.3481,4.3481,4.3481,4.3481,4.3481,4.3481,4.3481,4.3481,4.3481,4.3481,4.3481,4.3499,4.3499,4.3536,4.3554,4.3536,4.3536,4.3518,4.3499,4.3481,4.3481,4.3481,4.3481,4.3481,4.3481,4.3481,4.3481,4.3481,4.3481,4.3481,4.3481,4.3481,4.3481,4.3481,4.3481,4.3481,4.3481,4.3481,4.3481,4.3481,4.3481,4.3481,4.3481,4.3481,4.3481,4.3481,4.3481,4.3481,4.3481,4.3481,4.3481,4.3481,4.3481,4.3481,4.3481,4.3481,4.3481,4.3481,4.3444,4.3408,4.3389,4.3316,4.3426,4.3408,4.3368,4.3453,4.3778,4.4244,4.453,4.4884,4.5231,4.5647,4.6307,4.6987,4.7421,4.8154,4.9597,5.082,5.252,5.4239,5.5426,5.6425,5.6714,5.7085,5.7338,5.7461,5.7309,4.3903,4.394,4.4325,4.449,4.4545,4.493,4.5113,4.5095,4.5113,4.5021,4.4838,4.4325,4.4013,4.3848,4.3628,4.3481,4.3481,4.3481,4.3481,4.3481,4.3481,4.3481,4.3481,4.3481,4.3481,4.3481,4.3481,4.3481,4.3481,4.3481,4.3481,4.3481,4.3481,4.3481,4.3481,4.3481,4.3481,4.3481,4.3481,4.3609,4.3866,4.3884,4.3903,4.3903,4.3903,4.3793,4.3518,4.3481,4.3481,4.3481,4.3481,4.3481,4.3481,4.3481,4.3481,4.3481,4.3481,4.3481,4.3481,4.3481,4.3481,4.3481,4.3481,4.3481,4.3481,4.3481,4.3481,4.3481,4.3481,4.3481,4.3481,4.3481,4.3518,4.3499,4.3481,4.3481,4.3481,4.3481,4.3481,4.3481,4.3481,4.3481,4.3481,4.3481,4.3481,4.3481,4.3481,4.3481,4.3481,4.3481,4.3481,4.3481,4.3499,4.3499,4.3767,4.3856,4.4081,4.4392,4.4876,4.5255,4.5958,4.6571,4.7007,4.7963,4.9389,5.0893,5.2692,5.4124,5.5221,5.6299,5.6754,5.7231,5.7713,5.7802,5.7653,4.416,4.4343,4.4728,4.4911,4.4966,4.5352,4.5425,4.5315,4.5297,4.515,4.4765,4.4325,4.3995,4.3829,4.3609,4.3499,4.3481,4.3481,4.3481,4.3481,4.3481,4.3481,4.3481,4.3481,4.3481,4.3481,4.3481,4.3481,4.3481,4.3481,4.3481,4.3481,4.3481,4.3481,4.3481,4.3499,4.3554,4.3683,4.3719,4.3903,4.4215,4.4306,4.4306,4.4288,4.416,4.3958,4.3719,4.3591,4.3481,4.3481,4.3481,4.3481,4.3481,4.3481,4.3481,4.3481,4.3481,4.3481,4.3481,4.3481,4.3481,4.3481,4.3481,4.3481,4.3481,4.3481,4.3481,4.3481,4.3481,4.3481,4.3499,4.3646,4.3701,4.3719,4.3573,4.3499,4.3481,4.3481,4.3481,4.3481,4.3481,4.3481,4.3481,4.3481,4.3481,4.3481,4.3481,4.3481,4.3481,4.3481,4.3481,4.3481,4.3499,4.3499,4.3481,4.3589,4.3678,4.3997,4.4352,4.4813,4.5343,4.589,4.6328,4.7826,4.921,5.0476,5.2132,5.347,5.4652,5.5663,5.676,5.7355,5.7751,5.801,5.7969,4.4343,4.4746,4.5168,4.5333,4.537,4.5663,4.559,4.5315,4.5187,4.4783,4.4233,4.405,4.3829,4.3554,4.3499,4.3481,4.3481,4.3481,4.3481,4.3481,4.3481,4.3481,4.3481,4.3481,4.3481,4.3481,4.3481,4.3481,4.3481,4.3481,4.3481,4.3481,4.3481,4.3518,4.3573,4.3536,4.3756,4.4068,4.4123,4.4325,4.4673,4.471,4.471,4.4691,4.4416,4.4178,4.3995,4.3683,4.3481,4.3481,4.3481,4.3481,4.3481,4.3481,4.3481,4.3481,4.3481,4.3481,4.3481,4.3481,4.3481,4.3481,4.3481,4.3481,4.3481,4.3481,4.3481,4.3481,4.3481,4.3518,4.3609,4.3829,4.4031,4.4068,4.3884,4.3683,4.3554,4.3554,4.3573,4.3518,4.3481,4.3481,4.3481,4.3481,4.3481,4.3481,4.3481,4.3481,4.3481,4.3481,4.3481,4.3481,4.3481,4.3481,4.3481,4.3481,4.3589,4.3678,4.4015,4.437,4.4813,4.5255,4.6053,4.7465,4.8682,5.0079,5.1515,5.2843,5.4279,5.5506,5.6427,5.7291,5.7888,5.8201,5.8461,4.4746,4.5168,4.5572,4.5737,4.57,4.5553,4.5407,4.5223,4.4655,4.4325,4.4031,4.3774,4.3609,4.3499,4.3481,4.3481,4.3481,4.3481,4.3481,4.3481,4.3481,4.3481,4.3481,4.3481,4.3481,4.3481,4.3481,4.3481,4.3481,4.3481,4.3481,4.3481,4.3518,4.3664,4.3884,4.3921,4.4141,4.4453,4.4508,4.471,4.5058,4.5132,4.5132,4.5113,4.5003,4.4655,4.4141,4.3701,4.3481,4.3481,4.3481,4.3481,4.3481,4.3481,4.3481,4.3481,4.3481,4.3481,4.3481,4.3481,4.3481,4.3481,4.3481,4.3481,4.3481,4.3499,4.3499,4.3481,4.3499,4.3646,4.3866,4.405,4.4215,4.4453,4.4435,4.4233,4.3976,4.3921,4.3829,4.3573,4.3499,4.3481,4.3481,4.3481,4.3481,4.3481,4.3481,4.3481,4.3481,4.3481,4.3481,4.3481,4.3481,4.3481,4.3481,4.3481,4.3499,4.3499,4.3678,4.3837,4.4282,4.4813,4.5694,4.6966,4.7749,4.8862,5.0666,5.2318,5.379,5.5049,5.6272,5.7102,5.822,5.8803,5.9022,4.5021,4.5572,4.5792,4.5883,4.5847,4.548,4.5205,4.493,4.438,4.3976,4.3811,4.3609,4.3481,4.3481,4.3481,4.3481,4.3481,4.3481,4.3481,4.3481,4.3481,4.3481,4.3481,4.3481,4.3481,4.3481,4.3481,4.3481,4.3481,4.3481,4.3481,4.3536,4.3664,4.3866,4.4068,4.427,4.4526,4.4856,4.4948,4.5132,4.5517,4.5553,4.5553,4.5498,4.5388,4.493,4.416,4.3701,4.3499,4.3481,4.3481,4.3481,4.3481,4.3481,4.3481,4.3481,4.3481,4.3481,4.3481,4.3481,4.3481,4.3481,4.3481,4.3481,4.3536,4.3628,4.3738,4.3756,4.3884,4.4086,4.4288,4.4471,4.4765,4.5113,4.5187,4.4875,4.4196,4.4068,4.3903,4.3628,4.3481,4.3481,4.3481,4.3481,4.3481,4.3481,4.3481,4.3481,4.3481,4.3481,4.3481,4.3481,4.3481,4.3481,4.3481,4.3481,4.3481,4.3499,4.3499,4.3678,4.3926,4.4319,4.5126,4.61,4.6812,4.7883,4.9763,5.1388,5.265,5.3989,5.5488,5.6992,5.8026,5.8988,5.9259,4.5187,4.5883,4.5883,4.5883,4.5828,4.5425,4.5021,4.4655,4.4178,4.3811,4.3573,4.3499,4.3481,4.3481,4.3481,4.3481,4.3481,4.3481,4.3481,4.3481,4.3481,4.3481,4.3481,4.3481,4.3481,4.3481,4.3481,4.3481,4.3481,4.3481,4.3536,4.3646,4.3921,4.4141,4.4361,4.46,4.4948,4.5278,4.5352,4.5498,4.5755,4.5828,4.581,4.5755,4.5333,4.4893,4.4251,4.3774,4.3481,4.3481,4.3481,4.3481,4.3481,4.3481,4.3481,4.3481,4.3481,4.3481,4.3481,4.3481,4.3481,4.3499,4.3536,4.3554,4.3664,4.3921,4.4141,4.4141,4.4471,4.46,4.4783,4.5095,4.5407,4.5682,4.581,4.5315,4.4526,4.4178,4.3995,4.3573,4.3499,4.3481,4.3481,4.3481,4.3481,4.3481,4.3481,4.3481,4.3481,4.3481,4.3481,4.3481,4.3481,4.3481,4.3481,4.3481,4.3481,4.3481,4.3481,4.357,4.3589,4.3967,4.4517,4.5194,4.6,4.7131,4.8705,5.0114,5.1569,5.3187,5.4873,5.6362,5.7573,5.8562,5.904,4.5443,4.5883,4.5883,4.5883,4.5773,4.5113,4.4765,4.46,4.3921,4.3591,4.3499,4.3481,4.3481,4.3481,4.3481,4.3481,4.3481,4.3481,4.3481,4.3481,4.3481,4.3481,4.3481,4.3481,4.3481,4.3481,4.3481,4.3481,4.3481,4.3518,4.3664,4.394,4.4068,4.4416,4.4948,4.5077,4.537,4.57,4.5755,4.5773,4.5847,4.5883,4.5883,4.5828,4.5223,4.4783,4.4471,4.3866,4.3518,4.3481,4.3481,4.3481,4.3481,4.3481,4.3481,4.3481,4.3481,4.3481,4.3481,4.3481,4.3499,4.3554,4.3774,4.3958,4.3995,4.4306,4.4526,4.4563,4.4636,4.4875,4.515,4.5517,4.5737,4.5865,4.5865,4.5663,4.5132,4.4728,4.4233,4.3719,4.3499,4.3481,4.3481,4.3481,4.3481,4.3481,4.3481,4.3481,4.3481,4.3499,4.3481,4.3481,4.3481,4.3499,4.3518,4.3573,4.3646,4.3701,4.3701,4.3719,4.3809,4.3827,4.4376,4.4834,4.5257,4.6533,4.8084,4.9472,5.1025,5.2629,5.4255,5.5816,5.7228,5.8111,5.9012,4.5535,4.5883,4.5883,4.5792,4.5535,4.4948,4.4563,4.4306,4.3774,4.3481,4.3481,4.3481,4.3481,4.3481,4.3481,4.3481,4.3481,4.3481,4.3481,4.3481,4.3481,4.3481,4.3481,4.3481,4.3481,4.3481,4.3481,4.3481,4.3481,4.3518,4.3701,4.4086,4.4251,4.4673,4.526,4.548,4.5663,4.5828,4.5883,4.5883,4.5883,4.5883,4.5883,4.581,4.5297,4.4893,4.4618,4.4105,4.3719,4.3536,4.3481,4.3481,4.3481,4.3481,4.3481,4.3481,4.3481,4.3481,4.3481,4.3499,4.3573,4.3756,4.3976,4.416,4.438,4.4728,4.4948,4.5021,4.515,4.5352,4.5553,4.5718,4.5883,4.5883,4.5883,4.5718,4.5352,4.493,4.4471,4.3884,4.3609,4.3536,4.3481,4.3481,4.3518,4.3518,4.3518,4.3518,4.3499,4.3499,4.3499,4.3481,4.3481,4.3499,4.3554,4.3646,4.3829,4.3958,4.4105,4.416,4.4233,4.4215,4.4251,4.4709,4.5279,4.624,4.7676,4.9026,5.0479,5.2111,5.3701,5.5466,5.6882,5.794,5.8818,4.559,4.5883,4.5828,4.5608,4.526,4.4783,4.4398,4.4068,4.3664,4.3481,4.3481,4.3481,4.3481,4.3481,4.3481,4.3481,4.3481,4.3481,4.3481,4.3481,4.3481,4.3481,4.3481,4.3481,4.3481,4.3481,4.3481,4.3481,4.3481,4.3518,4.3756,4.416,4.4471,4.493,4.537,4.5682,4.5865,4.5883,4.5883,4.5883,4.5883,4.5883,4.5883,4.581,4.548,4.5058,4.4691,4.4251,4.3884,4.3536,4.3481,4.3481,4.3481,4.3481,4.3481,4.3481,4.3481,4.3481,4.3518,4.3573,4.3756,4.4068,4.427,4.4435,4.4783,4.5113,4.5333,4.548,4.5608,4.5792,4.5883,4.5883,4.5883,4.5883,4.5883,4.5737,4.5425,4.5021,4.4618,4.4105,4.3719,4.3499,4.3481,4.3499,4.3518,4.3573,4.3573,4.3609,4.3628,4.3683,4.3774,4.3848,4.3921,4.3958,4.3995,4.4013,4.416,4.4251,4.4435,4.4526,4.4636,4.4673,4.4691,4.4893,4.5464,4.6392,4.7286,4.8604,5.0022,5.1569,5.3277,5.5225,5.6622,5.7831,5.8709,4.5828,4.5865,4.5535,4.5352,4.5187,4.4508,4.416,4.4031,4.3646,4.3499,4.3481,4.3481,4.3499,4.3481,4.3499,4.3499,4.3392,4.3303,4.341,4.341,4.341,4.341,4.3481,4.3481,4.3481,4.3481,4.3481,4.3481,4.3481,4.3518,4.3866,4.4416,4.4618,4.5003,4.5572,4.5865,4.5883,4.5883,4.5883,4.5883,4.5883,4.5883,4.5883,4.5865,4.5535,4.5132,4.4691,4.4306,4.3903,4.3536,4.3499,4.3481,4.3481,4.3481,4.3481,4.3499,4.3536,4.3573,4.3591,4.3829,4.3976,4.4215,4.4636,4.5021,4.526,4.5517,4.5682,4.5755,4.581,4.5883,4.5883,4.5883,4.5883,4.5883,4.5883,4.5847,4.57,4.537,4.4893,4.4343,4.3884,4.3573,4.3683,4.3738,4.3774,4.3884,4.3976,4.4086,4.4196,4.427,4.438,4.4453,4.4526,4.4526,4.4545,4.4526,4.4581,4.46,4.4728,4.4783,4.4911,4.5077,4.5168,4.5316,4.5482,4.6057,4.71,4.8254,4.9676,5.1297,5.3098,5.4961,5.6188,5.7401,5.8539,4.5572,4.5553,4.537,4.5058,4.4636,4.427,4.3958,4.3774,4.3573,4.3481,4.3481,4.3499,4.3303,4.3213,4.3124,4.3034,4.2766,4.2766,4.2855,4.3034,4.3124,4.3303,4.3481,4.3481,4.3481,4.3481,4.3481,4.3481,4.3481,4.3481,4.3921,4.449,4.4673,4.5077,4.57,4.5883,4.5883,4.5883,4.5883,4.5883,4.5883,4.5883,4.5883,4.5828,4.5682,4.5297,4.4746,4.4526,4.4086,4.3628,4.3481,4.3481,4.3481,4.3481,4.3499,4.3536,4.3683,4.3793,4.3866,4.416,4.4471,4.4728,4.5113,4.5388,4.5572,4.5755,4.5883,4.5883,4.5883,4.5883,4.5883,4.5883,4.5883,4.5883,4.5883,4.5883,4.581,4.5517,4.5132,4.4673,4.4251,4.405,4.4123,4.4141,4.4086,4.4196,4.4361,4.4545,4.4728,4.4783,4.4838,4.482,4.4838,4.4838,4.4875,4.4966,4.4985,4.5021,4.5077,4.5132,4.5242,4.5425,4.5535,4.5608,4.5851,4.6019,4.6952,4.8107,4.9564,5.1025,5.265,5.4255,5.5751,5.7056,5.8197,4.5168,4.5168,4.5095,4.4673,4.4123,4.3995,4.3793,4.3536,4.3499,4.341,4.3392,4.3303,4.3034,4.2748,4.2479,4.2299,4.1939,4.1939,4.2209,4.2586,4.2837,4.3034,4.3303,4.3499,4.3481,4.3481,4.3481,4.3481,4.3481,4.3481,4.3903,4.4361,4.46,4.5003,4.559,4.5828,4.5865,4.5883,4.5883,4.5883,4.5883,4.5883,4.5883,4.5883,4.5883,4.5535,4.493,4.4691,4.4306,4.3829,4.3554,4.3481,4.3481,4.3481,4.3536,4.3646,4.3921,4.4068,4.4288,4.4563,4.4911,4.515,4.5352,4.559,4.5755,4.5847,4.5883,4.5883,4.5883,4.5883,4.5883,4.5883,4.5883,4.5883,4.5883,4.5883,4.5828,4.5682,4.5553,4.5113,4.4655,4.4471,4.4508,4.4471,4.4398,4.4636,4.482,4.4966,4.5132,4.5132,4.515,4.5095,4.5077,4.5077,4.5168,4.5352,4.5388,4.5407,4.5498,4.559,4.5682,4.581,4.5847,4.581,4.5828,4.6092,4.699,4.7922,4.9289,5.0661,5.218,5.3722,5.5313,5.6709,5.794,4.4746,4.471,4.438,4.416,4.4031,4.3719,4.3554,4.3499,4.3481,4.3213,4.2927,4.2837,4.2568,4.2029,4.1561,4.1669,4.1669,4.1471,4.1471,4.2029,4.2389,4.2658,4.2927,4.3321,4.341,4.3499,4.3481,4.3481,4.3481,4.3481,4.3719,4.416,4.4526,4.4911,4.5315,4.5645,4.5883,4.5883,4.5883,4.5883,4.5883,4.5883,4.5883,4.5883,4.5847,4.5663,4.5168,4.4856,4.4416,4.4031,4.3664,4.3518,4.3481,4.3481,4.3701,4.3903,4.4086,4.4251,4.46,4.4985,4.5223,4.5425,4.5608,4.581,4.5865,4.5883,4.5883,4.5883,4.5883,4.5883,4.5883,4.5883,4.5883,4.5883,4.5883,4.5883,4.5847,4.581,4.57,4.5627,4.5187,4.4911,4.482,4.4765,4.4746,4.5021,4.526,4.5407,4.5498,4.548,4.548,4.5425,4.5407,4.5407,4.5407,4.559,4.5645,4.5718,4.5792,4.5883,4.5883,4.5883,4.5883,4.5865,4.592,4.6239,4.7047,4.8037,4.9052,5.0297,5.1659,5.3366,5.5049,5.6362,5.7596,4.4141,4.4325,4.416,4.3958,4.3738,4.3554,4.3481,4.341,4.3213,4.3034,4.2748,4.2479,4.1939,4.1218,4.0476,4.0112,4.0311,4.0112,4.0476,4.1127,4.1489,4.2029,4.2658,4.3034,4.3213,4.341,4.3481,4.3481,4.3481,4.3536,4.3701,4.4031,4.427,4.4526,4.4948,4.5352,4.5498,4.5608,4.5755,4.5883,4.5883,4.5883,4.5883,4.5883,4.5883,4.5663,4.5297,4.4893,4.449,4.4105,4.3701,4.3499,4.3554,4.3719,4.4013,4.438,4.4655,4.4856,4.5058,4.5407,4.5553,4.5645,4.5792,4.5865,4.5883,4.5883,4.5883,4.5883,4.5883,4.5883,4.5883,4.5883,4.5883,4.5883,4.5883,4.5883,4.5883,4.5883,4.5847,4.5792,4.5718,4.5443,4.5205,4.5132,4.5168,4.5407,4.5553,4.5645,4.5718,4.5737,4.5773,4.5792,4.5792,4.5792,4.5755,4.581,4.5773,4.581,4.5828,4.5883,4.5883,4.5883,4.5902,4.6012,4.6122,4.6537,4.7216,4.7759,4.8482,4.9807,5.1136,5.274,5.4255,5.5751,5.7078,4.3664,4.394,4.394,4.3756,4.3499,4.3481,4.341,4.3303,4.2945,4.2658,4.2299,4.1759,4.0946,4.0021,3.9217,3.8834,3.8742,3.8575,3.9217,3.9748,4.0385,4.111,4.1939,4.2479,4.3034,4.3303,4.3499,4.3499,4.3481,4.3518,4.3646,4.394,4.4068,4.4251,4.4545,4.4911,4.5187,4.5388,4.5718,4.5865,4.5883,4.5883,4.5883,4.5883,4.5847,4.5718,4.5315,4.4893,4.449,4.4105,4.3701,4.3536,4.3701,4.3921,4.4325,4.471,4.5058,4.526,4.5443,4.5682,4.5865,4.5883,4.5883,4.5883,4.5883,4.5883,4.5883,4.5883,4.5883,4.5883,4.5883,4.5883,4.5883,4.5883,4.5883,4.5883,4.5902,4.5938,4.592,4.5865,4.5828,4.5847,4.5645,4.5535,4.5608,4.581,4.5883,4.5883,4.5883,4.5883,4.5883,4.5883,4.5883,4.5883,4.5883,4.5883,4.5883,4.5883,4.5883,4.5883,4.5883,4.592,4.5957,4.6103,4.6324,4.6661,4.7134,4.7517,4.7927,4.9433,5.0793,5.1993,5.3366,5.4961,5.6622,4.3499,4.3536,4.3536,4.3536,4.3481,4.3481,4.3213,4.2945,4.2837,4.2209,4.1325,4.0419,3.9491,3.8667,3.8116,3.7747,3.7715,3.7285,3.7823,3.8651,3.9474,4.0112,4.1019,4.1939,4.2766,4.2945,4.3213,4.3392,4.3481,4.3481,4.3518,4.3573,4.3848,4.4031,4.4233,4.4508,4.4911,4.5205,4.559,4.581,4.5847,4.5865,4.5883,4.5883,4.5865,4.57,4.5315,4.4893,4.449,4.4105,4.3774,4.3701,4.3921,4.4178,4.46,4.5021,4.5297,4.5517,4.5737,4.581,4.5865,4.5883,4.5883,4.5883,4.5883,4.5883,4.5883,4.5883,4.5883,4.5883,4.5883,4.5902,4.5902,4.6012,4.6067,4.6122,4.6103,4.6012,4.5993,4.592,4.5883,4.5883,4.5883,4.5737,4.57,4.5865,4.5883,4.5883,4.5883,4.5883,4.5883,4.5883,4.5883,4.5883,4.5883,4.5883,4.5883,4.5883,4.5883,4.5883,4.5883,4.5938,4.6103,4.6324,4.6562,4.6841,4.7103,4.7625,4.831,4.9321,5.037,5.1452,5.3162,5.5049,5.6645,4.3481,4.3481,4.3481,4.3481,4.3481,4.3213,4.2945,4.2658,4.2119,4.1325,4.0328,3.9142,3.8316,3.7839,3.71,3.673,3.6715,3.6637,3.6915,3.747,3.8191,3.9109,4.0021,4.1019,4.1849,4.2568,4.3034,4.3303,4.3499,4.3499,4.3481,4.3573,4.3683,4.3701,4.3848,4.4141,4.4526,4.4911,4.5278,4.5517,4.5572,4.5792,4.5883,4.5883,4.5883,4.5682,4.5315,4.4893,4.449,4.416,4.394,4.4013,4.4215,4.4526,4.493,4.5315,4.5498,4.5718,4.5828,4.5883,4.5883,4.5883,4.5883,4.5883,4.5883,4.5883,4.5883,4.5883,4.5883,4.5883,4.5883,4.5902,4.5957,4.6158,4.6287,4.6379,4.636,4.6287,4.6177,4.6158,4.5993,4.5883,4.5883,4.5883,4.5865,4.5883,4.5883,4.5883,4.5883,4.5883,4.5883,4.5883,4.5883,4.5883,4.5883,4.5883,4.5883,4.5883,4.5883,4.5883,4.592,4.6213,4.6379,4.658,4.6874,4.7185,4.7526,4.7973,4.8479,4.9165,4.9925,5.0863,5.2771,5.5027,5.6471,4.3392,4.3499,4.3481,4.3481,4.3392,4.3034,4.2748,4.2389,4.1687,4.0691,3.9599,3.8316,3.7486,3.71,3.6436,3.5894,3.5801,3.5816,3.608,3.6545,3.7285,3.8116,3.9109,4.0203,4.1218,4.2119,4.2748,4.3034,4.3213,4.341,4.3499,4.3481,4.3499,4.3518,4.3609,4.3884,4.4233,4.4526,4.4875,4.5095,4.5168,4.5333,4.548,4.5462,4.5443,4.5242,4.4966,4.4673,4.449,4.427,4.4178,4.4343,4.46,4.493,4.5297,4.5517,4.57,4.5883,4.5883,4.5883,4.5883,4.5883,4.5883,4.5883,4.5883,4.5883,4.5883,4.5883,4.5883,4.5902,4.592,4.6012,4.6158,4.636,4.6635,4.6727,4.6709,4.6635,4.6507,4.6397,4.6177,4.5883,4.5883,4.5883,4.5883,4.5883,4.5883,4.5883,4.5883,4.5883,4.5883,4.5883,4.5883,4.5883,4.5883,4.5883,4.5883,4.5883,4.5883,4.5883,4.5993,4.6305,4.6617,4.6819,4.7167,4.7626,4.787,4.8145,4.8544,4.8975,4.9827,5.0808,5.2395,5.4582,5.5796,4.3124,4.3481,4.3481,4.3499,4.341,4.3016,4.2479,4.1939,4.1308,4.0311,3.9034,3.804,3.7116,3.6359,3.5693,3.5241,3.4882,3.4882,3.5069,3.5615,3.6436,3.724,3.8256,3.9374,4.0521,4.0963,4.1759,4.2479,4.2837,4.3213,4.3392,4.3481,4.3481,4.3499,4.3536,4.3884,4.4086,4.416,4.449,4.4636,4.471,4.4801,4.4893,4.4893,4.4911,4.4746,4.4581,4.4636,4.449,4.4306,4.4526,4.4783,4.5095,4.5242,4.5517,4.5792,4.5847,4.5883,4.5883,4.5883,4.5883,4.5883,4.5883,4.5883,4.5883,4.5883,4.5883,4.5883,4.5883,4.592,4.603,4.6195,4.6379,4.6709,4.6984,4.7149,4.7149,4.6892,4.6745,4.658,4.6195,4.5883,4.5883,4.5883,4.5883,4.5883,4.5883,4.5883,4.5902,4.5883,4.5883,4.5883,4.5883,4.5883,4.5883,4.5883,4.5883,4.5883,4.592,4.5938,4.6103,4.6415,4.6709,4.702,4.7442,4.7901,4.8102,4.833,4.8545,4.9007,5.0022,5.1214,5.2624,5.3951,5.5093,4.3034,4.3481,4.3481,4.3303,4.3034,4.2479,4.2029,4.1416,4.0402,3.9399,3.8467,3.7285,3.6359,3.5708,3.5148,3.468,3.4305,3.4601,3.4789,3.4601,3.5701,3.6681,3.7632,3.8562,3.9656,4.0692,4.1409,4.2047,4.2837,4.3016,4.3213,4.3392,4.3481,4.3481,4.3518,4.3664,4.3683,4.3756,4.405,4.4288,4.4306,4.449,4.4618,4.4618,4.46,4.4526,4.4416,4.4581,4.4581,4.4545,4.4856,4.5168,4.5388,4.548,4.5737,4.5883,4.5883,4.5883,4.5883,4.5883,4.5883,4.5883,4.5883,4.5883,4.5883,4.5883,4.5883,4.5902,4.5938,4.603,4.6269,4.636,4.6617,4.7222,4.7534,4.7699,4.7662,4.7222,4.6929,4.6727,4.6434,4.603,4.5883,4.5883,4.5883,4.5938,4.5957,4.592,4.5902,4.5902,4.5883,4.5883,4.5883,4.5883,4.5883,4.5883,4.5883,4.5883,4.5957,4.603,4.625,4.658,4.6984,4.7369,4.7754,4.8139,4.8212,4.8366,4.8546,4.9113,4.9953,5.0788,5.1801,5.3058,5.422,4.2945,4.3499,4.3303,4.2945,4.2479,4.2119,4.1579,4.0691,3.9399,3.8575,3.7931,3.673,3.5894,3.5335,3.468,3.4305,3.3916,3.4024,3.445,3.4167,3.5126,3.6141,3.6988,3.7868,3.8897,4.0024,4.076,4.1392,4.1939,4.2568,4.3034,4.3392,4.3481,4.3481,4.3499,4.3518,4.3518,4.3591,4.3793,4.3884,4.394,4.4068,4.4215,4.4215,4.4233,4.427,4.4453,4.46,4.4765,4.4948,4.5223,4.548,4.559,4.57,4.5883,4.5883,4.5883,4.5883,4.5883,4.5883,4.5883,4.5883,4.5883,4.5883,4.5883,4.5883,4.5883,4.592,4.5993,4.6213,4.6452,4.6544,4.7075,4.7681,4.7882,4.8029,4.7956,4.7516,4.7057,4.6874,4.6452,4.6103,4.5902,4.5883,4.5883,4.5957,4.6012,4.5993,4.5993,4.5993,4.6012,4.6012,4.5957,4.592,4.592,4.5883,4.5883,4.5883,4.603,4.6177,4.6489,4.6837,4.7259,4.7662,4.7956,4.8176,4.8249,4.8366,4.8546,4.8903,4.9482,5.0317,5.0989,5.2149,5.3442,4.2586,4.3303,4.3034,4.2479,4.2029,4.1669,4.0946,3.9781,3.8775,3.8132,3.7578,3.6545,3.5801,3.5226,3.4385,3.3944,3.3799,3.3516,3.3794,3.4279,3.5009,3.5743,3.6642,3.7737,3.8403,3.9011,3.9713,4.0434,4.0817,4.2119,4.3034,4.3303,4.3392,4.3536,4.3573,4.3609,4.3609,4.3664,4.3701,4.3811,4.394,4.3811,4.3958,4.3976,4.3958,4.4141,4.4361,4.4636,4.4948,4.5278,4.5645,4.5792,4.5883,4.5883,4.5883,4.5883,4.5883,4.5883,4.5883,4.5883,4.5883,4.5883,4.5883,4.5883,4.5883,4.5902,4.5938,4.6067,4.6213,4.6415,4.6599,4.7075,4.7571,4.7864,4.8084,4.8139,4.8102,4.7754,4.7295,4.6855,4.6305,4.5975,4.592,4.5902,4.6103,4.6158,4.6269,4.6379,4.6342,4.625,4.625,4.6213,4.614,4.5975,4.5957,4.5993,4.6012,4.6067,4.625,4.6434,4.6764,4.7112,4.7497,4.7846,4.8084,4.8231,4.8267,4.8385,4.8484,4.8823,4.9161,4.9779,5.0476,5.1561,5.2699,4.2389,4.2927,4.2837,4.2119,4.0856,3.9491,3.9034,3.9125,3.8316,3.7578,3.71,3.6065,3.5428,3.4882,3.4212,3.387,3.37,3.3527,3.3517,3.3987,3.4792,3.556,3.6341,3.713,3.7936,3.8577,3.914,3.9872,4.096,4.2152,4.2802,4.3016,4.343,4.3611,4.3848,4.3921,4.3921,4.394,4.3958,4.4031,4.4196,4.4233,4.4233,4.4233,4.4215,4.4453,4.4801,4.4966,4.5297,4.5663,4.581,4.5883,4.5883,4.5883,4.5883,4.5883,4.5883,4.5883,4.5883,4.5883,4.5883,4.5883,4.5883,4.5883,4.5883,4.5957,4.6048,4.6213,4.6489,4.6745,4.7057,4.7497,4.7864,4.8066,4.8212,4.8212,4.8157,4.7864,4.7406,4.6984,4.6415,4.6177,4.6103,4.6232,4.6415,4.6452,4.6544,4.669,4.6709,4.6617,4.6544,4.6507,4.6452,4.6324,4.6195,4.6177,4.6213,4.625,4.6507,4.6819,4.7204,4.7534,4.7791,4.8011,4.8194,4.8249,4.8267,4.8385,4.8385,4.8583,4.8903,4.943,5.0048,5.1001,5.1934,4.2029,4.2389,4.2119,4.0946,3.9399,3.7947,3.7655,3.7839,3.7285,3.6823,3.6266,3.5693,3.5148,3.463,3.4073,3.3742,3.3597,3.3285,3.3298,3.3865,3.4563,3.5292,3.5952,3.6681,3.7469,3.8044,3.8656,3.9237,4.041,4.166,4.2417,4.3089,4.3416,4.3724,4.3979,4.4234,4.4435,4.4453,4.4471,4.4508,4.46,4.471,4.4673,4.471,4.471,4.4948,4.526,4.5315,4.5517,4.5828,4.5883,4.5883,4.5938,4.6012,4.6122,4.6158,4.6158,4.6048,4.5938,4.5902,4.5883,4.5902,4.5902,4.5993,4.6103,4.6195,4.6287,4.6434,4.68,4.7149,4.7497,4.7846,4.8047,4.8249,4.8267,4.8286,4.8102,4.7901,4.7534,4.713,4.68,4.6544,4.6507,4.6635,4.6745,4.6837,4.7002,4.7222,4.7167,4.702,4.6929,4.6874,4.68,4.6727,4.6599,4.6507,4.658,4.6727,4.6984,4.7314,4.7662,4.7864,4.8047,4.8157,4.8249,4.8286,4.8286,4.8286,4.8385,4.8484,4.8509,4.8727,4.93,5.01,5.0976,4.1489,4.1759,4.0765,3.9308,3.7655,3.7008,3.6545,3.608,3.608,3.5894,3.5506,3.532,3.5084,3.4733,3.4041,3.3749,3.356,3.3186,3.3222,3.3789,3.4337,3.4956,3.579,3.6667,3.7109,3.7515,3.7979,3.8576,3.9288,4.0534,4.1972,4.3015,4.3388,4.3682,4.4048,4.4361,4.4691,4.5132,4.5003,4.493,4.4875,4.482,4.4765,4.4838,4.4893,4.5021,4.5278,4.5425,4.5517,4.5755,4.5883,4.5883,4.6085,4.6232,4.6379,4.647,4.6452,4.6269,4.6067,4.5957,4.5902,4.5902,4.5938,4.6122,4.6287,4.636,4.6434,4.6819,4.7222,4.7497,4.7827,4.8011,4.8194,4.8267,4.8286,4.8286,4.8194,4.7956,4.7626,4.7277,4.7057,4.6837,4.6855,4.6965,4.713,4.724,4.7442,4.7699,4.7644,4.7461,4.7387,4.7295,4.7204,4.7149,4.7075,4.702,4.7039,4.7204,4.7424,4.7644,4.7864,4.8066,4.8267,4.8286,4.8286,4.8286,4.8286,4.8286,4.8286,4.8385,4.8355,4.8195,4.8641,4.934,5.0156,4.1145,4.0765,3.9125,3.7839,3.7008,3.6158,3.5521,3.5069,3.5069,3.5271,3.5335,3.5084,3.5015,3.4937,3.4116,3.3863,3.3963,3.3402,3.3238,3.3598,3.4063,3.4573,3.5182,3.6004,3.6539,3.7124,3.7612,3.8044,3.8878,3.9998,4.1059,4.2011,4.2621,4.332,4.411,4.4482,4.4961,4.5533,4.5572,4.5462,4.5462,4.5553,4.5608,4.5572,4.559,4.5553,4.57,4.5737,4.5792,4.5883,4.5883,4.6048,4.6324,4.6434,4.6654,4.6837,4.6709,4.6507,4.6287,4.6085,4.5975,4.603,4.6122,4.6305,4.6434,4.647,4.6727,4.7204,4.7589,4.7846,4.8047,4.8176,4.8286,4.8286,4.8286,4.8286,4.8286,4.8011,4.7699,4.7497,4.7295,4.7259,4.7259,4.7351,4.7497,4.7699,4.7956,4.8121,4.8084,4.7974,4.7919,4.7809,4.7644,4.7571,4.7516,4.7461,4.7461,4.7516,4.7681,4.7882,4.8084,4.8176,4.8286,4.8286,4.8286,4.8286,4.8286,4.8286,4.8286,4.8286,4.8311,4.8189,4.8248,4.8763,4.9519,4.0129,3.9765,3.8116,3.6915,3.6173,3.5428,3.4976,3.4724,3.4841,3.5088,3.5262,3.5103,3.5017,3.5156,3.4372,3.4129,3.4352,3.3616,3.3326,3.356,3.39,3.43,3.4812,3.5408,3.6004,3.6623,3.7124,3.7806,3.8749,3.9564,4.0424,4.1213,4.2004,4.2939,4.3827,4.4352,4.4988,4.5488,4.5789,4.5883,4.5883,4.5883,4.5883,4.5883,4.5883,4.5883,4.5883,4.5883,4.5883,4.5883,4.5883,4.6287,4.658,4.6782,4.7002,4.7204,4.7149,4.6855,4.6562,4.6324,4.6158,4.625,4.6305,4.6489,4.7075,4.7149,4.7167,4.7607,4.7882,4.8139,4.8157,4.8267,4.8286,4.8286,4.8286,4.8286,4.8286,4.8157,4.8011,4.7956,4.7827,4.7809,4.7827,4.7846,4.7956,4.7956,4.8249,4.8267,4.8286,4.8286,4.8286,4.8231,4.8011,4.7956,4.7937,4.7882,4.7846,4.7901,4.7919,4.8047,4.8194,4.8231,4.8286,4.8286,4.8286,4.8286,4.8286,4.8286,4.8286,4.8286,4.833,4.8238,4.8262,4.8279,4.8862,3.8834,3.8651,3.727,3.6251,3.5413,3.4882,3.4739,3.4812,3.5031,3.5178,3.5331,3.528,3.528,3.5102,3.4727,3.4661,3.4267,3.3652,3.3487,3.35,3.38,3.4114,3.4513,3.511,3.5607,3.6103,3.6652,3.7523,3.8539,3.9026,3.9609,4.0481,4.1561,4.2618,4.3209,4.4068,4.5034,4.5318,4.5601,4.5883,4.5883,4.5883,4.5883,4.5883,4.5883,4.5883,4.5883,4.5883,4.5883,4.5883,4.5938,4.636,4.6764,4.702,4.7369,4.7571,4.7607,4.724,4.6892,4.6654,4.658,4.658,4.658,4.6892,4.7516,4.7717,4.7736,4.7864,4.8139,4.8249,4.8267,4.8286,4.8286,4.8286,4.8286,4.8286,4.8267,4.8267,4.8267,4.8249,4.8231,4.8231,4.8231,4.8267,4.8267,4.8286,4.8286,4.8286,4.8286,4.8286,4.8286,4.8286,4.8176,4.8194,4.8249,4.8176,4.8084,4.8121,4.8121,4.8212,4.8286,4.8286,4.8286,4.8286,4.8286,4.8286,4.8286,4.8286,4.8286,4.8286,4.8249,4.8293,4.8171,4.8174,4.8287,3.7639,3.727,3.6158,3.56,3.532,3.4882,3.4841,3.5061,3.5134,3.539,3.5558,3.5822,3.5939,3.5827,3.4842,3.4633,3.4659,3.39,3.35,3.3414,3.3614,3.3814,3.4214,3.4612,3.5011,3.5607,3.6103,3.6696,3.7583,3.7893,3.858,3.9736,4.0416,4.1561,4.2905,4.3877,4.4655,4.5034,4.5506,4.5883,4.5883,4.5883,4.5883,4.5883,4.5883,4.5883,4.5883,4.5883,4.5883,4.5883,4.5938,4.6379,4.68,4.7149,4.7479,4.7864,4.7901,4.7644,4.7314,4.7075,4.7002,4.7002,4.7094,4.7369,4.7791,4.8011,4.8029,4.8084,4.8267,4.8267,4.8286,4.8286,4.8286,4.8286,4.8286,4.8286,4.8286,4.8286,4.8267,4.8267,4.8267,4.8267,4.8267,4.8286,4.8286,4.8286,4.8286,4.8286,4.8286,4.8286,4.8286,4.8286,4.8286,4.8286,4.8267,4.8267,4.8212,4.8267,4.8286,4.8286,4.8286,4.8286,4.8286,4.8286,4.8286,4.8286,4.8286,4.8286,4.8286,4.8286,4.8286,4.8311,4.8146,4.8103,4.8241]}]]